<?xml version="1.0" encoding="UTF-8" standalone="no" ?>
<gpx xmlns="http://www.topografix.com/GPX/1/1" xmlns:xsi="http://www.w3.org/2001/XMLSchema-instance" xsi:schemaLocation="http://www.topografix.com/GPX/1/1 http://www.topografix.com/GPX/1/1/gpx.xsd" version="1.1" creator="VisuGPX - https://www.visugpx.com">
  <metadata>
    <name>Forêt des Fanges</name>
    <desc><![CDATA[Chemin forestier roulant. ]]></desc>
  </metadata>
  <trk>
    <name><![CDATA[Les Fanges. ⬅️➡️]]></name>
    <trkseg>
      <trkpt lat="42.87012" lon="2.18401">
        <ele>288</ele>
        <time>2024-10-24T12:13:35.000Z</time>
      </trkpt>
      <trkpt lat="42.87007" lon="2.18382">
        <ele>288.20001220703</ele>
        <time>2024-10-24T12:13:40.000Z</time>
      </trkpt>
      <trkpt lat="42.87001" lon="2.18358">
        <ele>289.20001220703</ele>
        <time>2024-10-24T12:13:46.000Z</time>
      </trkpt>
      <trkpt lat="42.87004" lon="2.18343">
        <ele>289</ele>
        <time>2024-10-24T12:13:50.000Z</time>
      </trkpt>
      <trkpt lat="42.87006" lon="2.1834">
        <ele>289</ele>
        <time>2024-10-24T12:13:51.000Z</time>
      </trkpt>
      <trkpt lat="42.87013" lon="2.18337">
        <ele>289</ele>
        <time>2024-10-24T12:13:53.000Z</time>
      </trkpt>
      <trkpt lat="42.87036" lon="2.18335">
        <ele>289.60000610352</ele>
        <time>2024-10-24T12:13:58.000Z</time>
      </trkpt>
      <trkpt lat="42.87074" lon="2.18329">
        <ele>289.79998779297</ele>
        <time>2024-10-24T12:14:05.000Z</time>
      </trkpt>
      <trkpt lat="42.87091" lon="2.18325">
        <ele>290</ele>
        <time>2024-10-24T12:14:08.000Z</time>
      </trkpt>
      <trkpt lat="42.87102" lon="2.18322">
        <ele>290</ele>
        <time>2024-10-24T12:14:10.000Z</time>
      </trkpt>
      <trkpt lat="42.87156" lon="2.18313">
        <ele>291</ele>
        <time>2024-10-24T12:14:19.000Z</time>
      </trkpt>
      <trkpt lat="42.87178" lon="2.18312">
        <ele>291</ele>
        <time>2024-10-24T12:14:23.000Z</time>
      </trkpt>
      <trkpt lat="42.87193" lon="2.18309">
        <ele>290</ele>
        <time>2024-10-24T12:14:26.000Z</time>
      </trkpt>
      <trkpt lat="42.87199" lon="2.18307">
        <ele>289.79998779297</ele>
        <time>2024-10-24T12:14:27.000Z</time>
      </trkpt>
      <trkpt lat="42.87228" lon="2.18301">
        <ele>289.20001220703</ele>
        <time>2024-10-24T12:14:32.000Z</time>
      </trkpt>
      <trkpt lat="42.87254" lon="2.18297">
        <ele>289</ele>
        <time>2024-10-24T12:14:37.000Z</time>
      </trkpt>
      <trkpt lat="42.87259" lon="2.18296">
        <ele>289</ele>
        <time>2024-10-24T12:14:38.000Z</time>
      </trkpt>
      <trkpt lat="42.87279" lon="2.18292">
        <ele>289.79998779297</ele>
        <time>2024-10-24T12:14:42.000Z</time>
      </trkpt>
      <trkpt lat="42.87287" lon="2.1829">
        <ele>290.39999389648</ele>
        <time>2024-10-24T12:14:44.000Z</time>
      </trkpt>
      <trkpt lat="42.8729" lon="2.18292">
        <ele>290.20001220703</ele>
        <time>2024-10-24T12:14:45.000Z</time>
      </trkpt>
      <trkpt lat="42.87301" lon="2.18312">
        <ele>289</ele>
        <time>2024-10-24T12:14:48.000Z</time>
      </trkpt>
      <trkpt lat="42.87311" lon="2.18324">
        <ele>288</ele>
        <time>2024-10-24T12:14:50.000Z</time>
      </trkpt>
      <trkpt lat="42.87322" lon="2.18333">
        <ele>288</ele>
        <time>2024-10-24T12:14:52.000Z</time>
      </trkpt>
      <trkpt lat="42.87331" lon="2.1834">
        <ele>288</ele>
        <time>2024-10-24T12:14:54.000Z</time>
      </trkpt>
      <trkpt lat="42.87336" lon="2.18341">
        <ele>288</ele>
        <time>2024-10-24T12:14:55.000Z</time>
      </trkpt>
      <trkpt lat="42.87341" lon="2.18339">
        <ele>288</ele>
        <time>2024-10-24T12:14:56.000Z</time>
      </trkpt>
      <trkpt lat="42.87349" lon="2.18336">
        <ele>288.20001220703</ele>
        <time>2024-10-24T12:14:58.000Z</time>
      </trkpt>
      <trkpt lat="42.87355" lon="2.18342">
        <ele>288.39999389648</ele>
        <time>2024-10-24T12:15:00.000Z</time>
      </trkpt>
      <trkpt lat="42.87356" lon="2.18349">
        <ele>288.39999389648</ele>
        <time>2024-10-24T12:15:01.000Z</time>
      </trkpt>
      <trkpt lat="42.87362" lon="2.18378">
        <ele>288.60000610352</ele>
        <time>2024-10-24T12:15:05.000Z</time>
      </trkpt>
      <trkpt lat="42.87364" lon="2.18385">
        <ele>288.79998779297</ele>
        <time>2024-10-24T12:15:06.000Z</time>
      </trkpt>
      <trkpt lat="42.87361" lon="2.184">
        <ele>288.60000610352</ele>
        <time>2024-10-24T12:15:08.000Z</time>
      </trkpt>
      <trkpt lat="42.87344" lon="2.18421">
        <ele>289.39999389648</ele>
        <time>2024-10-24T12:15:12.000Z</time>
      </trkpt>
      <trkpt lat="42.87335" lon="2.18431">
        <ele>289.60000610352</ele>
        <time>2024-10-24T12:15:14.000Z</time>
      </trkpt>
      <trkpt lat="42.8732" lon="2.18449">
        <ele>289.20001220703</ele>
        <time>2024-10-24T12:15:17.000Z</time>
      </trkpt>
      <trkpt lat="42.87315" lon="2.18453">
        <ele>289</ele>
        <time>2024-10-24T12:15:18.000Z</time>
      </trkpt>
      <trkpt lat="42.8729" lon="2.18473">
        <ele>287.20001220703</ele>
        <time>2024-10-24T12:15:23.000Z</time>
      </trkpt>
      <trkpt lat="42.87277" lon="2.18486">
        <ele>286.60000610352</ele>
        <time>2024-10-24T12:15:26.000Z</time>
      </trkpt>
      <trkpt lat="42.87273" lon="2.18493">
        <ele>286.60000610352</ele>
        <time>2024-10-24T12:15:27.000Z</time>
      </trkpt>
      <trkpt lat="42.87271" lon="2.18501">
        <ele>286.79998779297</ele>
        <time>2024-10-24T12:15:28.000Z</time>
      </trkpt>
      <trkpt lat="42.8727" lon="2.18517">
        <ele>287.20001220703</ele>
        <time>2024-10-24T12:15:30.000Z</time>
      </trkpt>
      <trkpt lat="42.8727" lon="2.18542">
        <ele>287.39999389648</ele>
        <time>2024-10-24T12:15:33.000Z</time>
      </trkpt>
      <trkpt lat="42.87268" lon="2.18551">
        <ele>287.20001220703</ele>
        <time>2024-10-24T12:15:34.000Z</time>
      </trkpt>
      <trkpt lat="42.87264" lon="2.18558">
        <ele>287.39999389648</ele>
        <time>2024-10-24T12:15:35.000Z</time>
      </trkpt>
      <trkpt lat="42.87254" lon="2.18568">
        <ele>288</ele>
        <time>2024-10-24T12:15:37.000Z</time>
      </trkpt>
      <trkpt lat="42.87235" lon="2.1857">
        <ele>288.79998779297</ele>
        <time>2024-10-24T12:15:40.000Z</time>
      </trkpt>
      <trkpt lat="42.87192" lon="2.18577">
        <ele>289.60000610352</ele>
        <time>2024-10-24T12:15:47.000Z</time>
      </trkpt>
      <trkpt lat="42.87142" lon="2.18584">
        <ele>289.20001220703</ele>
        <time>2024-10-24T12:15:55.000Z</time>
      </trkpt>
      <trkpt lat="42.87089" lon="2.18593">
        <ele>291.60000610352</ele>
        <time>2024-10-24T12:16:04.000Z</time>
      </trkpt>
      <trkpt lat="42.87073" lon="2.18594">
        <ele>291</ele>
        <time>2024-10-24T12:16:07.000Z</time>
      </trkpt>
      <trkpt lat="42.87063" lon="2.1859">
        <ele>290.39999389648</ele>
        <time>2024-10-24T12:16:09.000Z</time>
      </trkpt>
      <trkpt lat="42.87054" lon="2.18584">
        <ele>289.39999389648</ele>
        <time>2024-10-24T12:16:11.000Z</time>
      </trkpt>
      <trkpt lat="42.87038" lon="2.1858">
        <ele>288.20001220703</ele>
        <time>2024-10-24T12:16:14.000Z</time>
      </trkpt>
      <trkpt lat="42.87025" lon="2.18584">
        <ele>288.79998779297</ele>
        <time>2024-10-24T12:16:16.000Z</time>
      </trkpt>
      <trkpt lat="42.87019" lon="2.18589">
        <ele>289.20001220703</ele>
        <time>2024-10-24T12:16:17.000Z</time>
      </trkpt>
      <trkpt lat="42.87014" lon="2.18595">
        <ele>289.60000610352</ele>
        <time>2024-10-24T12:16:18.000Z</time>
      </trkpt>
      <trkpt lat="42.87003" lon="2.18617">
        <ele>291.60000610352</ele>
        <time>2024-10-24T12:16:21.000Z</time>
      </trkpt>
      <trkpt lat="42.86979" lon="2.18658">
        <ele>294.20001220703</ele>
        <time>2024-10-24T12:16:27.000Z</time>
      </trkpt>
      <trkpt lat="42.86956" lon="2.18682">
        <ele>295</ele>
        <time>2024-10-24T12:16:32.000Z</time>
      </trkpt>
      <trkpt lat="42.86952" lon="2.18685">
        <ele>295</ele>
        <time>2024-10-24T12:16:33.000Z</time>
      </trkpt>
      <trkpt lat="42.86922" lon="2.18703">
        <ele>293.60000610352</ele>
        <time>2024-10-24T12:16:39.000Z</time>
      </trkpt>
      <trkpt lat="42.86912" lon="2.18708">
        <ele>293</ele>
        <time>2024-10-24T12:16:41.000Z</time>
      </trkpt>
      <trkpt lat="42.86903" lon="2.18713">
        <ele>292.20001220703</ele>
        <time>2024-10-24T12:16:43.000Z</time>
      </trkpt>
      <trkpt lat="42.86893" lon="2.18716">
        <ele>292.39999389648</ele>
        <time>2024-10-24T12:16:45.000Z</time>
      </trkpt>
      <trkpt lat="42.86888" lon="2.18716">
        <ele>292.60000610352</ele>
        <time>2024-10-24T12:16:46.000Z</time>
      </trkpt>
      <trkpt lat="42.86883" lon="2.18715">
        <ele>292.79998779297</ele>
        <time>2024-10-24T12:16:47.000Z</time>
      </trkpt>
      <trkpt lat="42.86873" lon="2.1871">
        <ele>292.79998779297</ele>
        <time>2024-10-24T12:16:49.000Z</time>
      </trkpt>
      <trkpt lat="42.86869" lon="2.18706">
        <ele>293</ele>
        <time>2024-10-24T12:16:50.000Z</time>
      </trkpt>
      <trkpt lat="42.86865" lon="2.18702">
        <ele>293</ele>
        <time>2024-10-24T12:16:51.000Z</time>
      </trkpt>
      <trkpt lat="42.86851" lon="2.18685">
        <ele>293.39999389648</ele>
        <time>2024-10-24T12:16:55.000Z</time>
      </trkpt>
      <trkpt lat="42.86846" lon="2.18678">
        <ele>294.20001220703</ele>
        <time>2024-10-24T12:16:57.000Z</time>
      </trkpt>
      <trkpt lat="42.86836" lon="2.18668">
        <ele>294.79998779297</ele>
        <time>2024-10-24T12:17:00.000Z</time>
      </trkpt>
      <trkpt lat="42.86832" lon="2.18664">
        <ele>295.20001220703</ele>
        <time>2024-10-24T12:17:04.000Z</time>
      </trkpt>
      <trkpt lat="42.86827" lon="2.18663">
        <ele>295.39999389648</ele>
        <time>2024-10-24T12:17:12.000Z</time>
      </trkpt>
      <trkpt lat="42.8682" lon="2.18659">
        <ele>295.79998779297</ele>
        <time>2024-10-24T12:17:14.000Z</time>
      </trkpt>
      <trkpt lat="42.86813" lon="2.18652">
        <ele>295.60000610352</ele>
        <time>2024-10-24T12:17:16.000Z</time>
      </trkpt>
      <trkpt lat="42.868" lon="2.18643">
        <ele>295</ele>
        <time>2024-10-24T12:17:19.000Z</time>
      </trkpt>
      <trkpt lat="42.86762" lon="2.18618">
        <ele>294</ele>
        <time>2024-10-24T12:17:27.000Z</time>
      </trkpt>
      <trkpt lat="42.86721" lon="2.18595">
        <ele>293.60000610352</ele>
        <time>2024-10-24T12:17:35.000Z</time>
      </trkpt>
      <trkpt lat="42.86678" lon="2.18581">
        <ele>295</ele>
        <time>2024-10-24T12:17:43.000Z</time>
      </trkpt>
      <trkpt lat="42.86633" lon="2.18567">
        <ele>293.20001220703</ele>
        <time>2024-10-24T12:17:51.000Z</time>
      </trkpt>
      <trkpt lat="42.86621" lon="2.1857">
        <ele>293.20001220703</ele>
        <time>2024-10-24T12:17:53.000Z</time>
      </trkpt>
      <trkpt lat="42.86616" lon="2.18574">
        <ele>293.20001220703</ele>
        <time>2024-10-24T12:17:54.000Z</time>
      </trkpt>
      <trkpt lat="42.86594" lon="2.18586">
        <ele>294</ele>
        <time>2024-10-24T12:17:58.000Z</time>
      </trkpt>
      <trkpt lat="42.86588" lon="2.18591">
        <ele>294</ele>
        <time>2024-10-24T12:17:59.000Z</time>
      </trkpt>
      <trkpt lat="42.86583" lon="2.18595">
        <ele>293.79998779297</ele>
        <time>2024-10-24T12:18:00.000Z</time>
      </trkpt>
      <trkpt lat="42.86568" lon="2.18605">
        <ele>293</ele>
        <time>2024-10-24T12:18:03.000Z</time>
      </trkpt>
      <trkpt lat="42.86556" lon="2.18609">
        <ele>293.20001220703</ele>
        <time>2024-10-24T12:18:05.000Z</time>
      </trkpt>
      <trkpt lat="42.86545" lon="2.1861">
        <ele>293.20001220703</ele>
        <time>2024-10-24T12:18:07.000Z</time>
      </trkpt>
      <trkpt lat="42.86514" lon="2.18604">
        <ele>294</ele>
        <time>2024-10-24T12:18:12.000Z</time>
      </trkpt>
      <trkpt lat="42.86483" lon="2.18597">
        <ele>292.20001220703</ele>
        <time>2024-10-24T12:18:17.000Z</time>
      </trkpt>
      <trkpt lat="42.86476" lon="2.18596">
        <ele>291.79998779297</ele>
        <time>2024-10-24T12:18:18.000Z</time>
      </trkpt>
      <trkpt lat="42.86465" lon="2.18599">
        <ele>290.79998779297</ele>
        <time>2024-10-24T12:18:20.000Z</time>
      </trkpt>
      <trkpt lat="42.86455" lon="2.18608">
        <ele>290.39999389648</ele>
        <time>2024-10-24T12:18:22.000Z</time>
      </trkpt>
      <trkpt lat="42.86446" lon="2.18621">
        <ele>292.20001220703</ele>
        <time>2024-10-24T12:18:24.000Z</time>
      </trkpt>
      <trkpt lat="42.8643" lon="2.18645">
        <ele>293.60000610352</ele>
        <time>2024-10-24T12:18:28.000Z</time>
      </trkpt>
      <trkpt lat="42.86427" lon="2.18651">
        <ele>293.79998779297</ele>
        <time>2024-10-24T12:18:29.000Z</time>
      </trkpt>
      <trkpt lat="42.86424" lon="2.18658">
        <ele>294.20001220703</ele>
        <time>2024-10-24T12:18:30.000Z</time>
      </trkpt>
      <trkpt lat="42.86418" lon="2.18671">
        <ele>294.20001220703</ele>
        <time>2024-10-24T12:18:32.000Z</time>
      </trkpt>
      <trkpt lat="42.86414" lon="2.18685">
        <ele>294</ele>
        <time>2024-10-24T12:18:34.000Z</time>
      </trkpt>
      <trkpt lat="42.86414" lon="2.187">
        <ele>293.39999389648</ele>
        <time>2024-10-24T12:18:36.000Z</time>
      </trkpt>
      <trkpt lat="42.86416" lon="2.18714">
        <ele>292.39999389648</ele>
        <time>2024-10-24T12:18:38.000Z</time>
      </trkpt>
      <trkpt lat="42.86425" lon="2.18752">
        <ele>291.60000610352</ele>
        <time>2024-10-24T12:18:43.000Z</time>
      </trkpt>
      <trkpt lat="42.86426" lon="2.18759">
        <ele>291.79998779297</ele>
        <time>2024-10-24T12:18:44.000Z</time>
      </trkpt>
      <trkpt lat="42.86435" lon="2.18807">
        <ele>292.60000610352</ele>
        <time>2024-10-24T12:18:51.000Z</time>
      </trkpt>
      <trkpt lat="42.86438" lon="2.18847">
        <ele>295</ele>
        <time>2024-10-24T12:18:57.000Z</time>
      </trkpt>
      <trkpt lat="42.86439" lon="2.18868">
        <ele>296.20001220703</ele>
        <time>2024-10-24T12:19:00.000Z</time>
      </trkpt>
      <trkpt lat="42.86438" lon="2.18882">
        <ele>297</ele>
        <time>2024-10-24T12:19:02.000Z</time>
      </trkpt>
      <trkpt lat="42.8644" lon="2.18907">
        <ele>297.60000610352</ele>
        <time>2024-10-24T12:19:06.000Z</time>
      </trkpt>
      <trkpt lat="42.86442" lon="2.18944">
        <ele>298.39999389648</ele>
        <time>2024-10-24T12:19:11.000Z</time>
      </trkpt>
      <trkpt lat="42.86444" lon="2.18952">
        <ele>298.79998779297</ele>
        <time>2024-10-24T12:19:12.000Z</time>
      </trkpt>
      <trkpt lat="42.86452" lon="2.18973">
        <ele>299.39999389648</ele>
        <time>2024-10-24T12:19:15.000Z</time>
      </trkpt>
      <trkpt lat="42.8646" lon="2.18994">
        <ele>300.79998779297</ele>
        <time>2024-10-24T12:19:18.000Z</time>
      </trkpt>
      <trkpt lat="42.86464" lon="2.19008">
        <ele>301</ele>
        <time>2024-10-24T12:19:20.000Z</time>
      </trkpt>
      <trkpt lat="42.86464" lon="2.1905">
        <ele>300</ele>
        <time>2024-10-24T12:19:26.000Z</time>
      </trkpt>
      <trkpt lat="42.86463" lon="2.19057">
        <ele>299.60000610352</ele>
        <time>2024-10-24T12:19:27.000Z</time>
      </trkpt>
      <trkpt lat="42.86463" lon="2.19071">
        <ele>300.60000610352</ele>
        <time>2024-10-24T12:19:29.000Z</time>
      </trkpt>
      <trkpt lat="42.86464" lon="2.19097">
        <ele>303</ele>
        <time>2024-10-24T12:19:33.000Z</time>
      </trkpt>
      <trkpt lat="42.86463" lon="2.19103">
        <ele>303.39999389648</ele>
        <time>2024-10-24T12:19:34.000Z</time>
      </trkpt>
      <trkpt lat="42.86459" lon="2.19122">
        <ele>305</ele>
        <time>2024-10-24T12:19:37.000Z</time>
      </trkpt>
      <trkpt lat="42.86454" lon="2.19134">
        <ele>305.20001220703</ele>
        <time>2024-10-24T12:19:39.000Z</time>
      </trkpt>
      <trkpt lat="42.86438" lon="2.19168">
        <ele>304.39999389648</ele>
        <time>2024-10-24T12:19:45.000Z</time>
      </trkpt>
      <trkpt lat="42.86426" lon="2.1919">
        <ele>303.39999389648</ele>
        <time>2024-10-24T12:19:49.000Z</time>
      </trkpt>
      <trkpt lat="42.86421" lon="2.19201">
        <ele>304.20001220703</ele>
        <time>2024-10-24T12:19:51.000Z</time>
      </trkpt>
      <trkpt lat="42.86417" lon="2.19206">
        <ele>304.20001220703</ele>
        <time>2024-10-24T12:19:52.000Z</time>
      </trkpt>
      <trkpt lat="42.86407" lon="2.1922">
        <ele>303</ele>
        <time>2024-10-24T12:19:55.000Z</time>
      </trkpt>
      <trkpt lat="42.86403" lon="2.19224">
        <ele>302.60000610352</ele>
        <time>2024-10-24T12:19:56.000Z</time>
      </trkpt>
      <trkpt lat="42.86395" lon="2.19232">
        <ele>302.60000610352</ele>
        <time>2024-10-24T12:19:58.000Z</time>
      </trkpt>
      <trkpt lat="42.86386" lon="2.19238">
        <ele>302.60000610352</ele>
        <time>2024-10-24T12:20:00.000Z</time>
      </trkpt>
      <trkpt lat="42.86373" lon="2.19248">
        <ele>303.39999389648</ele>
        <time>2024-10-24T12:20:05.000Z</time>
      </trkpt>
      <trkpt lat="42.8636" lon="2.19256">
        <ele>305.39999389648</ele>
        <time>2024-10-24T12:20:09.000Z</time>
      </trkpt>
      <trkpt lat="42.86356" lon="2.19259">
        <ele>305.79998779297</ele>
        <time>2024-10-24T12:20:10.000Z</time>
      </trkpt>
      <trkpt lat="42.86347" lon="2.19265">
        <ele>306.60000610352</ele>
        <time>2024-10-24T12:20:12.000Z</time>
      </trkpt>
      <trkpt lat="42.86333" lon="2.19275">
        <ele>307.20001220703</ele>
        <time>2024-10-24T12:20:15.000Z</time>
      </trkpt>
      <trkpt lat="42.86314" lon="2.19285">
        <ele>305.60000610352</ele>
        <time>2024-10-24T12:20:19.000Z</time>
      </trkpt>
      <trkpt lat="42.86309" lon="2.19287">
        <ele>305.60000610352</ele>
        <time>2024-10-24T12:20:20.000Z</time>
      </trkpt>
      <trkpt lat="42.86298" lon="2.19293">
        <ele>304.79998779297</ele>
        <time>2024-10-24T12:20:22.000Z</time>
      </trkpt>
      <trkpt lat="42.86288" lon="2.19298">
        <ele>304.39999389648</ele>
        <time>2024-10-24T12:20:24.000Z</time>
      </trkpt>
      <trkpt lat="42.86283" lon="2.19299">
        <ele>305</ele>
        <time>2024-10-24T12:20:25.000Z</time>
      </trkpt>
      <trkpt lat="42.86273" lon="2.19302">
        <ele>305.79998779297</ele>
        <time>2024-10-24T12:20:27.000Z</time>
      </trkpt>
      <trkpt lat="42.86262" lon="2.19302">
        <ele>305.79998779297</ele>
        <time>2024-10-24T12:20:29.000Z</time>
      </trkpt>
      <trkpt lat="42.86251" lon="2.19302">
        <ele>305.79998779297</ele>
        <time>2024-10-24T12:20:31.000Z</time>
      </trkpt>
      <trkpt lat="42.86245" lon="2.19302">
        <ele>306</ele>
        <time>2024-10-24T12:20:32.000Z</time>
      </trkpt>
      <trkpt lat="42.86234" lon="2.19304">
        <ele>306.79998779297</ele>
        <time>2024-10-24T12:20:34.000Z</time>
      </trkpt>
      <trkpt lat="42.86223" lon="2.19306">
        <ele>306.79998779297</ele>
        <time>2024-10-24T12:20:36.000Z</time>
      </trkpt>
      <trkpt lat="42.86201" lon="2.19313">
        <ele>307.39999389648</ele>
        <time>2024-10-24T12:20:41.000Z</time>
      </trkpt>
      <trkpt lat="42.86197" lon="2.19313">
        <ele>307.60000610352</ele>
        <time>2024-10-24T12:20:42.000Z</time>
      </trkpt>
      <trkpt lat="42.86189" lon="2.19314">
        <ele>308.39999389648</ele>
        <time>2024-10-24T12:20:44.000Z</time>
      </trkpt>
      <trkpt lat="42.86185" lon="2.19315">
        <ele>309</ele>
        <time>2024-10-24T12:20:45.000Z</time>
      </trkpt>
      <trkpt lat="42.86169" lon="2.19321">
        <ele>312.20001220703</ele>
        <time>2024-10-24T12:20:49.000Z</time>
      </trkpt>
      <trkpt lat="42.86149" lon="2.1932">
        <ele>316.39999389648</ele>
        <time>2024-10-24T12:20:54.000Z</time>
      </trkpt>
      <trkpt lat="42.86141" lon="2.19316">
        <ele>318.20001220703</ele>
        <time>2024-10-24T12:20:56.000Z</time>
      </trkpt>
      <trkpt lat="42.8613" lon="2.19308">
        <ele>319.79998779297</ele>
        <time>2024-10-24T12:20:59.000Z</time>
      </trkpt>
      <trkpt lat="42.86104" lon="2.19284">
        <ele>322.79998779297</ele>
        <time>2024-10-24T12:21:06.000Z</time>
      </trkpt>
      <trkpt lat="42.86079" lon="2.19255">
        <ele>324.20001220703</ele>
        <time>2024-10-24T12:21:13.000Z</time>
      </trkpt>
      <trkpt lat="42.86064" lon="2.19243">
        <ele>326.20001220703</ele>
        <time>2024-10-24T12:21:17.000Z</time>
      </trkpt>
      <trkpt lat="42.8605" lon="2.1923">
        <ele>327.20001220703</ele>
        <time>2024-10-24T12:21:21.000Z</time>
      </trkpt>
      <trkpt lat="42.86042" lon="2.19223">
        <ele>328.20001220703</ele>
        <time>2024-10-24T12:21:23.000Z</time>
      </trkpt>
      <trkpt lat="42.86029" lon="2.19213">
        <ele>330.39999389648</ele>
        <time>2024-10-24T12:21:26.000Z</time>
      </trkpt>
      <trkpt lat="42.86005" lon="2.19191">
        <ele>330.79998779297</ele>
        <time>2024-10-24T12:21:32.000Z</time>
      </trkpt>
      <trkpt lat="42.86001" lon="2.19188">
        <ele>329.79998779297</ele>
        <time>2024-10-24T12:21:33.000Z</time>
      </trkpt>
      <trkpt lat="42.85989" lon="2.19178">
        <ele>327.60000610352</ele>
        <time>2024-10-24T12:21:36.000Z</time>
      </trkpt>
      <trkpt lat="42.8597" lon="2.19161">
        <ele>322</ele>
        <time>2024-10-24T12:21:43.000Z</time>
      </trkpt>
      <trkpt lat="42.85956" lon="2.19165">
        <ele>319.20001220703</ele>
        <time>2024-10-24T12:21:49.000Z</time>
      </trkpt>
      <trkpt lat="42.85944" lon="2.19179">
        <ele>317.20001220703</ele>
        <time>2024-10-24T12:21:54.000Z</time>
      </trkpt>
      <trkpt lat="42.85939" lon="2.19197">
        <ele>317.60000610352</ele>
        <time>2024-10-24T12:21:58.000Z</time>
      </trkpt>
      <trkpt lat="42.85933" lon="2.19225">
        <ele>319.39999389648</ele>
        <time>2024-10-24T12:22:04.000Z</time>
      </trkpt>
      <trkpt lat="42.85928" lon="2.19233">
        <ele>318.39999389648</ele>
        <time>2024-10-24T12:22:06.000Z</time>
      </trkpt>
      <trkpt lat="42.8592" lon="2.19246">
        <ele>318.60000610352</ele>
        <time>2024-10-24T12:22:09.000Z</time>
      </trkpt>
      <trkpt lat="42.85916" lon="2.19249">
        <ele>318.79998779297</ele>
        <time>2024-10-24T12:22:10.000Z</time>
      </trkpt>
      <trkpt lat="42.8591" lon="2.19257">
        <ele>319.79998779297</ele>
        <time>2024-10-24T12:22:12.000Z</time>
      </trkpt>
      <trkpt lat="42.85905" lon="2.19266">
        <ele>321</ele>
        <time>2024-10-24T12:22:14.000Z</time>
      </trkpt>
      <trkpt lat="42.85886" lon="2.19292">
        <ele>325.39999389648</ele>
        <time>2024-10-24T12:22:20.000Z</time>
      </trkpt>
      <trkpt lat="42.85873" lon="2.19308">
        <ele>324.79998779297</ele>
        <time>2024-10-24T12:22:25.000Z</time>
      </trkpt>
      <trkpt lat="42.8586" lon="2.19316">
        <ele>323.60000610352</ele>
        <time>2024-10-24T12:22:30.000Z</time>
      </trkpt>
      <trkpt lat="42.85845" lon="2.19322">
        <ele>319.20001220703</ele>
        <time>2024-10-24T12:22:35.000Z</time>
      </trkpt>
      <trkpt lat="42.8584" lon="2.19324">
        <ele>318</ele>
        <time>2024-10-24T12:22:37.000Z</time>
      </trkpt>
      <trkpt lat="42.85835" lon="2.19328">
        <ele>317.60000610352</ele>
        <time>2024-10-24T12:22:39.000Z</time>
      </trkpt>
      <trkpt lat="42.85823" lon="2.19333">
        <ele>315.60000610352</ele>
        <time>2024-10-24T12:22:43.000Z</time>
      </trkpt>
      <trkpt lat="42.85819" lon="2.19336">
        <ele>314.39999389648</ele>
        <time>2024-10-24T12:22:44.000Z</time>
      </trkpt>
      <trkpt lat="42.85806" lon="2.19348">
        <ele>313.60000610352</ele>
        <time>2024-10-24T12:22:47.000Z</time>
      </trkpt>
      <trkpt lat="42.85802" lon="2.19353">
        <ele>313.60000610352</ele>
        <time>2024-10-24T12:22:48.000Z</time>
      </trkpt>
      <trkpt lat="42.85799" lon="2.19358">
        <ele>314</ele>
        <time>2024-10-24T12:22:49.000Z</time>
      </trkpt>
      <trkpt lat="42.85793" lon="2.19369">
        <ele>313.20001220703</ele>
        <time>2024-10-24T12:22:51.000Z</time>
      </trkpt>
      <trkpt lat="42.8579" lon="2.19376">
        <ele>312.60000610352</ele>
        <time>2024-10-24T12:22:52.000Z</time>
      </trkpt>
      <trkpt lat="42.8578" lon="2.1941">
        <ele>312.20001220703</ele>
        <time>2024-10-24T12:22:57.000Z</time>
      </trkpt>
      <trkpt lat="42.85772" lon="2.19435">
        <ele>313.39999389648</ele>
        <time>2024-10-24T12:23:01.000Z</time>
      </trkpt>
      <trkpt lat="42.8577" lon="2.19441">
        <ele>313.60000610352</ele>
        <time>2024-10-24T12:23:02.000Z</time>
      </trkpt>
      <trkpt lat="42.85767" lon="2.19448">
        <ele>313.39999389648</ele>
        <time>2024-10-24T12:23:03.000Z</time>
      </trkpt>
      <trkpt lat="42.85762" lon="2.19461">
        <ele>312.60000610352</ele>
        <time>2024-10-24T12:23:05.000Z</time>
      </trkpt>
      <trkpt lat="42.85757" lon="2.19474">
        <ele>312.20001220703</ele>
        <time>2024-10-24T12:23:07.000Z</time>
      </trkpt>
      <trkpt lat="42.85754" lon="2.19483">
        <ele>312.39999389648</ele>
        <time>2024-10-24T12:23:08.000Z</time>
      </trkpt>
      <trkpt lat="42.85747" lon="2.19507">
        <ele>312.79998779297</ele>
        <time>2024-10-24T12:23:12.000Z</time>
      </trkpt>
      <trkpt lat="42.85737" lon="2.19532">
        <ele>314</ele>
        <time>2024-10-24T12:23:16.000Z</time>
      </trkpt>
      <trkpt lat="42.85732" lon="2.19545">
        <ele>314.79998779297</ele>
        <time>2024-10-24T12:23:18.000Z</time>
      </trkpt>
      <trkpt lat="42.85722" lon="2.19573">
        <ele>313.60000610352</ele>
        <time>2024-10-24T12:23:22.000Z</time>
      </trkpt>
      <trkpt lat="42.85721" lon="2.19581">
        <ele>313.60000610352</ele>
        <time>2024-10-24T12:23:23.000Z</time>
      </trkpt>
      <trkpt lat="42.85719" lon="2.19596">
        <ele>313.60000610352</ele>
        <time>2024-10-24T12:23:25.000Z</time>
      </trkpt>
      <trkpt lat="42.8572" lon="2.1961">
        <ele>314</ele>
        <time>2024-10-24T12:23:27.000Z</time>
      </trkpt>
      <trkpt lat="42.85719" lon="2.19628">
        <ele>314.60000610352</ele>
        <time>2024-10-24T12:23:30.000Z</time>
      </trkpt>
      <trkpt lat="42.85716" lon="2.19642">
        <ele>316.20001220703</ele>
        <time>2024-10-24T12:23:32.000Z</time>
      </trkpt>
      <trkpt lat="42.85707" lon="2.19681">
        <ele>318.20001220703</ele>
        <time>2024-10-24T12:23:38.000Z</time>
      </trkpt>
      <trkpt lat="42.85701" lon="2.197">
        <ele>319.39999389648</ele>
        <time>2024-10-24T12:23:41.000Z</time>
      </trkpt>
      <trkpt lat="42.85695" lon="2.19711">
        <ele>319.39999389648</ele>
        <time>2024-10-24T12:23:43.000Z</time>
      </trkpt>
      <trkpt lat="42.85693" lon="2.19716">
        <ele>319</ele>
        <time>2024-10-24T12:23:44.000Z</time>
      </trkpt>
      <trkpt lat="42.85685" lon="2.1973">
        <ele>316.79998779297</ele>
        <time>2024-10-24T12:23:47.000Z</time>
      </trkpt>
      <trkpt lat="42.85668" lon="2.1976">
        <ele>312.39999389648</ele>
        <time>2024-10-24T12:23:53.000Z</time>
      </trkpt>
      <trkpt lat="42.85666" lon="2.19766">
        <ele>312</ele>
        <time>2024-10-24T12:23:54.000Z</time>
      </trkpt>
      <trkpt lat="42.85666" lon="2.19785">
        <ele>311.20001220703</ele>
        <time>2024-10-24T12:23:57.000Z</time>
      </trkpt>
      <trkpt lat="42.85667" lon="2.1979">
        <ele>311.39999389648</ele>
        <time>2024-10-24T12:23:58.000Z</time>
      </trkpt>
      <trkpt lat="42.85671" lon="2.19812">
        <ele>312</ele>
        <time>2024-10-24T12:24:02.000Z</time>
      </trkpt>
      <trkpt lat="42.85669" lon="2.19843">
        <ele>314</ele>
        <time>2024-10-24T12:24:07.000Z</time>
      </trkpt>
      <trkpt lat="42.85667" lon="2.19872">
        <ele>317.60000610352</ele>
        <time>2024-10-24T12:24:13.000Z</time>
      </trkpt>
      <trkpt lat="42.85665" lon="2.19892">
        <ele>321</ele>
        <time>2024-10-24T12:24:17.000Z</time>
      </trkpt>
      <trkpt lat="42.85664" lon="2.19898">
        <ele>322</ele>
        <time>2024-10-24T12:24:18.000Z</time>
      </trkpt>
      <trkpt lat="42.85658" lon="2.19928">
        <ele>323.60000610352</ele>
        <time>2024-10-24T12:24:23.000Z</time>
      </trkpt>
      <trkpt lat="42.85657" lon="2.1995">
        <ele>323.60000610352</ele>
        <time>2024-10-24T12:24:26.000Z</time>
      </trkpt>
      <trkpt lat="42.85656" lon="2.19956">
        <ele>322.60000610352</ele>
        <time>2024-10-24T12:24:27.000Z</time>
      </trkpt>
      <trkpt lat="42.85652" lon="2.19968">
        <ele>319.20001220703</ele>
        <time>2024-10-24T12:24:29.000Z</time>
      </trkpt>
      <trkpt lat="42.8565" lon="2.19981">
        <ele>318.20001220703</ele>
        <time>2024-10-24T12:24:31.000Z</time>
      </trkpt>
      <trkpt lat="42.85642" lon="2.20006">
        <ele>318.60000610352</ele>
        <time>2024-10-24T12:24:35.000Z</time>
      </trkpt>
      <trkpt lat="42.85639" lon="2.20012">
        <ele>318.60000610352</ele>
        <time>2024-10-24T12:24:36.000Z</time>
      </trkpt>
      <trkpt lat="42.85626" lon="2.20036">
        <ele>316.39999389648</ele>
        <time>2024-10-24T12:24:40.000Z</time>
      </trkpt>
      <trkpt lat="42.85623" lon="2.20043">
        <ele>315.39999389648</ele>
        <time>2024-10-24T12:24:41.000Z</time>
      </trkpt>
      <trkpt lat="42.85611" lon="2.20068">
        <ele>312.39999389648</ele>
        <time>2024-10-24T12:24:45.000Z</time>
      </trkpt>
      <trkpt lat="42.856" lon="2.20085">
        <ele>312.39999389648</ele>
        <time>2024-10-24T12:24:48.000Z</time>
      </trkpt>
      <trkpt lat="42.85596" lon="2.2009">
        <ele>312.60000610352</ele>
        <time>2024-10-24T12:24:49.000Z</time>
      </trkpt>
      <trkpt lat="42.85586" lon="2.20096">
        <ele>313.20001220703</ele>
        <time>2024-10-24T12:24:51.000Z</time>
      </trkpt>
      <trkpt lat="42.8558" lon="2.20097">
        <ele>313</ele>
        <time>2024-10-24T12:24:52.000Z</time>
      </trkpt>
      <trkpt lat="42.85551" lon="2.20103">
        <ele>311</ele>
        <time>2024-10-24T12:24:58.000Z</time>
      </trkpt>
      <trkpt lat="42.85532" lon="2.20107">
        <ele>309.20001220703</ele>
        <time>2024-10-24T12:25:02.000Z</time>
      </trkpt>
      <trkpt lat="42.85522" lon="2.20107">
        <ele>309.20001220703</ele>
        <time>2024-10-24T12:25:04.000Z</time>
      </trkpt>
      <trkpt lat="42.85511" lon="2.20107">
        <ele>309</ele>
        <time>2024-10-24T12:25:06.000Z</time>
      </trkpt>
      <trkpt lat="42.85502" lon="2.20108">
        <ele>309.20001220703</ele>
        <time>2024-10-24T12:25:08.000Z</time>
      </trkpt>
      <trkpt lat="42.8548" lon="2.20112">
        <ele>310</ele>
        <time>2024-10-24T12:25:13.000Z</time>
      </trkpt>
      <trkpt lat="42.85451" lon="2.20119">
        <ele>309.79998779297</ele>
        <time>2024-10-24T12:25:20.000Z</time>
      </trkpt>
      <trkpt lat="42.8544" lon="2.20125">
        <ele>310</ele>
        <time>2024-10-24T12:25:23.000Z</time>
      </trkpt>
      <trkpt lat="42.85438" lon="2.2013">
        <ele>310</ele>
        <time>2024-10-24T12:25:24.000Z</time>
      </trkpt>
      <trkpt lat="42.85436" lon="2.20146">
        <ele>310.20001220703</ele>
        <time>2024-10-24T12:25:28.000Z</time>
      </trkpt>
      <trkpt lat="42.85433" lon="2.2016">
        <ele>310.79998779297</ele>
        <time>2024-10-24T12:25:32.000Z</time>
      </trkpt>
      <trkpt lat="42.85419" lon="2.20162">
        <ele>311.20001220703</ele>
        <time>2024-10-24T12:25:37.000Z</time>
      </trkpt>
      <trkpt lat="42.85418" lon="2.20169">
        <ele>311.79998779297</ele>
        <time>2024-10-24T12:25:39.000Z</time>
      </trkpt>
      <trkpt lat="42.85415" lon="2.20171">
        <ele>311.79998779297</ele>
        <time>2024-10-24T12:25:40.000Z</time>
      </trkpt>
      <trkpt lat="42.85403" lon="2.2017">
        <ele>311.60000610352</ele>
        <time>2024-10-24T12:25:44.000Z</time>
      </trkpt>
      <trkpt lat="42.85399" lon="2.20172">
        <ele>311.39999389648</ele>
        <time>2024-10-24T12:25:45.000Z</time>
      </trkpt>
      <trkpt lat="42.85393" lon="2.20178">
        <ele>311.60000610352</ele>
        <time>2024-10-24T12:25:47.000Z</time>
      </trkpt>
      <trkpt lat="42.85384" lon="2.20182">
        <ele>311.39999389648</ele>
        <time>2024-10-24T12:25:49.000Z</time>
      </trkpt>
      <trkpt lat="42.85374" lon="2.20182">
        <ele>311.20001220703</ele>
        <time>2024-10-24T12:25:51.000Z</time>
      </trkpt>
      <trkpt lat="42.85369" lon="2.20183">
        <ele>311</ele>
        <time>2024-10-24T12:25:52.000Z</time>
      </trkpt>
      <trkpt lat="42.85359" lon="2.20188">
        <ele>310.60000610352</ele>
        <time>2024-10-24T12:25:54.000Z</time>
      </trkpt>
      <trkpt lat="42.85355" lon="2.20193">
        <ele>310.60000610352</ele>
        <time>2024-10-24T12:25:55.000Z</time>
      </trkpt>
      <trkpt lat="42.85322" lon="2.20239">
        <ele>310.60000610352</ele>
        <time>2024-10-24T12:26:03.000Z</time>
      </trkpt>
      <trkpt lat="42.85295" lon="2.20282">
        <ele>312.39999389648</ele>
        <time>2024-10-24T12:26:10.000Z</time>
      </trkpt>
      <trkpt lat="42.8527" lon="2.20327">
        <ele>312.79998779297</ele>
        <time>2024-10-24T12:26:17.000Z</time>
      </trkpt>
      <trkpt lat="42.85253" lon="2.2036">
        <ele>312</ele>
        <time>2024-10-24T12:26:22.000Z</time>
      </trkpt>
      <trkpt lat="42.85233" lon="2.20415">
        <ele>312.79998779297</ele>
        <time>2024-10-24T12:26:30.000Z</time>
      </trkpt>
      <trkpt lat="42.85211" lon="2.20455">
        <ele>316.39999389648</ele>
        <time>2024-10-24T12:26:37.000Z</time>
      </trkpt>
      <trkpt lat="42.85184" lon="2.2049">
        <ele>318.79998779297</ele>
        <time>2024-10-24T12:26:44.000Z</time>
      </trkpt>
      <trkpt lat="42.85168" lon="2.20508">
        <ele>319.79998779297</ele>
        <time>2024-10-24T12:26:48.000Z</time>
      </trkpt>
      <trkpt lat="42.85155" lon="2.20517">
        <ele>319.39999389648</ele>
        <time>2024-10-24T12:26:51.000Z</time>
      </trkpt>
      <trkpt lat="42.85149" lon="2.20519">
        <ele>319</ele>
        <time>2024-10-24T12:26:52.000Z</time>
      </trkpt>
      <trkpt lat="42.85139" lon="2.2052">
        <ele>319.79998779297</ele>
        <time>2024-10-24T12:26:54.000Z</time>
      </trkpt>
      <trkpt lat="42.85133" lon="2.20519">
        <ele>320</ele>
        <time>2024-10-24T12:26:55.000Z</time>
      </trkpt>
      <trkpt lat="42.85106" lon="2.20512">
        <ele>320.79998779297</ele>
        <time>2024-10-24T12:27:00.000Z</time>
      </trkpt>
      <trkpt lat="42.85096" lon="2.20506">
        <ele>320.39999389648</ele>
        <time>2024-10-24T12:27:02.000Z</time>
      </trkpt>
      <trkpt lat="42.85049" lon="2.20476">
        <ele>317.39999389648</ele>
        <time>2024-10-24T12:27:11.000Z</time>
      </trkpt>
      <trkpt lat="42.85033" lon="2.20468">
        <ele>317</ele>
        <time>2024-10-24T12:27:14.000Z</time>
      </trkpt>
      <trkpt lat="42.85017" lon="2.20465">
        <ele>317</ele>
        <time>2024-10-24T12:27:17.000Z</time>
      </trkpt>
      <trkpt lat="42.85008" lon="2.20464">
        <ele>317</ele>
        <time>2024-10-24T12:27:19.000Z</time>
      </trkpt>
      <trkpt lat="42.84994" lon="2.20467">
        <ele>317.60000610352</ele>
        <time>2024-10-24T12:27:22.000Z</time>
      </trkpt>
      <trkpt lat="42.84964" lon="2.20477">
        <ele>319</ele>
        <time>2024-10-24T12:27:29.000Z</time>
      </trkpt>
      <trkpt lat="42.84941" lon="2.20495">
        <ele>319.79998779297</ele>
        <time>2024-10-24T12:27:35.000Z</time>
      </trkpt>
      <trkpt lat="42.84937" lon="2.20499">
        <ele>320.39999389648</ele>
        <time>2024-10-24T12:27:36.000Z</time>
      </trkpt>
      <trkpt lat="42.84932" lon="2.20508">
        <ele>321.20001220703</ele>
        <time>2024-10-24T12:27:38.000Z</time>
      </trkpt>
      <trkpt lat="42.8493" lon="2.20513">
        <ele>321.60000610352</ele>
        <time>2024-10-24T12:27:39.000Z</time>
      </trkpt>
      <trkpt lat="42.84917" lon="2.20544">
        <ele>326</ele>
        <time>2024-10-24T12:27:45.000Z</time>
      </trkpt>
      <trkpt lat="42.84913" lon="2.20554">
        <ele>327</ele>
        <time>2024-10-24T12:27:47.000Z</time>
      </trkpt>
      <trkpt lat="42.84902" lon="2.20582">
        <ele>329.20001220703</ele>
        <time>2024-10-24T12:27:53.000Z</time>
      </trkpt>
      <trkpt lat="42.84899" lon="2.20598">
        <ele>329.79998779297</ele>
        <time>2024-10-24T12:27:56.000Z</time>
      </trkpt>
      <trkpt lat="42.84894" lon="2.20614">
        <ele>330.20001220703</ele>
        <time>2024-10-24T12:27:59.000Z</time>
      </trkpt>
      <trkpt lat="42.84888" lon="2.2063">
        <ele>330.39999389648</ele>
        <time>2024-10-24T12:28:02.000Z</time>
      </trkpt>
      <trkpt lat="42.8488" lon="2.20644">
        <ele>329.79998779297</ele>
        <time>2024-10-24T12:28:05.000Z</time>
      </trkpt>
      <trkpt lat="42.84878" lon="2.20649">
        <ele>329.79998779297</ele>
        <time>2024-10-24T12:28:06.000Z</time>
      </trkpt>
      <trkpt lat="42.84873" lon="2.20668">
        <ele>329.60000610352</ele>
        <time>2024-10-24T12:28:09.000Z</time>
      </trkpt>
      <trkpt lat="42.84873" lon="2.20674">
        <ele>329.60000610352</ele>
        <time>2024-10-24T12:28:10.000Z</time>
      </trkpt>
      <trkpt lat="42.84873" lon="2.2068">
        <ele>329.60000610352</ele>
        <time>2024-10-24T12:28:11.000Z</time>
      </trkpt>
      <trkpt lat="42.84876" lon="2.20693">
        <ele>330.20001220703</ele>
        <time>2024-10-24T12:28:13.000Z</time>
      </trkpt>
      <trkpt lat="42.84878" lon="2.20699">
        <ele>330.79998779297</ele>
        <time>2024-10-24T12:28:14.000Z</time>
      </trkpt>
      <trkpt lat="42.8489" lon="2.20734">
        <ele>332.79998779297</ele>
        <time>2024-10-24T12:28:20.000Z</time>
      </trkpt>
      <trkpt lat="42.84892" lon="2.2074">
        <ele>333</ele>
        <time>2024-10-24T12:28:21.000Z</time>
      </trkpt>
      <trkpt lat="42.84897" lon="2.20758">
        <ele>333.79998779297</ele>
        <time>2024-10-24T12:28:24.000Z</time>
      </trkpt>
      <trkpt lat="42.84897" lon="2.20764">
        <ele>333.79998779297</ele>
        <time>2024-10-24T12:28:25.000Z</time>
      </trkpt>
      <trkpt lat="42.84899" lon="2.2079">
        <ele>334.79998779297</ele>
        <time>2024-10-24T12:28:31.000Z</time>
      </trkpt>
      <trkpt lat="42.84898" lon="2.20804">
        <ele>335.39999389648</ele>
        <time>2024-10-24T12:28:37.000Z</time>
      </trkpt>
      <trkpt lat="42.84898" lon="2.20806">
        <ele>335.60000610352</ele>
        <time>2024-10-24T12:28:38.000Z</time>
      </trkpt>
      <trkpt lat="42.84898" lon="2.2081">
        <ele>335.79998779297</ele>
        <time>2024-10-24T12:29:04.000Z</time>
      </trkpt>
      <trkpt lat="42.84897" lon="2.20813">
        <ele>336.20001220703</ele>
        <time>2024-10-24T12:29:05.000Z</time>
      </trkpt>
      <trkpt lat="42.84889" lon="2.20837">
        <ele>337.79998779297</ele>
        <time>2024-10-24T12:29:11.000Z</time>
      </trkpt>
      <trkpt lat="42.84883" lon="2.2087">
        <ele>340.79998779297</ele>
        <time>2024-10-24T12:29:17.000Z</time>
      </trkpt>
      <trkpt lat="42.84879" lon="2.20917">
        <ele>346.20001220703</ele>
        <time>2024-10-24T12:29:25.000Z</time>
      </trkpt>
      <trkpt lat="42.84879" lon="2.20923">
        <ele>347.20001220703</ele>
        <time>2024-10-24T12:29:26.000Z</time>
      </trkpt>
      <trkpt lat="42.84882" lon="2.20947">
        <ele>351</ele>
        <time>2024-10-24T12:29:30.000Z</time>
      </trkpt>
      <trkpt lat="42.8489" lon="2.20975">
        <ele>354</ele>
        <time>2024-10-24T12:29:35.000Z</time>
      </trkpt>
      <trkpt lat="42.84896" lon="2.20991">
        <ele>355</ele>
        <time>2024-10-24T12:29:38.000Z</time>
      </trkpt>
      <trkpt lat="42.8491" lon="2.21021">
        <ele>359.39999389648</ele>
        <time>2024-10-24T12:29:44.000Z</time>
      </trkpt>
      <trkpt lat="42.8493" lon="2.21061">
        <ele>361</ele>
        <time>2024-10-24T12:29:52.000Z</time>
      </trkpt>
      <trkpt lat="42.84932" lon="2.21067">
        <ele>361.20001220703</ele>
        <time>2024-10-24T12:29:53.000Z</time>
      </trkpt>
      <trkpt lat="42.84937" lon="2.21077">
        <ele>362</ele>
        <time>2024-10-24T12:29:55.000Z</time>
      </trkpt>
      <trkpt lat="42.84945" lon="2.21091">
        <ele>362.39999389648</ele>
        <time>2024-10-24T12:29:58.000Z</time>
      </trkpt>
      <trkpt lat="42.84956" lon="2.21112">
        <ele>362.20001220703</ele>
        <time>2024-10-24T12:30:03.000Z</time>
      </trkpt>
      <trkpt lat="42.84964" lon="2.21128">
        <ele>360.79998779297</ele>
        <time>2024-10-24T12:30:08.000Z</time>
      </trkpt>
      <trkpt lat="42.8497" lon="2.21144">
        <ele>360.60000610352</ele>
        <time>2024-10-24T12:30:14.000Z</time>
      </trkpt>
      <trkpt lat="42.84971" lon="2.21161">
        <ele>362.20001220703</ele>
        <time>2024-10-24T12:30:20.000Z</time>
      </trkpt>
      <trkpt lat="42.84972" lon="2.21186">
        <ele>365</ele>
        <time>2024-10-24T12:30:26.000Z</time>
      </trkpt>
      <trkpt lat="42.84973" lon="2.21214">
        <ele>365.60000610352</ele>
        <time>2024-10-24T12:30:32.000Z</time>
      </trkpt>
      <trkpt lat="42.84973" lon="2.21246">
        <ele>366.79998779297</ele>
        <time>2024-10-24T12:30:38.000Z</time>
      </trkpt>
      <trkpt lat="42.84969" lon="2.21288">
        <ele>369.39999389648</ele>
        <time>2024-10-24T12:30:46.000Z</time>
      </trkpt>
      <trkpt lat="42.84964" lon="2.21325">
        <ele>373.79998779297</ele>
        <time>2024-10-24T12:30:53.000Z</time>
      </trkpt>
      <trkpt lat="42.84962" lon="2.2134">
        <ele>375.20001220703</ele>
        <time>2024-10-24T12:30:56.000Z</time>
      </trkpt>
      <trkpt lat="42.84964" lon="2.21352">
        <ele>375.79998779297</ele>
        <time>2024-10-24T12:30:58.000Z</time>
      </trkpt>
      <trkpt lat="42.8497" lon="2.21372">
        <ele>375.79998779297</ele>
        <time>2024-10-24T12:31:02.000Z</time>
      </trkpt>
      <trkpt lat="42.84972" lon="2.21378">
        <ele>375.79998779297</ele>
        <time>2024-10-24T12:31:03.000Z</time>
      </trkpt>
      <trkpt lat="42.84972" lon="2.2139">
        <ele>375</ele>
        <time>2024-10-24T12:31:05.000Z</time>
      </trkpt>
      <trkpt lat="42.84972" lon="2.21401">
        <ele>374.39999389648</ele>
        <time>2024-10-24T12:31:07.000Z</time>
      </trkpt>
      <trkpt lat="42.84967" lon="2.21424">
        <ele>373.79998779297</ele>
        <time>2024-10-24T12:31:12.000Z</time>
      </trkpt>
      <trkpt lat="42.84956" lon="2.21452">
        <ele>376</ele>
        <time>2024-10-24T12:31:19.000Z</time>
      </trkpt>
      <trkpt lat="42.84951" lon="2.21479">
        <ele>378.39999389648</ele>
        <time>2024-10-24T12:31:25.000Z</time>
      </trkpt>
      <trkpt lat="42.84948" lon="2.21509">
        <ele>383.60000610352</ele>
        <time>2024-10-24T12:31:32.000Z</time>
      </trkpt>
      <trkpt lat="42.84942" lon="2.21541">
        <ele>389.60000610352</ele>
        <time>2024-10-24T12:31:39.000Z</time>
      </trkpt>
      <trkpt lat="42.84935" lon="2.21576">
        <ele>392</ele>
        <time>2024-10-24T12:31:46.000Z</time>
      </trkpt>
      <trkpt lat="42.84934" lon="2.21597">
        <ele>391.60000610352</ele>
        <time>2024-10-24T12:31:50.000Z</time>
      </trkpt>
      <trkpt lat="42.84942" lon="2.21617">
        <ele>389.39999389648</ele>
        <time>2024-10-24T12:31:54.000Z</time>
      </trkpt>
      <trkpt lat="42.84951" lon="2.21634">
        <ele>387.79998779297</ele>
        <time>2024-10-24T12:31:58.000Z</time>
      </trkpt>
      <trkpt lat="42.84956" lon="2.21662">
        <ele>388.79998779297</ele>
        <time>2024-10-24T12:32:04.000Z</time>
      </trkpt>
      <trkpt lat="42.84954" lon="2.21687">
        <ele>390</ele>
        <time>2024-10-24T12:32:09.000Z</time>
      </trkpt>
      <trkpt lat="42.84944" lon="2.21709">
        <ele>392</ele>
        <time>2024-10-24T12:32:14.000Z</time>
      </trkpt>
      <trkpt lat="42.84938" lon="2.21723">
        <ele>393.20001220703</ele>
        <time>2024-10-24T12:32:17.000Z</time>
      </trkpt>
      <trkpt lat="42.84935" lon="2.21738">
        <ele>393.20001220703</ele>
        <time>2024-10-24T12:32:20.000Z</time>
      </trkpt>
      <trkpt lat="42.84941" lon="2.21758">
        <ele>392.39999389648</ele>
        <time>2024-10-24T12:32:24.000Z</time>
      </trkpt>
      <trkpt lat="42.84946" lon="2.21789">
        <ele>394</ele>
        <time>2024-10-24T12:32:30.000Z</time>
      </trkpt>
      <trkpt lat="42.84936" lon="2.21811">
        <ele>399</ele>
        <time>2024-10-24T12:32:35.000Z</time>
      </trkpt>
      <trkpt lat="42.84918" lon="2.21832">
        <ele>405</ele>
        <time>2024-10-24T12:32:42.000Z</time>
      </trkpt>
      <trkpt lat="42.84911" lon="2.21846">
        <ele>408.60000610352</ele>
        <time>2024-10-24T12:32:45.000Z</time>
      </trkpt>
      <trkpt lat="42.84908" lon="2.21856">
        <ele>411</ele>
        <time>2024-10-24T12:32:47.000Z</time>
      </trkpt>
      <trkpt lat="42.84903" lon="2.2188">
        <ele>413.39999389648</ele>
        <time>2024-10-24T12:32:52.000Z</time>
      </trkpt>
      <trkpt lat="42.84903" lon="2.21885">
        <ele>414.20001220703</ele>
        <time>2024-10-24T12:32:53.000Z</time>
      </trkpt>
      <trkpt lat="42.84907" lon="2.21903">
        <ele>414</ele>
        <time>2024-10-24T12:32:56.000Z</time>
      </trkpt>
      <trkpt lat="42.84916" lon="2.21916">
        <ele>413</ele>
        <time>2024-10-24T12:32:59.000Z</time>
      </trkpt>
      <trkpt lat="42.8492" lon="2.21919">
        <ele>412.39999389648</ele>
        <time>2024-10-24T12:33:00.000Z</time>
      </trkpt>
      <trkpt lat="42.84932" lon="2.21933">
        <ele>411.39999389648</ele>
        <time>2024-10-24T12:33:04.000Z</time>
      </trkpt>
      <trkpt lat="42.84935" lon="2.21938">
        <ele>411.39999389648</ele>
        <time>2024-10-24T12:33:05.000Z</time>
      </trkpt>
      <trkpt lat="42.84944" lon="2.21968">
        <ele>412.60000610352</ele>
        <time>2024-10-24T12:33:11.000Z</time>
      </trkpt>
      <trkpt lat="42.84946" lon="2.21979">
        <ele>412</ele>
        <time>2024-10-24T12:33:13.000Z</time>
      </trkpt>
      <trkpt lat="42.84946" lon="2.21996">
        <ele>413.60000610352</ele>
        <time>2024-10-24T12:33:16.000Z</time>
      </trkpt>
      <trkpt lat="42.84944" lon="2.22007">
        <ele>415.20001220703</ele>
        <time>2024-10-24T12:33:18.000Z</time>
      </trkpt>
      <trkpt lat="42.84937" lon="2.22027">
        <ele>418.20001220703</ele>
        <time>2024-10-24T12:33:22.000Z</time>
      </trkpt>
      <trkpt lat="42.84924" lon="2.22058">
        <ele>424.39999389648</ele>
        <time>2024-10-24T12:33:28.000Z</time>
      </trkpt>
      <trkpt lat="42.84923" lon="2.2207">
        <ele>424.60000610352</ele>
        <time>2024-10-24T12:33:30.000Z</time>
      </trkpt>
      <trkpt lat="42.84925" lon="2.22083">
        <ele>424</ele>
        <time>2024-10-24T12:33:32.000Z</time>
      </trkpt>
      <trkpt lat="42.84927" lon="2.22094">
        <ele>422.79998779297</ele>
        <time>2024-10-24T12:33:34.000Z</time>
      </trkpt>
      <trkpt lat="42.84928" lon="2.22106">
        <ele>422.39999389648</ele>
        <time>2024-10-24T12:33:36.000Z</time>
      </trkpt>
      <trkpt lat="42.84929" lon="2.22112">
        <ele>422</ele>
        <time>2024-10-24T12:33:37.000Z</time>
      </trkpt>
      <trkpt lat="42.84932" lon="2.22136">
        <ele>420.20001220703</ele>
        <time>2024-10-24T12:33:41.000Z</time>
      </trkpt>
      <trkpt lat="42.84932" lon="2.22147">
        <ele>421.20001220703</ele>
        <time>2024-10-24T12:33:43.000Z</time>
      </trkpt>
      <trkpt lat="42.84931" lon="2.22152">
        <ele>421.60000610352</ele>
        <time>2024-10-24T12:33:44.000Z</time>
      </trkpt>
      <trkpt lat="42.84928" lon="2.22163">
        <ele>422.79998779297</ele>
        <time>2024-10-24T12:33:46.000Z</time>
      </trkpt>
      <trkpt lat="42.84921" lon="2.22184">
        <ele>424.60000610352</ele>
        <time>2024-10-24T12:33:50.000Z</time>
      </trkpt>
      <trkpt lat="42.84902" lon="2.22217">
        <ele>427.39999389648</ele>
        <time>2024-10-24T12:33:57.000Z</time>
      </trkpt>
      <trkpt lat="42.84896" lon="2.22226">
        <ele>429</ele>
        <time>2024-10-24T12:33:59.000Z</time>
      </trkpt>
      <trkpt lat="42.84888" lon="2.2224">
        <ele>431</ele>
        <time>2024-10-24T12:34:02.000Z</time>
      </trkpt>
      <trkpt lat="42.84883" lon="2.22248">
        <ele>432</ele>
        <time>2024-10-24T12:34:04.000Z</time>
      </trkpt>
      <trkpt lat="42.8488" lon="2.22253">
        <ele>432.60000610352</ele>
        <time>2024-10-24T12:34:05.000Z</time>
      </trkpt>
      <trkpt lat="42.84873" lon="2.22267">
        <ele>433.60000610352</ele>
        <time>2024-10-24T12:34:08.000Z</time>
      </trkpt>
      <trkpt lat="42.84871" lon="2.22272">
        <ele>433.79998779297</ele>
        <time>2024-10-24T12:34:09.000Z</time>
      </trkpt>
      <trkpt lat="42.84869" lon="2.22278">
        <ele>434</ele>
        <time>2024-10-24T12:34:10.000Z</time>
      </trkpt>
      <trkpt lat="42.84863" lon="2.223">
        <ele>435.39999389648</ele>
        <time>2024-10-24T12:34:14.000Z</time>
      </trkpt>
      <trkpt lat="42.84861" lon="2.22305">
        <ele>435.79998779297</ele>
        <time>2024-10-24T12:34:15.000Z</time>
      </trkpt>
      <trkpt lat="42.84857" lon="2.22315">
        <ele>437</ele>
        <time>2024-10-24T12:34:17.000Z</time>
      </trkpt>
      <trkpt lat="42.84849" lon="2.22329">
        <ele>438.39999389648</ele>
        <time>2024-10-24T12:34:20.000Z</time>
      </trkpt>
      <trkpt lat="42.8484" lon="2.22349">
        <ele>438.79998779297</ele>
        <time>2024-10-24T12:34:24.000Z</time>
      </trkpt>
      <trkpt lat="42.84837" lon="2.2236">
        <ele>438.60000610352</ele>
        <time>2024-10-24T12:34:26.000Z</time>
      </trkpt>
      <trkpt lat="42.84827" lon="2.22402">
        <ele>440.60000610352</ele>
        <time>2024-10-24T12:34:34.000Z</time>
      </trkpt>
      <trkpt lat="42.84815" lon="2.22435">
        <ele>444</ele>
        <time>2024-10-24T12:34:41.000Z</time>
      </trkpt>
      <trkpt lat="42.84813" lon="2.22451">
        <ele>446</ele>
        <time>2024-10-24T12:34:44.000Z</time>
      </trkpt>
      <trkpt lat="42.84814" lon="2.22456">
        <ele>446</ele>
        <time>2024-10-24T12:34:45.000Z</time>
      </trkpt>
      <trkpt lat="42.84823" lon="2.22467">
        <ele>445.60000610352</ele>
        <time>2024-10-24T12:34:48.000Z</time>
      </trkpt>
      <trkpt lat="42.8483" lon="2.22466">
        <ele>444.20001220703</ele>
        <time>2024-10-24T12:34:50.000Z</time>
      </trkpt>
      <trkpt lat="42.84834" lon="2.22463">
        <ele>443.20001220703</ele>
        <time>2024-10-24T12:34:51.000Z</time>
      </trkpt>
      <trkpt lat="42.84838" lon="2.22459">
        <ele>442.20001220703</ele>
        <time>2024-10-24T12:34:52.000Z</time>
      </trkpt>
      <trkpt lat="42.84852" lon="2.22446">
        <ele>440.60000610352</ele>
        <time>2024-10-24T12:34:56.000Z</time>
      </trkpt>
      <trkpt lat="42.84872" lon="2.22436">
        <ele>438</ele>
        <time>2024-10-24T12:35:01.000Z</time>
      </trkpt>
      <trkpt lat="42.84892" lon="2.22433">
        <ele>439.79998779297</ele>
        <time>2024-10-24T12:35:06.000Z</time>
      </trkpt>
      <trkpt lat="42.8491" lon="2.22441">
        <ele>441.79998779297</ele>
        <time>2024-10-24T12:35:11.000Z</time>
      </trkpt>
      <trkpt lat="42.84916" lon="2.22447">
        <ele>443</ele>
        <time>2024-10-24T12:35:13.000Z</time>
      </trkpt>
      <trkpt lat="42.84929" lon="2.22461">
        <ele>444.60000610352</ele>
        <time>2024-10-24T12:35:17.000Z</time>
      </trkpt>
      <trkpt lat="42.84937" lon="2.22473">
        <ele>444.79998779297</ele>
        <time>2024-10-24T12:35:20.000Z</time>
      </trkpt>
      <trkpt lat="42.8494" lon="2.22483">
        <ele>445.79998779297</ele>
        <time>2024-10-24T12:35:22.000Z</time>
      </trkpt>
      <trkpt lat="42.84939" lon="2.22489">
        <ele>446.60000610352</ele>
        <time>2024-10-24T12:35:23.000Z</time>
      </trkpt>
      <trkpt lat="42.84936" lon="2.22504">
        <ele>448.20001220703</ele>
        <time>2024-10-24T12:35:26.000Z</time>
      </trkpt>
      <trkpt lat="42.84928" lon="2.22523">
        <ele>453.60000610352</ele>
        <time>2024-10-24T12:35:30.000Z</time>
      </trkpt>
      <trkpt lat="42.84926" lon="2.22528">
        <ele>454.39999389648</ele>
        <time>2024-10-24T12:35:31.000Z</time>
      </trkpt>
      <trkpt lat="42.84915" lon="2.22563">
        <ele>458.20001220703</ele>
        <time>2024-10-24T12:35:38.000Z</time>
      </trkpt>
      <trkpt lat="42.84908" lon="2.22584">
        <ele>459.20001220703</ele>
        <time>2024-10-24T12:35:42.000Z</time>
      </trkpt>
      <trkpt lat="42.84904" lon="2.22594">
        <ele>459.39999389648</ele>
        <time>2024-10-24T12:35:44.000Z</time>
      </trkpt>
      <trkpt lat="42.84886" lon="2.22619">
        <ele>462.39999389648</ele>
        <time>2024-10-24T12:35:51.000Z</time>
      </trkpt>
      <trkpt lat="42.84869" lon="2.22635">
        <ele>466.39999389648</ele>
        <time>2024-10-24T12:35:57.000Z</time>
      </trkpt>
      <trkpt lat="42.84843" lon="2.22648">
        <ele>473</ele>
        <time>2024-10-24T12:36:05.000Z</time>
      </trkpt>
      <trkpt lat="42.84828" lon="2.2266">
        <ele>474.60000610352</ele>
        <time>2024-10-24T12:36:10.000Z</time>
      </trkpt>
      <trkpt lat="42.84811" lon="2.22676">
        <ele>478</ele>
        <time>2024-10-24T12:36:16.000Z</time>
      </trkpt>
      <trkpt lat="42.84798" lon="2.22698">
        <ele>480</ele>
        <time>2024-10-24T12:36:22.000Z</time>
      </trkpt>
      <trkpt lat="42.8479" lon="2.22719">
        <ele>481.20001220703</ele>
        <time>2024-10-24T12:36:27.000Z</time>
      </trkpt>
      <trkpt lat="42.84775" lon="2.22756">
        <ele>480.60000610352</ele>
        <time>2024-10-24T12:36:36.000Z</time>
      </trkpt>
      <trkpt lat="42.84758" lon="2.22783">
        <ele>480.60000610352</ele>
        <time>2024-10-24T12:36:44.000Z</time>
      </trkpt>
      <trkpt lat="42.84743" lon="2.22798">
        <ele>481.60000610352</ele>
        <time>2024-10-24T12:36:50.000Z</time>
      </trkpt>
      <trkpt lat="42.84726" lon="2.22803">
        <ele>484.20001220703</ele>
        <time>2024-10-24T12:36:56.000Z</time>
      </trkpt>
      <trkpt lat="42.84709" lon="2.22797">
        <ele>487.39999389648</ele>
        <time>2024-10-24T12:37:02.000Z</time>
      </trkpt>
      <trkpt lat="42.84694" lon="2.22786">
        <ele>489.20001220703</ele>
        <time>2024-10-24T12:37:08.000Z</time>
      </trkpt>
      <trkpt lat="42.8468" lon="2.2278">
        <ele>490.60000610352</ele>
        <time>2024-10-24T12:37:13.000Z</time>
      </trkpt>
      <trkpt lat="42.84665" lon="2.22778">
        <ele>492.20001220703</ele>
        <time>2024-10-24T12:37:18.000Z</time>
      </trkpt>
      <trkpt lat="42.84646" lon="2.22781">
        <ele>495.20001220703</ele>
        <time>2024-10-24T12:37:24.000Z</time>
      </trkpt>
      <trkpt lat="42.84628" lon="2.22794">
        <ele>499.60000610352</ele>
        <time>2024-10-24T12:37:30.000Z</time>
      </trkpt>
      <trkpt lat="42.84608" lon="2.22817">
        <ele>504.79998779297</ele>
        <time>2024-10-24T12:37:38.000Z</time>
      </trkpt>
      <trkpt lat="42.84593" lon="2.22838">
        <ele>508.39999389648</ele>
        <time>2024-10-24T12:37:45.000Z</time>
      </trkpt>
      <trkpt lat="42.8459" lon="2.22856">
        <ele>509.60000610352</ele>
        <time>2024-10-24T12:37:50.000Z</time>
      </trkpt>
      <trkpt lat="42.84595" lon="2.22871">
        <ele>508</ele>
        <time>2024-10-24T12:37:54.000Z</time>
      </trkpt>
      <trkpt lat="42.84612" lon="2.2288">
        <ele>503.39999389648</ele>
        <time>2024-10-24T12:38:00.000Z</time>
      </trkpt>
      <trkpt lat="42.84626" lon="2.22888">
        <ele>500.79998779297</ele>
        <time>2024-10-24T12:38:05.000Z</time>
      </trkpt>
      <trkpt lat="42.84627" lon="2.22896">
        <ele>501</ele>
        <time>2024-10-24T12:38:07.000Z</time>
      </trkpt>
      <trkpt lat="42.84626" lon="2.22899">
        <ele>501.20001220703</ele>
        <time>2024-10-24T12:38:08.000Z</time>
      </trkpt>
      <trkpt lat="42.84623" lon="2.22905">
        <ele>501.79998779297</ele>
        <time>2024-10-24T12:38:10.000Z</time>
      </trkpt>
      <trkpt lat="42.84617" lon="2.22908">
        <ele>503</ele>
        <time>2024-10-24T12:38:12.000Z</time>
      </trkpt>
      <trkpt lat="42.846" lon="2.22915">
        <ele>507.20001220703</ele>
        <time>2024-10-24T12:38:18.000Z</time>
      </trkpt>
      <trkpt lat="42.84581" lon="2.22934">
        <ele>517.20001220703</ele>
        <time>2024-10-24T12:38:26.000Z</time>
      </trkpt>
      <trkpt lat="42.84563" lon="2.22951">
        <ele>524.79998779297</ele>
        <time>2024-10-24T12:38:34.000Z</time>
      </trkpt>
      <trkpt lat="42.8455" lon="2.22965">
        <ele>530.20001220703</ele>
        <time>2024-10-24T12:38:40.000Z</time>
      </trkpt>
      <trkpt lat="42.84543" lon="2.22984">
        <ele>532.40002441406</ele>
        <time>2024-10-24T12:38:46.000Z</time>
      </trkpt>
      <trkpt lat="42.84543" lon="2.22997">
        <ele>532</ele>
        <time>2024-10-24T12:38:50.000Z</time>
      </trkpt>
      <trkpt lat="42.84534" lon="2.23021">
        <ele>533.79998779297</ele>
        <time>2024-10-24T12:38:57.000Z</time>
      </trkpt>
      <trkpt lat="42.84521" lon="2.23033">
        <ele>539.59997558594</ele>
        <time>2024-10-24T12:39:03.000Z</time>
      </trkpt>
      <trkpt lat="42.84506" lon="2.2305">
        <ele>543.59997558594</ele>
        <time>2024-10-24T12:39:11.000Z</time>
      </trkpt>
      <trkpt lat="42.84502" lon="2.23059">
        <ele>544</ele>
        <time>2024-10-24T12:39:14.000Z</time>
      </trkpt>
      <trkpt lat="42.84499" lon="2.23063">
        <ele>545.20001220703</ele>
        <time>2024-10-24T12:39:16.000Z</time>
      </trkpt>
      <trkpt lat="42.84487" lon="2.23084">
        <ele>548.59997558594</ele>
        <time>2024-10-24T12:39:24.000Z</time>
      </trkpt>
      <trkpt lat="42.84474" lon="2.23106">
        <ele>551.59997558594</ele>
        <time>2024-10-24T12:39:32.000Z</time>
      </trkpt>
      <trkpt lat="42.8447" lon="2.23125">
        <ele>551.20001220703</ele>
        <time>2024-10-24T12:39:37.000Z</time>
      </trkpt>
      <trkpt lat="42.84471" lon="2.23148">
        <ele>551.20001220703</ele>
        <time>2024-10-24T12:39:43.000Z</time>
      </trkpt>
      <trkpt lat="42.84466" lon="2.23161">
        <ele>550.59997558594</ele>
        <time>2024-10-24T12:39:48.000Z</time>
      </trkpt>
      <trkpt lat="42.84459" lon="2.23178">
        <ele>554</ele>
        <time>2024-10-24T12:39:54.000Z</time>
      </trkpt>
      <trkpt lat="42.84454" lon="2.23186">
        <ele>556</ele>
        <time>2024-10-24T12:39:57.000Z</time>
      </trkpt>
      <trkpt lat="42.84452" lon="2.23189">
        <ele>557.59997558594</ele>
        <time>2024-10-24T12:39:58.000Z</time>
      </trkpt>
      <trkpt lat="42.84444" lon="2.23206">
        <ele>564.79998779297</ele>
        <time>2024-10-24T12:40:04.000Z</time>
      </trkpt>
      <trkpt lat="42.84444" lon="2.23217">
        <ele>564.59997558594</ele>
        <time>2024-10-24T12:40:07.000Z</time>
      </trkpt>
      <trkpt lat="42.84445" lon="2.2322">
        <ele>564.79998779297</ele>
        <time>2024-10-24T12:40:08.000Z</time>
      </trkpt>
      <trkpt lat="42.84451" lon="2.23232">
        <ele>564.59997558594</ele>
        <time>2024-10-24T12:40:12.000Z</time>
      </trkpt>
      <trkpt lat="42.84453" lon="2.23234">
        <ele>564</ele>
        <time>2024-10-24T12:40:13.000Z</time>
      </trkpt>
      <trkpt lat="42.84462" lon="2.23241">
        <ele>561.40002441406</ele>
        <time>2024-10-24T12:40:17.000Z</time>
      </trkpt>
      <trkpt lat="42.84478" lon="2.23257">
        <ele>558.40002441406</ele>
        <time>2024-10-24T12:40:24.000Z</time>
      </trkpt>
      <trkpt lat="42.84491" lon="2.23271">
        <ele>557.79998779297</ele>
        <time>2024-10-24T12:40:30.000Z</time>
      </trkpt>
      <trkpt lat="42.84509" lon="2.2329">
        <ele>558</ele>
        <time>2024-10-24T12:40:38.000Z</time>
      </trkpt>
      <trkpt lat="42.84524" lon="2.233">
        <ele>557</ele>
        <time>2024-10-24T12:40:44.000Z</time>
      </trkpt>
      <trkpt lat="42.84529" lon="2.23313">
        <ele>556.20001220703</ele>
        <time>2024-10-24T12:40:48.000Z</time>
      </trkpt>
      <trkpt lat="42.84528" lon="2.23335">
        <ele>560.20001220703</ele>
        <time>2024-10-24T12:40:54.000Z</time>
      </trkpt>
      <trkpt lat="42.84524" lon="2.2336">
        <ele>565.20001220703</ele>
        <time>2024-10-24T12:41:01.000Z</time>
      </trkpt>
      <trkpt lat="42.84521" lon="2.23379">
        <ele>567.59997558594</ele>
        <time>2024-10-24T12:41:06.000Z</time>
      </trkpt>
      <trkpt lat="42.84516" lon="2.23405">
        <ele>573.79998779297</ele>
        <time>2024-10-24T12:41:13.000Z</time>
      </trkpt>
      <trkpt lat="42.8451" lon="2.23434">
        <ele>580.20001220703</ele>
        <time>2024-10-24T12:41:21.000Z</time>
      </trkpt>
      <trkpt lat="42.84506" lon="2.23454">
        <ele>584.20001220703</ele>
        <time>2024-10-24T12:41:27.000Z</time>
      </trkpt>
      <trkpt lat="42.84501" lon="2.23474">
        <ele>588.59997558594</ele>
        <time>2024-10-24T12:41:33.000Z</time>
      </trkpt>
      <trkpt lat="42.84494" lon="2.23498">
        <ele>593.40002441406</ele>
        <time>2024-10-24T12:41:40.000Z</time>
      </trkpt>
      <trkpt lat="42.84493" lon="2.23501">
        <ele>594</ele>
        <time>2024-10-24T12:41:41.000Z</time>
      </trkpt>
      <trkpt lat="42.84492" lon="2.23524">
        <ele>594.79998779297</ele>
        <time>2024-10-24T12:41:47.000Z</time>
      </trkpt>
      <trkpt lat="42.84494" lon="2.23552">
        <ele>593</ele>
        <time>2024-10-24T12:41:54.000Z</time>
      </trkpt>
      <trkpt lat="42.84494" lon="2.23577">
        <ele>591.79998779297</ele>
        <time>2024-10-24T12:42:01.000Z</time>
      </trkpt>
      <trkpt lat="42.84493" lon="2.23591">
        <ele>594</ele>
        <time>2024-10-24T12:42:05.000Z</time>
      </trkpt>
      <trkpt lat="42.84493" lon="2.23594">
        <ele>594</ele>
        <time>2024-10-24T12:42:06.000Z</time>
      </trkpt>
      <trkpt lat="42.84497" lon="2.23616">
        <ele>594.79998779297</ele>
        <time>2024-10-24T12:42:12.000Z</time>
      </trkpt>
      <trkpt lat="42.8451" lon="2.23641">
        <ele>591.79998779297</ele>
        <time>2024-10-24T12:42:20.000Z</time>
      </trkpt>
      <trkpt lat="42.84515" lon="2.23662">
        <ele>593.59997558594</ele>
        <time>2024-10-24T12:42:26.000Z</time>
      </trkpt>
      <trkpt lat="42.84514" lon="2.23688">
        <ele>600.20001220703</ele>
        <time>2024-10-24T12:42:33.000Z</time>
      </trkpt>
      <trkpt lat="42.84511" lon="2.23717">
        <ele>602.40002441406</ele>
        <time>2024-10-24T12:42:41.000Z</time>
      </trkpt>
      <trkpt lat="42.84511" lon="2.2374">
        <ele>602.59997558594</ele>
        <time>2024-10-24T12:42:47.000Z</time>
      </trkpt>
      <trkpt lat="42.84508" lon="2.23766">
        <ele>605.59997558594</ele>
        <time>2024-10-24T12:42:54.000Z</time>
      </trkpt>
      <trkpt lat="42.84506" lon="2.23792">
        <ele>606.59997558594</ele>
        <time>2024-10-24T12:43:01.000Z</time>
      </trkpt>
      <trkpt lat="42.84501" lon="2.23802">
        <ele>610</ele>
        <time>2024-10-24T12:43:05.000Z</time>
      </trkpt>
      <trkpt lat="42.84491" lon="2.23817">
        <ele>616</ele>
        <time>2024-10-24T12:43:11.000Z</time>
      </trkpt>
      <trkpt lat="42.8448" lon="2.23837">
        <ele>619.59997558594</ele>
        <time>2024-10-24T12:43:18.000Z</time>
      </trkpt>
      <trkpt lat="42.84471" lon="2.2386">
        <ele>621.40002441406</ele>
        <time>2024-10-24T12:43:25.000Z</time>
      </trkpt>
      <trkpt lat="42.84463" lon="2.2388">
        <ele>622</ele>
        <time>2024-10-24T12:43:31.000Z</time>
      </trkpt>
      <trkpt lat="42.84457" lon="2.23907">
        <ele>621</ele>
        <time>2024-10-24T12:43:39.000Z</time>
      </trkpt>
      <trkpt lat="42.84451" lon="2.23924">
        <ele>623.20001220703</ele>
        <time>2024-10-24T12:43:44.000Z</time>
      </trkpt>
      <trkpt lat="42.84439" lon="2.23938">
        <ele>628.40002441406</ele>
        <time>2024-10-24T12:43:50.000Z</time>
      </trkpt>
      <trkpt lat="42.84425" lon="2.23953">
        <ele>633.20001220703</ele>
        <time>2024-10-24T12:43:57.000Z</time>
      </trkpt>
      <trkpt lat="42.84416" lon="2.23965">
        <ele>635.79998779297</ele>
        <time>2024-10-24T12:44:02.000Z</time>
      </trkpt>
      <trkpt lat="42.84404" lon="2.23978">
        <ele>639.79998779297</ele>
        <time>2024-10-24T12:44:08.000Z</time>
      </trkpt>
      <trkpt lat="42.84399" lon="2.23995">
        <ele>639.59997558594</ele>
        <time>2024-10-24T12:44:14.000Z</time>
      </trkpt>
      <trkpt lat="42.84398" lon="2.24018">
        <ele>639.40002441406</ele>
        <time>2024-10-24T12:44:20.000Z</time>
      </trkpt>
      <trkpt lat="42.84405" lon="2.2404">
        <ele>639.20001220703</ele>
        <time>2024-10-24T12:44:26.000Z</time>
      </trkpt>
      <trkpt lat="42.84416" lon="2.24057">
        <ele>637.59997558594</ele>
        <time>2024-10-24T12:44:32.000Z</time>
      </trkpt>
      <trkpt lat="42.84427" lon="2.24076">
        <ele>636.79998779297</ele>
        <time>2024-10-24T12:44:39.000Z</time>
      </trkpt>
      <trkpt lat="42.84435" lon="2.24095">
        <ele>637.79998779297</ele>
        <time>2024-10-24T12:44:45.000Z</time>
      </trkpt>
      <trkpt lat="42.84442" lon="2.24116">
        <ele>638.20001220703</ele>
        <time>2024-10-24T12:44:52.000Z</time>
      </trkpt>
      <trkpt lat="42.84444" lon="2.24137">
        <ele>641.40002441406</ele>
        <time>2024-10-24T12:44:58.000Z</time>
      </trkpt>
      <trkpt lat="42.84449" lon="2.2416">
        <ele>643.79998779297</ele>
        <time>2024-10-24T12:45:05.000Z</time>
      </trkpt>
      <trkpt lat="42.84453" lon="2.24175">
        <ele>646</ele>
        <time>2024-10-24T12:45:11.000Z</time>
      </trkpt>
      <trkpt lat="42.84453" lon="2.24175">
        <ele>646</ele>
        <time>2024-10-24T12:45:12.000Z</time>
      </trkpt>
      <trkpt lat="42.84451" lon="2.24177">
        <ele>647.40002441406</ele>
        <time>2024-10-24T12:48:27.000Z</time>
      </trkpt>
      <trkpt lat="42.84451" lon="2.24179">
        <ele>648</ele>
        <time>2024-10-24T12:48:28.000Z</time>
      </trkpt>
      <trkpt lat="42.84451" lon="2.24182">
        <ele>649</ele>
        <time>2024-10-24T12:48:30.000Z</time>
      </trkpt>
      <trkpt lat="42.84454" lon="2.24187">
        <ele>649</ele>
        <time>2024-10-24T12:48:33.000Z</time>
      </trkpt>
      <trkpt lat="42.84455" lon="2.2419">
        <ele>649</ele>
        <time>2024-10-24T12:48:35.000Z</time>
      </trkpt>
      <trkpt lat="42.84455" lon="2.24195">
        <ele>650.20001220703</ele>
        <time>2024-10-24T12:48:38.000Z</time>
      </trkpt>
      <trkpt lat="42.84456" lon="2.242">
        <ele>651</ele>
        <time>2024-10-24T12:48:40.000Z</time>
      </trkpt>
      <trkpt lat="42.84456" lon="2.24218">
        <ele>654.79998779297</ele>
        <time>2024-10-24T12:48:46.000Z</time>
      </trkpt>
      <trkpt lat="42.84459" lon="2.2424">
        <ele>657.59997558594</ele>
        <time>2024-10-24T12:48:53.000Z</time>
      </trkpt>
      <trkpt lat="42.84468" lon="2.24254">
        <ele>657.79998779297</ele>
        <time>2024-10-24T12:48:58.000Z</time>
      </trkpt>
      <trkpt lat="42.8448" lon="2.24273">
        <ele>658.20001220703</ele>
        <time>2024-10-24T12:49:05.000Z</time>
      </trkpt>
      <trkpt lat="42.84485" lon="2.24292">
        <ele>660</ele>
        <time>2024-10-24T12:49:11.000Z</time>
      </trkpt>
      <trkpt lat="42.84496" lon="2.24313">
        <ele>659.40002441406</ele>
        <time>2024-10-24T12:49:18.000Z</time>
      </trkpt>
      <trkpt lat="42.8451" lon="2.24326">
        <ele>655.79998779297</ele>
        <time>2024-10-24T12:49:25.000Z</time>
      </trkpt>
      <trkpt lat="42.84513" lon="2.24332">
        <ele>655.20001220703</ele>
        <time>2024-10-24T12:49:27.000Z</time>
      </trkpt>
      <trkpt lat="42.84514" lon="2.24342">
        <ele>656</ele>
        <time>2024-10-24T12:49:30.000Z</time>
      </trkpt>
      <trkpt lat="42.84508" lon="2.2436">
        <ele>659.40002441406</ele>
        <time>2024-10-24T12:49:36.000Z</time>
      </trkpt>
      <trkpt lat="42.84499" lon="2.24375">
        <ele>662.40002441406</ele>
        <time>2024-10-24T12:49:42.000Z</time>
      </trkpt>
      <trkpt lat="42.84488" lon="2.24381">
        <ele>666</ele>
        <time>2024-10-24T12:49:47.000Z</time>
      </trkpt>
      <trkpt lat="42.84481" lon="2.24379">
        <ele>668.59997558594</ele>
        <time>2024-10-24T12:49:50.000Z</time>
      </trkpt>
      <trkpt lat="42.84476" lon="2.24379">
        <ele>670.79998779297</ele>
        <time>2024-10-24T12:49:52.000Z</time>
      </trkpt>
      <trkpt lat="42.84458" lon="2.24387">
        <ele>677.59997558594</ele>
        <time>2024-10-24T12:49:59.000Z</time>
      </trkpt>
      <trkpt lat="42.84445" lon="2.24405">
        <ele>681.40002441406</ele>
        <time>2024-10-24T12:50:06.000Z</time>
      </trkpt>
      <trkpt lat="42.84438" lon="2.24423">
        <ele>686</ele>
        <time>2024-10-24T12:50:12.000Z</time>
      </trkpt>
      <trkpt lat="42.84433" lon="2.24451">
        <ele>688</ele>
        <time>2024-10-24T12:50:20.000Z</time>
      </trkpt>
      <trkpt lat="42.84428" lon="2.24468">
        <ele>688.20001220703</ele>
        <time>2024-10-24T12:50:25.000Z</time>
      </trkpt>
      <trkpt lat="42.84423" lon="2.24488">
        <ele>691.59997558594</ele>
        <time>2024-10-24T12:50:31.000Z</time>
      </trkpt>
      <trkpt lat="42.8442" lon="2.2451">
        <ele>692.20001220703</ele>
        <time>2024-10-24T12:50:37.000Z</time>
      </trkpt>
      <trkpt lat="42.84419" lon="2.2454">
        <ele>693.20001220703</ele>
        <time>2024-10-24T12:50:45.000Z</time>
      </trkpt>
      <trkpt lat="42.84415" lon="2.24566">
        <ele>697.59997558594</ele>
        <time>2024-10-24T12:50:52.000Z</time>
      </trkpt>
      <trkpt lat="42.84412" lon="2.24589">
        <ele>700.59997558594</ele>
        <time>2024-10-24T12:50:59.000Z</time>
      </trkpt>
      <trkpt lat="42.84411" lon="2.24608">
        <ele>702.40002441406</ele>
        <time>2024-10-24T12:51:05.000Z</time>
      </trkpt>
      <trkpt lat="42.84407" lon="2.24624">
        <ele>704.59997558594</ele>
        <time>2024-10-24T12:51:10.000Z</time>
      </trkpt>
      <trkpt lat="42.84404" lon="2.2465">
        <ele>705.79998779297</ele>
        <time>2024-10-24T12:51:17.000Z</time>
      </trkpt>
      <trkpt lat="42.84402" lon="2.24675">
        <ele>705.79998779297</ele>
        <time>2024-10-24T12:51:24.000Z</time>
      </trkpt>
      <trkpt lat="42.84399" lon="2.24696">
        <ele>707.20001220703</ele>
        <time>2024-10-24T12:51:30.000Z</time>
      </trkpt>
      <trkpt lat="42.84397" lon="2.24707">
        <ele>709.59997558594</ele>
        <time>2024-10-24T12:51:33.000Z</time>
      </trkpt>
      <trkpt lat="42.84397" lon="2.24711">
        <ele>710</ele>
        <time>2024-10-24T12:51:34.000Z</time>
      </trkpt>
      <trkpt lat="42.84393" lon="2.24738">
        <ele>715.20001220703</ele>
        <time>2024-10-24T12:51:41.000Z</time>
      </trkpt>
      <trkpt lat="42.8439" lon="2.24758">
        <ele>719.79998779297</ele>
        <time>2024-10-24T12:51:46.000Z</time>
      </trkpt>
      <trkpt lat="42.84388" lon="2.24784">
        <ele>724.20001220703</ele>
        <time>2024-10-24T12:51:53.000Z</time>
      </trkpt>
      <trkpt lat="42.84386" lon="2.24807">
        <ele>726.79998779297</ele>
        <time>2024-10-24T12:52:00.000Z</time>
      </trkpt>
      <trkpt lat="42.84385" lon="2.24831">
        <ele>729.20001220703</ele>
        <time>2024-10-24T12:52:07.000Z</time>
      </trkpt>
      <trkpt lat="42.84385" lon="2.24847">
        <ele>730</ele>
        <time>2024-10-24T12:52:12.000Z</time>
      </trkpt>
      <trkpt lat="42.84386" lon="2.2485">
        <ele>729.59997558594</ele>
        <time>2024-10-24T12:52:13.000Z</time>
      </trkpt>
      <trkpt lat="42.84387" lon="2.24866">
        <ele>730</ele>
        <time>2024-10-24T12:52:18.000Z</time>
      </trkpt>
      <trkpt lat="42.84386" lon="2.24885">
        <ele>733.20001220703</ele>
        <time>2024-10-24T12:52:24.000Z</time>
      </trkpt>
      <trkpt lat="42.84384" lon="2.24907">
        <ele>738</ele>
        <time>2024-10-24T12:52:31.000Z</time>
      </trkpt>
      <trkpt lat="42.84385" lon="2.24929">
        <ele>740</ele>
        <time>2024-10-24T12:52:38.000Z</time>
      </trkpt>
      <trkpt lat="42.84384" lon="2.24941">
        <ele>741.79998779297</ele>
        <time>2024-10-24T12:52:42.000Z</time>
      </trkpt>
      <trkpt lat="42.84383" lon="2.24943">
        <ele>742.20001220703</ele>
        <time>2024-10-24T12:52:43.000Z</time>
      </trkpt>
      <trkpt lat="42.84383" lon="2.24961">
        <ele>742.20001220703</ele>
        <time>2024-10-24T12:52:49.000Z</time>
      </trkpt>
      <trkpt lat="42.84385" lon="2.24979">
        <ele>740.79998779297</ele>
        <time>2024-10-24T12:52:55.000Z</time>
      </trkpt>
      <trkpt lat="42.84388" lon="2.25">
        <ele>738.40002441406</ele>
        <time>2024-10-24T12:53:03.000Z</time>
      </trkpt>
      <trkpt lat="42.84388" lon="2.25016">
        <ele>739</ele>
        <time>2024-10-24T12:53:08.000Z</time>
      </trkpt>
      <trkpt lat="42.84386" lon="2.25041">
        <ele>741.59997558594</ele>
        <time>2024-10-24T12:53:16.000Z</time>
      </trkpt>
      <trkpt lat="42.84379" lon="2.25062">
        <ele>745.59997558594</ele>
        <time>2024-10-24T12:53:22.000Z</time>
      </trkpt>
      <trkpt lat="42.8437" lon="2.25078">
        <ele>749.40002441406</ele>
        <time>2024-10-24T12:53:28.000Z</time>
      </trkpt>
      <trkpt lat="42.84361" lon="2.25095">
        <ele>756.59997558594</ele>
        <time>2024-10-24T12:53:34.000Z</time>
      </trkpt>
      <trkpt lat="42.84352" lon="2.25115">
        <ele>762.40002441406</ele>
        <time>2024-10-24T12:53:40.000Z</time>
      </trkpt>
      <trkpt lat="42.84348" lon="2.25136">
        <ele>764.20001220703</ele>
        <time>2024-10-24T12:53:45.000Z</time>
      </trkpt>
      <trkpt lat="42.84345" lon="2.25167">
        <ele>766.40002441406</ele>
        <time>2024-10-24T12:53:52.000Z</time>
      </trkpt>
      <trkpt lat="42.84343" lon="2.25191">
        <ele>766.79998779297</ele>
        <time>2024-10-24T12:53:58.000Z</time>
      </trkpt>
      <trkpt lat="42.8434" lon="2.25214">
        <ele>765.79998779297</ele>
        <time>2024-10-24T12:54:04.000Z</time>
      </trkpt>
      <trkpt lat="42.84337" lon="2.25237">
        <ele>767.79998779297</ele>
        <time>2024-10-24T12:54:10.000Z</time>
      </trkpt>
      <trkpt lat="42.84332" lon="2.25264">
        <ele>769.59997558594</ele>
        <time>2024-10-24T12:54:17.000Z</time>
      </trkpt>
      <trkpt lat="42.84327" lon="2.25286">
        <ele>772.59997558594</ele>
        <time>2024-10-24T12:54:23.000Z</time>
      </trkpt>
      <trkpt lat="42.84321" lon="2.25307">
        <ele>776.79998779297</ele>
        <time>2024-10-24T12:54:29.000Z</time>
      </trkpt>
      <trkpt lat="42.84317" lon="2.25325">
        <ele>779</ele>
        <time>2024-10-24T12:54:34.000Z</time>
      </trkpt>
      <trkpt lat="42.84311" lon="2.25353">
        <ele>782.79998779297</ele>
        <time>2024-10-24T12:54:41.000Z</time>
      </trkpt>
      <trkpt lat="42.84306" lon="2.25381">
        <ele>784.20001220703</ele>
        <time>2024-10-24T12:54:48.000Z</time>
      </trkpt>
      <trkpt lat="42.84302" lon="2.25407">
        <ele>788</ele>
        <time>2024-10-24T12:54:54.000Z</time>
      </trkpt>
      <trkpt lat="42.84299" lon="2.25432">
        <ele>790</ele>
        <time>2024-10-24T12:55:00.000Z</time>
      </trkpt>
      <trkpt lat="42.84296" lon="2.25452">
        <ele>791.79998779297</ele>
        <time>2024-10-24T12:55:05.000Z</time>
      </trkpt>
      <trkpt lat="42.84292" lon="2.25472">
        <ele>792.59997558594</ele>
        <time>2024-10-24T12:55:11.000Z</time>
      </trkpt>
      <trkpt lat="42.84291" lon="2.25475">
        <ele>793.20001220703</ele>
        <time>2024-10-24T12:55:12.000Z</time>
      </trkpt>
      <trkpt lat="42.84288" lon="2.25485">
        <ele>794.79998779297</ele>
        <time>2024-10-24T12:55:15.000Z</time>
      </trkpt>
      <trkpt lat="42.84281" lon="2.25509">
        <ele>802.40002441406</ele>
        <time>2024-10-24T12:55:22.000Z</time>
      </trkpt>
      <trkpt lat="42.84273" lon="2.25519">
        <ele>809.20001220703</ele>
        <time>2024-10-24T12:55:26.000Z</time>
      </trkpt>
      <trkpt lat="42.84263" lon="2.25542">
        <ele>816.20001220703</ele>
        <time>2024-10-24T12:55:33.000Z</time>
      </trkpt>
      <trkpt lat="42.84259" lon="2.2556">
        <ele>817.40002441406</ele>
        <time>2024-10-24T12:55:39.000Z</time>
      </trkpt>
      <trkpt lat="42.84256" lon="2.25574">
        <ele>817.40002441406</ele>
        <time>2024-10-24T12:55:44.000Z</time>
      </trkpt>
      <trkpt lat="42.84255" lon="2.25594">
        <ele>816.40002441406</ele>
        <time>2024-10-24T12:55:50.000Z</time>
      </trkpt>
      <trkpt lat="42.84254" lon="2.25617">
        <ele>816.20001220703</ele>
        <time>2024-10-24T12:55:57.000Z</time>
      </trkpt>
      <trkpt lat="42.8425" lon="2.25642">
        <ele>820</ele>
        <time>2024-10-24T12:56:05.000Z</time>
      </trkpt>
      <trkpt lat="42.84246" lon="2.25662">
        <ele>824.59997558594</ele>
        <time>2024-10-24T12:56:12.000Z</time>
      </trkpt>
      <trkpt lat="42.84244" lon="2.25687">
        <ele>828.40002441406</ele>
        <time>2024-10-24T12:56:20.000Z</time>
      </trkpt>
      <trkpt lat="42.84241" lon="2.2571">
        <ele>832.40002441406</ele>
        <time>2024-10-24T12:56:27.000Z</time>
      </trkpt>
      <trkpt lat="42.84239" lon="2.25724">
        <ele>834.40002441406</ele>
        <time>2024-10-24T12:56:32.000Z</time>
      </trkpt>
      <trkpt lat="42.8424" lon="2.25743">
        <ele>834</ele>
        <time>2024-10-24T12:56:38.000Z</time>
      </trkpt>
      <trkpt lat="42.8424" lon="2.25764">
        <ele>835.40002441406</ele>
        <time>2024-10-24T12:56:44.000Z</time>
      </trkpt>
      <trkpt lat="42.84238" lon="2.25779">
        <ele>836.79998779297</ele>
        <time>2024-10-24T12:56:49.000Z</time>
      </trkpt>
      <trkpt lat="42.84238" lon="2.25782">
        <ele>837.20001220703</ele>
        <time>2024-10-24T12:56:50.000Z</time>
      </trkpt>
      <trkpt lat="42.84238" lon="2.25794">
        <ele>837.79998779297</ele>
        <time>2024-10-24T12:56:53.000Z</time>
      </trkpt>
      <trkpt lat="42.84237" lon="2.25814">
        <ele>839.59997558594</ele>
        <time>2024-10-24T12:57:00.000Z</time>
      </trkpt>
      <trkpt lat="42.84236" lon="2.25831">
        <ele>841.40002441406</ele>
        <time>2024-10-24T12:57:06.000Z</time>
      </trkpt>
      <trkpt lat="42.84235" lon="2.2584">
        <ele>842.79998779297</ele>
        <time>2024-10-24T12:57:10.000Z</time>
      </trkpt>
      <trkpt lat="42.84235" lon="2.25842">
        <ele>843.20001220703</ele>
        <time>2024-10-24T12:57:11.000Z</time>
      </trkpt>
      <trkpt lat="42.84235" lon="2.25844">
        <ele>843.59997558594</ele>
        <time>2024-10-24T12:57:12.000Z</time>
      </trkpt>
      <trkpt lat="42.84232" lon="2.25853">
        <ele>846.79998779297</ele>
        <time>2024-10-24T12:58:01.000Z</time>
      </trkpt>
      <trkpt lat="42.84232" lon="2.25862">
        <ele>846.79998779297</ele>
        <time>2024-10-24T12:58:05.000Z</time>
      </trkpt>
      <trkpt lat="42.84231" lon="2.25866">
        <ele>846.79998779297</ele>
        <time>2024-10-24T12:58:07.000Z</time>
      </trkpt>
      <trkpt lat="42.84232" lon="2.25874">
        <ele>846.40002441406</ele>
        <time>2024-10-24T12:58:10.000Z</time>
      </trkpt>
      <trkpt lat="42.84231" lon="2.2588">
        <ele>846.79998779297</ele>
        <time>2024-10-24T12:58:13.000Z</time>
      </trkpt>
      <trkpt lat="42.84231" lon="2.25882">
        <ele>846.59997558594</ele>
        <time>2024-10-24T12:58:14.000Z</time>
      </trkpt>
      <trkpt lat="42.84232" lon="2.2589">
        <ele>845.59997558594</ele>
        <time>2024-10-24T12:58:18.000Z</time>
      </trkpt>
      <trkpt lat="42.84237" lon="2.2591">
        <ele>841.40002441406</ele>
        <time>2024-10-24T12:58:43.000Z</time>
      </trkpt>
      <trkpt lat="42.84235" lon="2.25917">
        <ele>841.59997558594</ele>
        <time>2024-10-24T12:58:46.000Z</time>
      </trkpt>
      <trkpt lat="42.84233" lon="2.25922">
        <ele>843</ele>
        <time>2024-10-24T12:58:48.000Z</time>
      </trkpt>
      <trkpt lat="42.8423" lon="2.25933">
        <ele>845.79998779297</ele>
        <time>2024-10-24T12:58:52.000Z</time>
      </trkpt>
      <trkpt lat="42.8423" lon="2.25936">
        <ele>845.59997558594</ele>
        <time>2024-10-24T12:58:53.000Z</time>
      </trkpt>
      <trkpt lat="42.8423" lon="2.25943">
        <ele>845.59997558594</ele>
        <time>2024-10-24T12:58:55.000Z</time>
      </trkpt>
      <trkpt lat="42.8423" lon="2.25948">
        <ele>845.40002441406</ele>
        <time>2024-10-24T12:58:57.000Z</time>
      </trkpt>
      <trkpt lat="42.84226" lon="2.25964">
        <ele>847.59997558594</ele>
        <time>2024-10-24T12:59:03.000Z</time>
      </trkpt>
      <trkpt lat="42.84224" lon="2.2598">
        <ele>849.59997558594</ele>
        <time>2024-10-24T12:59:08.000Z</time>
      </trkpt>
      <trkpt lat="42.84223" lon="2.25983">
        <ele>850.40002441406</ele>
        <time>2024-10-24T12:59:09.000Z</time>
      </trkpt>
      <trkpt lat="42.84221" lon="2.25989">
        <ele>853.20001220703</ele>
        <time>2024-10-24T12:59:11.000Z</time>
      </trkpt>
      <trkpt lat="42.84221" lon="2.25993">
        <ele>854</ele>
        <time>2024-10-24T12:59:12.000Z</time>
      </trkpt>
      <trkpt lat="42.84219" lon="2.26009">
        <ele>858.20001220703</ele>
        <time>2024-10-24T12:59:17.000Z</time>
      </trkpt>
      <trkpt lat="42.84218" lon="2.26025">
        <ele>861</ele>
        <time>2024-10-24T12:59:22.000Z</time>
      </trkpt>
      <trkpt lat="42.84213" lon="2.26048">
        <ele>864.79998779297</ele>
        <time>2024-10-24T12:59:30.000Z</time>
      </trkpt>
      <trkpt lat="42.84208" lon="2.26074">
        <ele>869.59997558594</ele>
        <time>2024-10-24T12:59:39.000Z</time>
      </trkpt>
      <trkpt lat="42.84205" lon="2.26088">
        <ele>871.59997558594</ele>
        <time>2024-10-24T12:59:44.000Z</time>
      </trkpt>
      <trkpt lat="42.84202" lon="2.261">
        <ele>872.40002441406</ele>
        <time>2024-10-24T12:59:48.000Z</time>
      </trkpt>
      <trkpt lat="42.84202" lon="2.26104">
        <ele>872.59997558594</ele>
        <time>2024-10-24T12:59:49.000Z</time>
      </trkpt>
      <trkpt lat="42.84199" lon="2.26125">
        <ele>879.20001220703</ele>
        <time>2024-10-24T12:59:55.000Z</time>
      </trkpt>
      <trkpt lat="42.84201" lon="2.26153">
        <ele>880.40002441406</ele>
        <time>2024-10-24T13:00:02.000Z</time>
      </trkpt>
      <trkpt lat="42.84203" lon="2.26184">
        <ele>881.59997558594</ele>
        <time>2024-10-24T13:00:09.000Z</time>
      </trkpt>
      <trkpt lat="42.84203" lon="2.26203">
        <ele>881.40002441406</ele>
        <time>2024-10-24T13:00:14.000Z</time>
      </trkpt>
      <trkpt lat="42.84203" lon="2.26206">
        <ele>881.79998779297</ele>
        <time>2024-10-24T13:00:15.000Z</time>
      </trkpt>
      <trkpt lat="42.84204" lon="2.26214">
        <ele>881.20001220703</ele>
        <time>2024-10-24T13:00:17.000Z</time>
      </trkpt>
      <trkpt lat="42.84204" lon="2.26223">
        <ele>881.20001220703</ele>
        <time>2024-10-24T13:00:19.000Z</time>
      </trkpt>
      <trkpt lat="42.84204" lon="2.26231">
        <ele>882.40002441406</ele>
        <time>2024-10-24T13:00:21.000Z</time>
      </trkpt>
      <trkpt lat="42.84206" lon="2.26258">
        <ele>883</ele>
        <time>2024-10-24T13:00:27.000Z</time>
      </trkpt>
      <trkpt lat="42.84209" lon="2.26275">
        <ele>883</ele>
        <time>2024-10-24T13:00:31.000Z</time>
      </trkpt>
      <trkpt lat="42.84214" lon="2.26299">
        <ele>883.20001220703</ele>
        <time>2024-10-24T13:00:36.000Z</time>
      </trkpt>
      <trkpt lat="42.84217" lon="2.26328">
        <ele>882.40002441406</ele>
        <time>2024-10-24T13:00:43.000Z</time>
      </trkpt>
      <trkpt lat="42.84217" lon="2.26349">
        <ele>883</ele>
        <time>2024-10-24T13:00:48.000Z</time>
      </trkpt>
      <trkpt lat="42.84208" lon="2.26365">
        <ele>888.59997558594</ele>
        <time>2024-10-24T13:00:53.000Z</time>
      </trkpt>
      <trkpt lat="42.842" lon="2.26381">
        <ele>899.40002441406</ele>
        <time>2024-10-24T13:00:58.000Z</time>
      </trkpt>
      <trkpt lat="42.84193" lon="2.26404">
        <ele>909.59997558594</ele>
        <time>2024-10-24T13:01:04.000Z</time>
      </trkpt>
      <trkpt lat="42.84192" lon="2.26425">
        <ele>909.79998779297</ele>
        <time>2024-10-24T13:01:09.000Z</time>
      </trkpt>
      <trkpt lat="42.8419" lon="2.26441">
        <ele>914.79998779297</ele>
        <time>2024-10-24T13:01:13.000Z</time>
      </trkpt>
      <trkpt lat="42.84187" lon="2.26456">
        <ele>918</ele>
        <time>2024-10-24T13:01:17.000Z</time>
      </trkpt>
      <trkpt lat="42.84184" lon="2.26482">
        <ele>920.20001220703</ele>
        <time>2024-10-24T13:01:23.000Z</time>
      </trkpt>
      <trkpt lat="42.84184" lon="2.26498">
        <ele>918.20001220703</ele>
        <time>2024-10-24T13:01:27.000Z</time>
      </trkpt>
      <trkpt lat="42.84182" lon="2.26513">
        <ele>919.59997558594</ele>
        <time>2024-10-24T13:01:31.000Z</time>
      </trkpt>
      <trkpt lat="42.8418" lon="2.26532">
        <ele>919.59997558594</ele>
        <time>2024-10-24T13:01:36.000Z</time>
      </trkpt>
      <trkpt lat="42.84177" lon="2.26554">
        <ele>919.20001220703</ele>
        <time>2024-10-24T13:01:42.000Z</time>
      </trkpt>
      <trkpt lat="42.84171" lon="2.26583">
        <ele>921.59997558594</ele>
        <time>2024-10-24T13:01:49.000Z</time>
      </trkpt>
      <trkpt lat="42.84167" lon="2.26612">
        <ele>927</ele>
        <time>2024-10-24T13:01:56.000Z</time>
      </trkpt>
      <trkpt lat="42.84167" lon="2.26628">
        <ele>929.59997558594</ele>
        <time>2024-10-24T13:02:00.000Z</time>
      </trkpt>
      <trkpt lat="42.84166" lon="2.26636">
        <ele>929</ele>
        <time>2024-10-24T13:02:02.000Z</time>
      </trkpt>
      <trkpt lat="42.84165" lon="2.26644">
        <ele>929.79998779297</ele>
        <time>2024-10-24T13:02:04.000Z</time>
      </trkpt>
      <trkpt lat="42.84161" lon="2.26666">
        <ele>931.20001220703</ele>
        <time>2024-10-24T13:02:09.000Z</time>
      </trkpt>
      <trkpt lat="42.84155" lon="2.26691">
        <ele>931.79998779297</ele>
        <time>2024-10-24T13:02:15.000Z</time>
      </trkpt>
      <trkpt lat="42.84154" lon="2.26712">
        <ele>929.79998779297</ele>
        <time>2024-10-24T13:02:20.000Z</time>
      </trkpt>
      <trkpt lat="42.84156" lon="2.26734">
        <ele>928.79998779297</ele>
        <time>2024-10-24T13:02:25.000Z</time>
      </trkpt>
      <trkpt lat="42.84156" lon="2.26748">
        <ele>929.79998779297</ele>
        <time>2024-10-24T13:02:29.000Z</time>
      </trkpt>
      <trkpt lat="42.8415" lon="2.26762">
        <ele>937.59997558594</ele>
        <time>2024-10-24T13:02:33.000Z</time>
      </trkpt>
      <trkpt lat="42.84147" lon="2.26783">
        <ele>945.79998779297</ele>
        <time>2024-10-24T13:02:38.000Z</time>
      </trkpt>
      <trkpt lat="42.84143" lon="2.26806">
        <ele>953</ele>
        <time>2024-10-24T13:02:44.000Z</time>
      </trkpt>
      <trkpt lat="42.84144" lon="2.26834">
        <ele>954.59997558594</ele>
        <time>2024-10-24T13:02:50.000Z</time>
      </trkpt>
      <trkpt lat="42.84146" lon="2.26864">
        <ele>956.40002441406</ele>
        <time>2024-10-24T13:02:57.000Z</time>
      </trkpt>
      <trkpt lat="42.84144" lon="2.26884">
        <ele>961.79998779297</ele>
        <time>2024-10-24T13:03:02.000Z</time>
      </trkpt>
      <trkpt lat="42.84143" lon="2.269">
        <ele>963.59997558594</ele>
        <time>2024-10-24T13:03:07.000Z</time>
      </trkpt>
      <trkpt lat="42.84144" lon="2.26922">
        <ele>962.79998779297</ele>
        <time>2024-10-24T13:03:14.000Z</time>
      </trkpt>
      <trkpt lat="42.84146" lon="2.26938">
        <ele>960.20001220703</ele>
        <time>2024-10-24T13:03:19.000Z</time>
      </trkpt>
      <trkpt lat="42.84146" lon="2.26956">
        <ele>956</ele>
        <time>2024-10-24T13:03:24.000Z</time>
      </trkpt>
      <trkpt lat="42.84143" lon="2.26975">
        <ele>956.79998779297</ele>
        <time>2024-10-24T13:03:29.000Z</time>
      </trkpt>
      <trkpt lat="42.84143" lon="2.26994">
        <ele>955.79998779297</ele>
        <time>2024-10-24T13:03:34.000Z</time>
      </trkpt>
      <trkpt lat="42.84141" lon="2.27011">
        <ele>956.79998779297</ele>
        <time>2024-10-24T13:03:39.000Z</time>
      </trkpt>
      <trkpt lat="42.8414" lon="2.2703">
        <ele>957.20001220703</ele>
        <time>2024-10-24T13:03:45.000Z</time>
      </trkpt>
      <trkpt lat="42.8414" lon="2.27045">
        <ele>958.59997558594</ele>
        <time>2024-10-24T13:03:50.000Z</time>
      </trkpt>
      <trkpt lat="42.84143" lon="2.27067">
        <ele>960.79998779297</ele>
        <time>2024-10-24T13:03:56.000Z</time>
      </trkpt>
      <trkpt lat="42.84149" lon="2.27089">
        <ele>962</ele>
        <time>2024-10-24T13:04:02.000Z</time>
      </trkpt>
      <trkpt lat="42.84151" lon="2.27099">
        <ele>963.20001220703</ele>
        <time>2024-10-24T13:04:05.000Z</time>
      </trkpt>
      <trkpt lat="42.84154" lon="2.27106">
        <ele>963.79998779297</ele>
        <time>2024-10-24T13:04:07.000Z</time>
      </trkpt>
      <trkpt lat="42.84158" lon="2.27121">
        <ele>964.40002441406</ele>
        <time>2024-10-24T13:04:11.000Z</time>
      </trkpt>
      <trkpt lat="42.84158" lon="2.27125">
        <ele>964.79998779297</ele>
        <time>2024-10-24T13:04:12.000Z</time>
      </trkpt>
      <trkpt lat="42.84158" lon="2.27129">
        <ele>965.20001220703</ele>
        <time>2024-10-24T13:04:13.000Z</time>
      </trkpt>
      <trkpt lat="42.84159" lon="2.27144">
        <ele>966.59997558594</ele>
        <time>2024-10-24T13:04:17.000Z</time>
      </trkpt>
      <trkpt lat="42.84154" lon="2.27169">
        <ele>968</ele>
        <time>2024-10-24T13:04:24.000Z</time>
      </trkpt>
      <trkpt lat="42.84144" lon="2.2718">
        <ele>969.59997558594</ele>
        <time>2024-10-24T13:04:30.000Z</time>
      </trkpt>
      <trkpt lat="42.8413" lon="2.27188">
        <ele>968.59997558594</ele>
        <time>2024-10-24T13:04:38.000Z</time>
      </trkpt>
      <trkpt lat="42.84126" lon="2.2719">
        <ele>968.40002441406</ele>
        <time>2024-10-24T13:04:40.000Z</time>
      </trkpt>
      <trkpt lat="42.84119" lon="2.27192">
        <ele>968.20001220703</ele>
        <time>2024-10-24T13:04:43.000Z</time>
      </trkpt>
      <trkpt lat="42.84107" lon="2.27201">
        <ele>968.40002441406</ele>
        <time>2024-10-24T13:04:49.000Z</time>
      </trkpt>
      <trkpt lat="42.84089" lon="2.27212">
        <ele>968.79998779297</ele>
        <time>2024-10-24T13:04:57.000Z</time>
      </trkpt>
      <trkpt lat="42.84073" lon="2.27214">
        <ele>970.40002441406</ele>
        <time>2024-10-24T13:05:04.000Z</time>
      </trkpt>
      <trkpt lat="42.84053" lon="2.27215">
        <ele>971.40002441406</ele>
        <time>2024-10-24T13:05:12.000Z</time>
      </trkpt>
      <trkpt lat="42.84035" lon="2.27218">
        <ele>972.20001220703</ele>
        <time>2024-10-24T13:05:19.000Z</time>
      </trkpt>
      <trkpt lat="42.84022" lon="2.27219">
        <ele>972.20001220703</ele>
        <time>2024-10-24T13:05:25.000Z</time>
      </trkpt>
      <trkpt lat="42.84009" lon="2.27218">
        <ele>972</ele>
        <time>2024-10-24T13:05:31.000Z</time>
      </trkpt>
      <trkpt lat="42.83995" lon="2.2722">
        <ele>973.20001220703</ele>
        <time>2024-10-24T13:05:37.000Z</time>
      </trkpt>
      <trkpt lat="42.83979" lon="2.27224">
        <ele>974.20001220703</ele>
        <time>2024-10-24T13:05:43.000Z</time>
      </trkpt>
      <trkpt lat="42.83956" lon="2.27224">
        <ele>975.59997558594</ele>
        <time>2024-10-24T13:05:51.000Z</time>
      </trkpt>
      <trkpt lat="42.83938" lon="2.2722">
        <ele>976.40002441406</ele>
        <time>2024-10-24T13:05:57.000Z</time>
      </trkpt>
      <trkpt lat="42.83918" lon="2.27213">
        <ele>977.40002441406</ele>
        <time>2024-10-24T13:06:04.000Z</time>
      </trkpt>
      <trkpt lat="42.83893" lon="2.27208">
        <ele>978.59997558594</ele>
        <time>2024-10-24T13:06:13.000Z</time>
      </trkpt>
      <trkpt lat="42.8388" lon="2.27209">
        <ele>979.20001220703</ele>
        <time>2024-10-24T13:06:19.000Z</time>
      </trkpt>
      <trkpt lat="42.83861" lon="2.27221">
        <ele>977.79998779297</ele>
        <time>2024-10-24T13:06:25.000Z</time>
      </trkpt>
      <trkpt lat="42.83839" lon="2.2724">
        <ele>973.79998779297</ele>
        <time>2024-10-24T13:06:31.000Z</time>
      </trkpt>
      <trkpt lat="42.83829" lon="2.27248">
        <ele>973</ele>
        <time>2024-10-24T13:06:36.000Z</time>
      </trkpt>
      <trkpt lat="42.83817" lon="2.27265">
        <ele>972.40002441406</ele>
        <time>2024-10-24T13:06:43.000Z</time>
      </trkpt>
      <trkpt lat="42.83808" lon="2.27282">
        <ele>972.20001220703</ele>
        <time>2024-10-24T13:06:48.000Z</time>
      </trkpt>
      <trkpt lat="42.83792" lon="2.27307">
        <ele>973</ele>
        <time>2024-10-24T13:06:54.000Z</time>
      </trkpt>
      <trkpt lat="42.83771" lon="2.27327">
        <ele>969.79998779297</ele>
        <time>2024-10-24T13:07:00.000Z</time>
      </trkpt>
      <trkpt lat="42.83764" lon="2.27333">
        <ele>968</ele>
        <time>2024-10-24T13:07:02.000Z</time>
      </trkpt>
      <trkpt lat="42.83758" lon="2.27342">
        <ele>966.20001220703</ele>
        <time>2024-10-24T13:07:04.000Z</time>
      </trkpt>
      <trkpt lat="42.83757" lon="2.27354">
        <ele>964.79998779297</ele>
        <time>2024-10-24T13:07:06.000Z</time>
      </trkpt>
      <trkpt lat="42.83759" lon="2.2736">
        <ele>964.59997558594</ele>
        <time>2024-10-24T13:07:07.000Z</time>
      </trkpt>
      <trkpt lat="42.83761" lon="2.27365">
        <ele>964.59997558594</ele>
        <time>2024-10-24T13:07:08.000Z</time>
      </trkpt>
      <trkpt lat="42.83769" lon="2.27377">
        <ele>964.79998779297</ele>
        <time>2024-10-24T13:07:11.000Z</time>
      </trkpt>
      <trkpt lat="42.83772" lon="2.27393">
        <ele>964.40002441406</ele>
        <time>2024-10-24T13:07:15.000Z</time>
      </trkpt>
      <trkpt lat="42.83772" lon="2.27404">
        <ele>964.40002441406</ele>
        <time>2024-10-24T13:07:17.000Z</time>
      </trkpt>
      <trkpt lat="42.83769" lon="2.27415">
        <ele>964.20001220703</ele>
        <time>2024-10-24T13:07:19.000Z</time>
      </trkpt>
      <trkpt lat="42.83755" lon="2.27433">
        <ele>963.59997558594</ele>
        <time>2024-10-24T13:07:24.000Z</time>
      </trkpt>
      <trkpt lat="42.83739" lon="2.2744">
        <ele>962</ele>
        <time>2024-10-24T13:07:29.000Z</time>
      </trkpt>
      <trkpt lat="42.83724" lon="2.27445">
        <ele>960.59997558594</ele>
        <time>2024-10-24T13:07:33.000Z</time>
      </trkpt>
      <trkpt lat="42.83719" lon="2.27446">
        <ele>960.40002441406</ele>
        <time>2024-10-24T13:07:34.000Z</time>
      </trkpt>
      <trkpt lat="42.83715" lon="2.27448">
        <ele>960.20001220703</ele>
        <time>2024-10-24T13:07:35.000Z</time>
      </trkpt>
      <trkpt lat="42.83707" lon="2.27456">
        <ele>958.79998779297</ele>
        <time>2024-10-24T13:07:37.000Z</time>
      </trkpt>
      <trkpt lat="42.83704" lon="2.27462">
        <ele>958.20001220703</ele>
        <time>2024-10-24T13:07:38.000Z</time>
      </trkpt>
      <trkpt lat="42.83702" lon="2.27469">
        <ele>958</ele>
        <time>2024-10-24T13:07:39.000Z</time>
      </trkpt>
      <trkpt lat="42.83699" lon="2.27482">
        <ele>958.20001220703</ele>
        <time>2024-10-24T13:07:41.000Z</time>
      </trkpt>
      <trkpt lat="42.83699" lon="2.27488">
        <ele>958.40002441406</ele>
        <time>2024-10-24T13:07:42.000Z</time>
      </trkpt>
      <trkpt lat="42.83697" lon="2.275">
        <ele>958.79998779297</ele>
        <time>2024-10-24T13:07:44.000Z</time>
      </trkpt>
      <trkpt lat="42.83695" lon="2.27507">
        <ele>959</ele>
        <time>2024-10-24T13:07:45.000Z</time>
      </trkpt>
      <trkpt lat="42.83693" lon="2.27512">
        <ele>959.20001220703</ele>
        <time>2024-10-24T13:07:46.000Z</time>
      </trkpt>
      <trkpt lat="42.83686" lon="2.27521">
        <ele>959.59997558594</ele>
        <time>2024-10-24T13:07:48.000Z</time>
      </trkpt>
      <trkpt lat="42.83682" lon="2.27525">
        <ele>959.79998779297</ele>
        <time>2024-10-24T13:07:49.000Z</time>
      </trkpt>
      <trkpt lat="42.83673" lon="2.27529">
        <ele>959.40002441406</ele>
        <time>2024-10-24T13:07:51.000Z</time>
      </trkpt>
      <trkpt lat="42.83664" lon="2.27534">
        <ele>959.40002441406</ele>
        <time>2024-10-24T13:07:53.000Z</time>
      </trkpt>
      <trkpt lat="42.8366" lon="2.27538">
        <ele>959.59997558594</ele>
        <time>2024-10-24T13:07:54.000Z</time>
      </trkpt>
      <trkpt lat="42.83656" lon="2.27543">
        <ele>959.79998779297</ele>
        <time>2024-10-24T13:07:55.000Z</time>
      </trkpt>
      <trkpt lat="42.83651" lon="2.27555">
        <ele>960.20001220703</ele>
        <time>2024-10-24T13:07:57.000Z</time>
      </trkpt>
      <trkpt lat="42.8365" lon="2.27561">
        <ele>959.79998779297</ele>
        <time>2024-10-24T13:07:58.000Z</time>
      </trkpt>
      <trkpt lat="42.83651" lon="2.27568">
        <ele>959.59997558594</ele>
        <time>2024-10-24T13:07:59.000Z</time>
      </trkpt>
      <trkpt lat="42.83655" lon="2.27579">
        <ele>959.79998779297</ele>
        <time>2024-10-24T13:08:01.000Z</time>
      </trkpt>
      <trkpt lat="42.83664" lon="2.27597">
        <ele>961</ele>
        <time>2024-10-24T13:08:04.000Z</time>
      </trkpt>
      <trkpt lat="42.83666" lon="2.27604">
        <ele>961.20001220703</ele>
        <time>2024-10-24T13:08:05.000Z</time>
      </trkpt>
      <trkpt lat="42.83672" lon="2.27641">
        <ele>961.59997558594</ele>
        <time>2024-10-24T13:08:11.000Z</time>
      </trkpt>
      <trkpt lat="42.83672" lon="2.27667">
        <ele>961.59997558594</ele>
        <time>2024-10-24T13:08:16.000Z</time>
      </trkpt>
      <trkpt lat="42.83667" lon="2.27688">
        <ele>961.59997558594</ele>
        <time>2024-10-24T13:08:21.000Z</time>
      </trkpt>
      <trkpt lat="42.83654" lon="2.27708">
        <ele>962.40002441406</ele>
        <time>2024-10-24T13:08:27.000Z</time>
      </trkpt>
      <trkpt lat="42.83639" lon="2.27715">
        <ele>962.59997558594</ele>
        <time>2024-10-24T13:08:33.000Z</time>
      </trkpt>
      <trkpt lat="42.83621" lon="2.27709">
        <ele>961.59997558594</ele>
        <time>2024-10-24T13:08:39.000Z</time>
      </trkpt>
      <trkpt lat="42.83606" lon="2.27703">
        <ele>959</ele>
        <time>2024-10-24T13:08:44.000Z</time>
      </trkpt>
      <trkpt lat="42.83586" lon="2.27695">
        <ele>956.59997558594</ele>
        <time>2024-10-24T13:08:50.000Z</time>
      </trkpt>
      <trkpt lat="42.83566" lon="2.27693">
        <ele>955.40002441406</ele>
        <time>2024-10-24T13:08:57.000Z</time>
      </trkpt>
      <trkpt lat="42.83554" lon="2.27695">
        <ele>955</ele>
        <time>2024-10-24T13:09:01.000Z</time>
      </trkpt>
      <trkpt lat="42.8355" lon="2.27697">
        <ele>955</ele>
        <time>2024-10-24T13:09:04.000Z</time>
      </trkpt>
      <trkpt lat="42.83547" lon="2.27698">
        <ele>955</ele>
        <time>2024-10-24T13:09:37.000Z</time>
      </trkpt>
      <trkpt lat="42.83537" lon="2.27702">
        <ele>955.40002441406</ele>
        <time>2024-10-24T13:09:42.000Z</time>
      </trkpt>
      <trkpt lat="42.83517" lon="2.27707">
        <ele>955.20001220703</ele>
        <time>2024-10-24T13:09:50.000Z</time>
      </trkpt>
      <trkpt lat="42.83505" lon="2.27711">
        <ele>954.40002441406</ele>
        <time>2024-10-24T13:09:55.000Z</time>
      </trkpt>
      <trkpt lat="42.83491" lon="2.27714">
        <ele>953.59997558594</ele>
        <time>2024-10-24T13:10:00.000Z</time>
      </trkpt>
      <trkpt lat="42.83475" lon="2.27724">
        <ele>953</ele>
        <time>2024-10-24T13:10:06.000Z</time>
      </trkpt>
      <trkpt lat="42.83456" lon="2.2774">
        <ele>953.79998779297</ele>
        <time>2024-10-24T13:10:12.000Z</time>
      </trkpt>
      <trkpt lat="42.83441" lon="2.27759">
        <ele>955.20001220703</ele>
        <time>2024-10-24T13:10:18.000Z</time>
      </trkpt>
      <trkpt lat="42.83424" lon="2.27765">
        <ele>955.59997558594</ele>
        <time>2024-10-24T13:10:23.000Z</time>
      </trkpt>
      <trkpt lat="42.83407" lon="2.27773">
        <ele>955.40002441406</ele>
        <time>2024-10-24T13:10:28.000Z</time>
      </trkpt>
      <trkpt lat="42.83387" lon="2.27781">
        <ele>954.59997558594</ele>
        <time>2024-10-24T13:10:32.000Z</time>
      </trkpt>
      <trkpt lat="42.83381" lon="2.27784">
        <ele>954.40002441406</ele>
        <time>2024-10-24T13:10:33.000Z</time>
      </trkpt>
      <trkpt lat="42.83352" lon="2.27799">
        <ele>951.40002441406</ele>
        <time>2024-10-24T13:10:38.000Z</time>
      </trkpt>
      <trkpt lat="42.83341" lon="2.27806">
        <ele>948.79998779297</ele>
        <time>2024-10-24T13:10:40.000Z</time>
      </trkpt>
      <trkpt lat="42.8333" lon="2.27813">
        <ele>946.79998779297</ele>
        <time>2024-10-24T13:10:42.000Z</time>
      </trkpt>
      <trkpt lat="42.83326" lon="2.27815">
        <ele>946</ele>
        <time>2024-10-24T13:10:43.000Z</time>
      </trkpt>
      <trkpt lat="42.83319" lon="2.27819">
        <ele>944.59997558594</ele>
        <time>2024-10-24T13:10:47.000Z</time>
      </trkpt>
      <trkpt lat="42.83307" lon="2.27826">
        <ele>943</ele>
        <time>2024-10-24T13:10:52.000Z</time>
      </trkpt>
      <trkpt lat="42.83286" lon="2.27836">
        <ele>942.40002441406</ele>
        <time>2024-10-24T13:10:58.000Z</time>
      </trkpt>
      <trkpt lat="42.8327" lon="2.27848">
        <ele>942.40002441406</ele>
        <time>2024-10-24T13:11:03.000Z</time>
      </trkpt>
      <trkpt lat="42.83262" lon="2.27852">
        <ele>942.79998779297</ele>
        <time>2024-10-24T13:11:05.000Z</time>
      </trkpt>
      <trkpt lat="42.8325" lon="2.27854">
        <ele>943</ele>
        <time>2024-10-24T13:11:08.000Z</time>
      </trkpt>
      <trkpt lat="42.83239" lon="2.27853">
        <ele>943</ele>
        <time>2024-10-24T13:11:12.000Z</time>
      </trkpt>
      <trkpt lat="42.83234" lon="2.27853">
        <ele>943</ele>
        <time>2024-10-24T13:11:17.000Z</time>
      </trkpt>
      <trkpt lat="42.83234" lon="2.27858">
        <ele>943</ele>
        <time>2024-10-24T13:11:21.000Z</time>
      </trkpt>
      <trkpt lat="42.83233" lon="2.27874">
        <ele>943.59997558594</ele>
        <time>2024-10-24T13:11:26.000Z</time>
      </trkpt>
      <trkpt lat="42.83233" lon="2.27879">
        <ele>943.79998779297</ele>
        <time>2024-10-24T13:11:29.000Z</time>
      </trkpt>
      <trkpt lat="42.83233" lon="2.27886">
        <ele>944</ele>
        <time>2024-10-24T13:11:32.000Z</time>
      </trkpt>
      <trkpt lat="42.83235" lon="2.27891">
        <ele>944.20001220703</ele>
        <time>2024-10-24T13:11:34.000Z</time>
      </trkpt>
      <trkpt lat="42.83239" lon="2.27902">
        <ele>944.59997558594</ele>
        <time>2024-10-24T13:11:39.000Z</time>
      </trkpt>
      <trkpt lat="42.8324" lon="2.27907">
        <ele>944.79998779297</ele>
        <time>2024-10-24T13:11:41.000Z</time>
      </trkpt>
      <trkpt lat="42.83241" lon="2.27913">
        <ele>945</ele>
        <time>2024-10-24T13:11:44.000Z</time>
      </trkpt>
      <trkpt lat="42.83243" lon="2.27914">
        <ele>945</ele>
        <time>2024-10-24T13:11:46.000Z</time>
      </trkpt>
      <trkpt lat="42.83244" lon="2.27912">
        <ele>944.79998779297</ele>
        <time>2024-10-24T13:16:06.000Z</time>
      </trkpt>
      <trkpt lat="42.83244" lon="2.2791">
        <ele>944.59997558594</ele>
        <time>2024-10-24T13:16:07.000Z</time>
      </trkpt>
      <trkpt lat="42.83243" lon="2.27905">
        <ele>944.40002441406</ele>
        <time>2024-10-24T13:16:09.000Z</time>
      </trkpt>
      <trkpt lat="42.83241" lon="2.27902">
        <ele>944.40002441406</ele>
        <time>2024-10-24T13:16:11.000Z</time>
      </trkpt>
      <trkpt lat="42.8324" lon="2.27892">
        <ele>943.79998779297</ele>
        <time>2024-10-24T13:16:16.000Z</time>
      </trkpt>
      <trkpt lat="42.83239" lon="2.2789">
        <ele>943.79998779297</ele>
        <time>2024-10-24T13:16:17.000Z</time>
      </trkpt>
      <trkpt lat="42.83225" lon="2.27866">
        <ele>943.59997558594</ele>
        <time>2024-10-24T13:16:24.000Z</time>
      </trkpt>
      <trkpt lat="42.83211" lon="2.27853">
        <ele>943.79998779297</ele>
        <time>2024-10-24T13:16:28.000Z</time>
      </trkpt>
      <trkpt lat="42.83202" lon="2.2785">
        <ele>944</ele>
        <time>2024-10-24T13:16:30.000Z</time>
      </trkpt>
      <trkpt lat="42.83194" lon="2.27848">
        <ele>944.40002441406</ele>
        <time>2024-10-24T13:16:32.000Z</time>
      </trkpt>
      <trkpt lat="42.83185" lon="2.27849">
        <ele>944.59997558594</ele>
        <time>2024-10-24T13:16:34.000Z</time>
      </trkpt>
      <trkpt lat="42.83172" lon="2.27854">
        <ele>944.59997558594</ele>
        <time>2024-10-24T13:16:37.000Z</time>
      </trkpt>
      <trkpt lat="42.83154" lon="2.27864">
        <ele>942.59997558594</ele>
        <time>2024-10-24T13:16:42.000Z</time>
      </trkpt>
      <trkpt lat="42.83145" lon="2.27867">
        <ele>941.79998779297</ele>
        <time>2024-10-24T13:16:44.000Z</time>
      </trkpt>
      <trkpt lat="42.83131" lon="2.27871">
        <ele>940.20001220703</ele>
        <time>2024-10-24T13:16:47.000Z</time>
      </trkpt>
      <trkpt lat="42.8311" lon="2.27877">
        <ele>938</ele>
        <time>2024-10-24T13:16:52.000Z</time>
      </trkpt>
      <trkpt lat="42.83107" lon="2.2788">
        <ele>938</ele>
        <time>2024-10-24T13:16:53.000Z</time>
      </trkpt>
      <trkpt lat="42.83102" lon="2.2789">
        <ele>937.40002441406</ele>
        <time>2024-10-24T13:16:55.000Z</time>
      </trkpt>
      <trkpt lat="42.831" lon="2.27895">
        <ele>937.20001220703</ele>
        <time>2024-10-24T13:16:56.000Z</time>
      </trkpt>
      <trkpt lat="42.83096" lon="2.27914">
        <ele>936.79998779297</ele>
        <time>2024-10-24T13:16:59.000Z</time>
      </trkpt>
      <trkpt lat="42.83094" lon="2.27927">
        <ele>935.20001220703</ele>
        <time>2024-10-24T13:17:01.000Z</time>
      </trkpt>
      <trkpt lat="42.83091" lon="2.27955">
        <ele>932.79998779297</ele>
        <time>2024-10-24T13:17:06.000Z</time>
      </trkpt>
      <trkpt lat="42.83092" lon="2.27965">
        <ele>932</ele>
        <time>2024-10-24T13:17:10.000Z</time>
      </trkpt>
      <trkpt lat="42.83098" lon="2.27984">
        <ele>933.20001220703</ele>
        <time>2024-10-24T13:17:15.000Z</time>
      </trkpt>
      <trkpt lat="42.83099" lon="2.27994">
        <ele>933.79998779297</ele>
        <time>2024-10-24T13:17:17.000Z</time>
      </trkpt>
      <trkpt lat="42.83095" lon="2.28005">
        <ele>934.59997558594</ele>
        <time>2024-10-24T13:17:19.000Z</time>
      </trkpt>
      <trkpt lat="42.83088" lon="2.28011">
        <ele>935</ele>
        <time>2024-10-24T13:17:21.000Z</time>
      </trkpt>
      <trkpt lat="42.83084" lon="2.28013">
        <ele>935.40002441406</ele>
        <time>2024-10-24T13:17:22.000Z</time>
      </trkpt>
      <trkpt lat="42.83056" lon="2.2802">
        <ele>935.59997558594</ele>
        <time>2024-10-24T13:17:28.000Z</time>
      </trkpt>
      <trkpt lat="42.83047" lon="2.28025">
        <ele>936</ele>
        <time>2024-10-24T13:17:30.000Z</time>
      </trkpt>
      <trkpt lat="42.83037" lon="2.28036">
        <ele>937</ele>
        <time>2024-10-24T13:17:33.000Z</time>
      </trkpt>
      <trkpt lat="42.83018" lon="2.28053">
        <ele>938.40002441406</ele>
        <time>2024-10-24T13:17:39.000Z</time>
      </trkpt>
      <trkpt lat="42.83008" lon="2.28061">
        <ele>938.59997558594</ele>
        <time>2024-10-24T13:17:44.000Z</time>
      </trkpt>
      <trkpt lat="42.82989" lon="2.2807">
        <ele>941.20001220703</ele>
        <time>2024-10-24T13:17:51.000Z</time>
      </trkpt>
      <trkpt lat="42.82967" lon="2.28066">
        <ele>941</ele>
        <time>2024-10-24T13:17:57.000Z</time>
      </trkpt>
      <trkpt lat="42.82947" lon="2.28057">
        <ele>939.40002441406</ele>
        <time>2024-10-24T13:18:03.000Z</time>
      </trkpt>
      <trkpt lat="42.82929" lon="2.28058">
        <ele>939.40002441406</ele>
        <time>2024-10-24T13:18:08.000Z</time>
      </trkpt>
      <trkpt lat="42.82914" lon="2.28079">
        <ele>941.79998779297</ele>
        <time>2024-10-24T13:18:14.000Z</time>
      </trkpt>
      <trkpt lat="42.82905" lon="2.28102">
        <ele>945.20001220703</ele>
        <time>2024-10-24T13:18:19.000Z</time>
      </trkpt>
      <trkpt lat="42.82892" lon="2.28132">
        <ele>949</ele>
        <time>2024-10-24T13:18:26.000Z</time>
      </trkpt>
      <trkpt lat="42.82884" lon="2.28151">
        <ele>951.40002441406</ele>
        <time>2024-10-24T13:18:31.000Z</time>
      </trkpt>
      <trkpt lat="42.82882" lon="2.28155">
        <ele>951.79998779297</ele>
        <time>2024-10-24T13:18:32.000Z</time>
      </trkpt>
      <trkpt lat="42.82878" lon="2.28163">
        <ele>952.59997558594</ele>
        <time>2024-10-24T13:18:34.000Z</time>
      </trkpt>
      <trkpt lat="42.82865" lon="2.28181">
        <ele>954</ele>
        <time>2024-10-24T13:18:39.000Z</time>
      </trkpt>
      <trkpt lat="42.8285" lon="2.28199">
        <ele>954.59997558594</ele>
        <time>2024-10-24T13:18:45.000Z</time>
      </trkpt>
      <trkpt lat="42.82839" lon="2.2821">
        <ele>955.59997558594</ele>
        <time>2024-10-24T13:18:49.000Z</time>
      </trkpt>
      <trkpt lat="42.82829" lon="2.28218">
        <ele>956.20001220703</ele>
        <time>2024-10-24T13:18:52.000Z</time>
      </trkpt>
      <trkpt lat="42.82822" lon="2.2823">
        <ele>957</ele>
        <time>2024-10-24T13:18:56.000Z</time>
      </trkpt>
      <trkpt lat="42.82817" lon="2.28241">
        <ele>957.79998779297</ele>
        <time>2024-10-24T13:19:01.000Z</time>
      </trkpt>
      <trkpt lat="42.82816" lon="2.28248">
        <ele>958.20001220703</ele>
        <time>2024-10-24T13:19:04.000Z</time>
      </trkpt>
      <trkpt lat="42.82815" lon="2.28251">
        <ele>958.59997558594</ele>
        <time>2024-10-24T13:19:06.000Z</time>
      </trkpt>
      <trkpt lat="42.82815" lon="2.28261">
        <ele>959.20001220703</ele>
        <time>2024-10-24T13:19:10.000Z</time>
      </trkpt>
      <trkpt lat="42.82814" lon="2.28268">
        <ele>959.79998779297</ele>
        <time>2024-10-24T13:19:12.000Z</time>
      </trkpt>
      <trkpt lat="42.8281" lon="2.28286">
        <ele>961.40002441406</ele>
        <time>2024-10-24T13:19:17.000Z</time>
      </trkpt>
      <trkpt lat="42.82807" lon="2.28307">
        <ele>962.59997558594</ele>
        <time>2024-10-24T13:19:21.000Z</time>
      </trkpt>
      <trkpt lat="42.82805" lon="2.28313">
        <ele>962.59997558594</ele>
        <time>2024-10-24T13:19:22.000Z</time>
      </trkpt>
      <trkpt lat="42.82804" lon="2.28325">
        <ele>962.40002441406</ele>
        <time>2024-10-24T13:19:24.000Z</time>
      </trkpt>
      <trkpt lat="42.82803" lon="2.28343">
        <ele>963</ele>
        <time>2024-10-24T13:19:27.000Z</time>
      </trkpt>
      <trkpt lat="42.82802" lon="2.28376">
        <ele>961.40002441406</ele>
        <time>2024-10-24T13:19:33.000Z</time>
      </trkpt>
      <trkpt lat="42.82798" lon="2.28396">
        <ele>960.79998779297</ele>
        <time>2024-10-24T13:19:38.000Z</time>
      </trkpt>
      <trkpt lat="42.82792" lon="2.2842">
        <ele>959.40002441406</ele>
        <time>2024-10-24T13:19:44.000Z</time>
      </trkpt>
      <trkpt lat="42.82789" lon="2.28444">
        <ele>959.79998779297</ele>
        <time>2024-10-24T13:19:49.000Z</time>
      </trkpt>
      <trkpt lat="42.8278" lon="2.2847">
        <ele>960.20001220703</ele>
        <time>2024-10-24T13:19:54.000Z</time>
      </trkpt>
      <trkpt lat="42.82771" lon="2.2849">
        <ele>960.40002441406</ele>
        <time>2024-10-24T13:19:58.000Z</time>
      </trkpt>
      <trkpt lat="42.82753" lon="2.28531">
        <ele>962.59997558594</ele>
        <time>2024-10-24T13:20:06.000Z</time>
      </trkpt>
      <trkpt lat="42.82748" lon="2.28542">
        <ele>963.59997558594</ele>
        <time>2024-10-24T13:20:08.000Z</time>
      </trkpt>
      <trkpt lat="42.82743" lon="2.28564">
        <ele>966.20001220703</ele>
        <time>2024-10-24T13:20:12.000Z</time>
      </trkpt>
      <trkpt lat="42.82743" lon="2.28577">
        <ele>967.59997558594</ele>
        <time>2024-10-24T13:20:14.000Z</time>
      </trkpt>
      <trkpt lat="42.82743" lon="2.28595">
        <ele>969.40002441406</ele>
        <time>2024-10-24T13:20:17.000Z</time>
      </trkpt>
      <trkpt lat="42.82745" lon="2.28637">
        <ele>972.59997558594</ele>
        <time>2024-10-24T13:20:24.000Z</time>
      </trkpt>
      <trkpt lat="42.82749" lon="2.28677">
        <ele>975.20001220703</ele>
        <time>2024-10-24T13:20:31.000Z</time>
      </trkpt>
      <trkpt lat="42.82756" lon="2.28706">
        <ele>977.40002441406</ele>
        <time>2024-10-24T13:20:37.000Z</time>
      </trkpt>
      <trkpt lat="42.82762" lon="2.28743">
        <ele>979</ele>
        <time>2024-10-24T13:20:45.000Z</time>
      </trkpt>
      <trkpt lat="42.82764" lon="2.28775">
        <ele>981.59997558594</ele>
        <time>2024-10-24T13:20:52.000Z</time>
      </trkpt>
      <trkpt lat="42.82754" lon="2.28795">
        <ele>983.20001220703</ele>
        <time>2024-10-24T13:20:57.000Z</time>
      </trkpt>
      <trkpt lat="42.82737" lon="2.28803">
        <ele>982.59997558594</ele>
        <time>2024-10-24T13:21:02.000Z</time>
      </trkpt>
      <trkpt lat="42.82708" lon="2.28809">
        <ele>982.40002441406</ele>
        <time>2024-10-24T13:21:10.000Z</time>
      </trkpt>
      <trkpt lat="42.82693" lon="2.28829">
        <ele>983.40002441406</ele>
        <time>2024-10-24T13:21:16.000Z</time>
      </trkpt>
      <trkpt lat="42.82695" lon="2.28853">
        <ele>982.40002441406</ele>
        <time>2024-10-24T13:21:21.000Z</time>
      </trkpt>
      <trkpt lat="42.82708" lon="2.28871">
        <ele>980.79998779297</ele>
        <time>2024-10-24T13:21:26.000Z</time>
      </trkpt>
      <trkpt lat="42.82718" lon="2.2888">
        <ele>980.20001220703</ele>
        <time>2024-10-24T13:21:29.000Z</time>
      </trkpt>
      <trkpt lat="42.82729" lon="2.28889">
        <ele>979.79998779297</ele>
        <time>2024-10-24T13:21:32.000Z</time>
      </trkpt>
      <trkpt lat="42.82742" lon="2.28907">
        <ele>980</ele>
        <time>2024-10-24T13:21:37.000Z</time>
      </trkpt>
      <trkpt lat="42.8275" lon="2.28929">
        <ele>979</ele>
        <time>2024-10-24T13:21:42.000Z</time>
      </trkpt>
      <trkpt lat="42.82753" lon="2.28935">
        <ele>978.59997558594</ele>
        <time>2024-10-24T13:21:45.000Z</time>
      </trkpt>
      <trkpt lat="42.82753" lon="2.28935">
        <ele>978.59997558594</ele>
        <time>2024-10-24T13:21:46.000Z</time>
      </trkpt>
      <trkpt lat="42.82752" lon="2.28942">
        <ele>978</ele>
        <time>2024-10-24T13:24:58.000Z</time>
      </trkpt>
      <trkpt lat="42.82752" lon="2.28948">
        <ele>977.40002441406</ele>
        <time>2024-10-24T13:25:00.000Z</time>
      </trkpt>
      <trkpt lat="42.82754" lon="2.28972">
        <ele>975.59997558594</ele>
        <time>2024-10-24T13:25:05.000Z</time>
      </trkpt>
      <trkpt lat="42.82755" lon="2.28989">
        <ele>974</ele>
        <time>2024-10-24T13:25:09.000Z</time>
      </trkpt>
      <trkpt lat="42.82756" lon="2.28989">
        <ele>974</ele>
        <time>2024-10-24T13:25:10.000Z</time>
      </trkpt>
      <trkpt lat="42.82756" lon="2.28993">
        <ele>973.79998779297</ele>
        <time>2024-10-24T13:25:15.000Z</time>
      </trkpt>
      <trkpt lat="42.82757" lon="2.28996">
        <ele>973.59997558594</ele>
        <time>2024-10-24T13:25:16.000Z</time>
      </trkpt>
      <trkpt lat="42.82762" lon="2.29021">
        <ele>973.40002441406</ele>
        <time>2024-10-24T13:25:21.000Z</time>
      </trkpt>
      <trkpt lat="42.82774" lon="2.29064">
        <ele>972.20001220703</ele>
        <time>2024-10-24T13:25:27.000Z</time>
      </trkpt>
      <trkpt lat="42.8279" lon="2.29125">
        <ele>968.20001220703</ele>
        <time>2024-10-24T13:25:34.000Z</time>
      </trkpt>
      <trkpt lat="42.82808" lon="2.29184">
        <ele>967.20001220703</ele>
        <time>2024-10-24T13:25:41.000Z</time>
      </trkpt>
      <trkpt lat="42.82826" lon="2.29242">
        <ele>964.79998779297</ele>
        <time>2024-10-24T13:25:48.000Z</time>
      </trkpt>
      <trkpt lat="42.82829" lon="2.29249">
        <ele>964.59997558594</ele>
        <time>2024-10-24T13:25:49.000Z</time>
      </trkpt>
      <trkpt lat="42.82839" lon="2.29262">
        <ele>964.59997558594</ele>
        <time>2024-10-24T13:25:51.000Z</time>
      </trkpt>
      <trkpt lat="42.82867" lon="2.29284">
        <ele>962.59997558594</ele>
        <time>2024-10-24T13:25:56.000Z</time>
      </trkpt>
      <trkpt lat="42.82907" lon="2.29319">
        <ele>960</ele>
        <time>2024-10-24T13:26:03.000Z</time>
      </trkpt>
      <trkpt lat="42.82925" lon="2.29335">
        <ele>958.79998779297</ele>
        <time>2024-10-24T13:26:07.000Z</time>
      </trkpt>
      <trkpt lat="42.82956" lon="2.29363">
        <ele>957</ele>
        <time>2024-10-24T13:26:14.000Z</time>
      </trkpt>
      <trkpt lat="42.82986" lon="2.29383">
        <ele>959.59997558594</ele>
        <time>2024-10-24T13:26:20.000Z</time>
      </trkpt>
      <trkpt lat="42.82996" lon="2.29388">
        <ele>961.20001220703</ele>
        <time>2024-10-24T13:26:22.000Z</time>
      </trkpt>
      <trkpt lat="42.83009" lon="2.29401">
        <ele>963.59997558594</ele>
        <time>2024-10-24T13:26:25.000Z</time>
      </trkpt>
      <trkpt lat="42.83015" lon="2.29412">
        <ele>964.20001220703</ele>
        <time>2024-10-24T13:26:27.000Z</time>
      </trkpt>
      <trkpt lat="42.8302" lon="2.29426">
        <ele>964</ele>
        <time>2024-10-24T13:26:29.000Z</time>
      </trkpt>
      <trkpt lat="42.83024" lon="2.29441">
        <ele>963.79998779297</ele>
        <time>2024-10-24T13:26:31.000Z</time>
      </trkpt>
      <trkpt lat="42.83027" lon="2.29467">
        <ele>962</ele>
        <time>2024-10-24T13:26:34.000Z</time>
      </trkpt>
      <trkpt lat="42.8303" lon="2.29504">
        <ele>959.20001220703</ele>
        <time>2024-10-24T13:26:38.000Z</time>
      </trkpt>
      <trkpt lat="42.8303" lon="2.29514">
        <ele>958.79998779297</ele>
        <time>2024-10-24T13:26:39.000Z</time>
      </trkpt>
      <trkpt lat="42.83028" lon="2.29571">
        <ele>959.59997558594</ele>
        <time>2024-10-24T13:26:45.000Z</time>
      </trkpt>
      <trkpt lat="42.83023" lon="2.29617">
        <ele>954.79998779297</ele>
        <time>2024-10-24T13:26:50.000Z</time>
      </trkpt>
      <trkpt lat="42.83023" lon="2.29627">
        <ele>953.20001220703</ele>
        <time>2024-10-24T13:26:51.000Z</time>
      </trkpt>
      <trkpt lat="42.83023" lon="2.29672">
        <ele>943.59997558594</ele>
        <time>2024-10-24T13:26:56.000Z</time>
      </trkpt>
      <trkpt lat="42.83029" lon="2.29688">
        <ele>941.20001220703</ele>
        <time>2024-10-24T13:26:58.000Z</time>
      </trkpt>
      <trkpt lat="42.83037" lon="2.29704">
        <ele>940.40002441406</ele>
        <time>2024-10-24T13:27:00.000Z</time>
      </trkpt>
      <trkpt lat="42.8306" lon="2.29725">
        <ele>939.20001220703</ele>
        <time>2024-10-24T13:27:04.000Z</time>
      </trkpt>
      <trkpt lat="42.8308" lon="2.2975">
        <ele>939.40002441406</ele>
        <time>2024-10-24T13:27:08.000Z</time>
      </trkpt>
      <trkpt lat="42.83092" lon="2.29771">
        <ele>940</ele>
        <time>2024-10-24T13:27:11.000Z</time>
      </trkpt>
      <trkpt lat="42.83095" lon="2.2978">
        <ele>940.20001220703</ele>
        <time>2024-10-24T13:27:12.000Z</time>
      </trkpt>
      <trkpt lat="42.83101" lon="2.29814">
        <ele>940.20001220703</ele>
        <time>2024-10-24T13:27:16.000Z</time>
      </trkpt>
      <trkpt lat="42.8311" lon="2.29837">
        <ele>941.59997558594</ele>
        <time>2024-10-24T13:27:19.000Z</time>
      </trkpt>
      <trkpt lat="42.83125" lon="2.29862">
        <ele>943.20001220703</ele>
        <time>2024-10-24T13:27:23.000Z</time>
      </trkpt>
      <trkpt lat="42.83129" lon="2.2987">
        <ele>943.20001220703</ele>
        <time>2024-10-24T13:27:24.000Z</time>
      </trkpt>
      <trkpt lat="42.8313" lon="2.29878">
        <ele>942.79998779297</ele>
        <time>2024-10-24T13:27:25.000Z</time>
      </trkpt>
      <trkpt lat="42.83131" lon="2.29897">
        <ele>940.59997558594</ele>
        <time>2024-10-24T13:27:27.000Z</time>
      </trkpt>
      <trkpt lat="42.8313" lon="2.29941">
        <ele>932.59997558594</ele>
        <time>2024-10-24T13:27:32.000Z</time>
      </trkpt>
      <trkpt lat="42.83128" lon="2.29965">
        <ele>929.40002441406</ele>
        <time>2024-10-24T13:27:35.000Z</time>
      </trkpt>
      <trkpt lat="42.83127" lon="2.2998">
        <ele>927</ele>
        <time>2024-10-24T13:27:37.000Z</time>
      </trkpt>
      <trkpt lat="42.83126" lon="2.29988">
        <ele>925.59997558594</ele>
        <time>2024-10-24T13:27:38.000Z</time>
      </trkpt>
      <trkpt lat="42.83124" lon="2.29996">
        <ele>924.20001220703</ele>
        <time>2024-10-24T13:27:39.000Z</time>
      </trkpt>
      <trkpt lat="42.83123" lon="2.30021">
        <ele>924</ele>
        <time>2024-10-24T13:27:42.000Z</time>
      </trkpt>
      <trkpt lat="42.83121" lon="2.3005">
        <ele>923.20001220703</ele>
        <time>2024-10-24T13:27:45.000Z</time>
      </trkpt>
      <trkpt lat="42.83117" lon="2.3007">
        <ele>923.20001220703</ele>
        <time>2024-10-24T13:27:47.000Z</time>
      </trkpt>
      <trkpt lat="42.831" lon="2.30125">
        <ele>915.79998779297</ele>
        <time>2024-10-24T13:27:53.000Z</time>
      </trkpt>
      <trkpt lat="42.83089" lon="2.30167">
        <ele>910</ele>
        <time>2024-10-24T13:27:58.000Z</time>
      </trkpt>
      <trkpt lat="42.83088" lon="2.30176">
        <ele>909.40002441406</ele>
        <time>2024-10-24T13:27:59.000Z</time>
      </trkpt>
      <trkpt lat="42.83082" lon="2.30226">
        <ele>906.40002441406</ele>
        <time>2024-10-24T13:28:04.000Z</time>
      </trkpt>
      <trkpt lat="42.83073" lon="2.30253">
        <ele>903.20001220703</ele>
        <time>2024-10-24T13:28:07.000Z</time>
      </trkpt>
      <trkpt lat="42.8307" lon="2.30261">
        <ele>901.79998779297</ele>
        <time>2024-10-24T13:28:08.000Z</time>
      </trkpt>
      <trkpt lat="42.83067" lon="2.3027">
        <ele>900.59997558594</ele>
        <time>2024-10-24T13:28:09.000Z</time>
      </trkpt>
      <trkpt lat="42.83064" lon="2.30288">
        <ele>898.79998779297</ele>
        <time>2024-10-24T13:28:11.000Z</time>
      </trkpt>
      <trkpt lat="42.83069" lon="2.30304">
        <ele>898.40002441406</ele>
        <time>2024-10-24T13:28:13.000Z</time>
      </trkpt>
      <trkpt lat="42.83074" lon="2.3031">
        <ele>898.59997558594</ele>
        <time>2024-10-24T13:28:14.000Z</time>
      </trkpt>
      <trkpt lat="42.83079" lon="2.30314">
        <ele>899.20001220703</ele>
        <time>2024-10-24T13:28:15.000Z</time>
      </trkpt>
      <trkpt lat="42.83092" lon="2.3032">
        <ele>901</ele>
        <time>2024-10-24T13:28:17.000Z</time>
      </trkpt>
      <trkpt lat="42.83103" lon="2.30328">
        <ele>901.79998779297</ele>
        <time>2024-10-24T13:28:19.000Z</time>
      </trkpt>
      <trkpt lat="42.83112" lon="2.30341">
        <ele>901.40002441406</ele>
        <time>2024-10-24T13:28:21.000Z</time>
      </trkpt>
      <trkpt lat="42.83116" lon="2.30358">
        <ele>899.79998779297</ele>
        <time>2024-10-24T13:28:23.000Z</time>
      </trkpt>
      <trkpt lat="42.83119" lon="2.30377">
        <ele>896.79998779297</ele>
        <time>2024-10-24T13:28:25.000Z</time>
      </trkpt>
      <trkpt lat="42.83126" lon="2.3043">
        <ele>895.20001220703</ele>
        <time>2024-10-24T13:28:31.000Z</time>
      </trkpt>
      <trkpt lat="42.83128" lon="2.30448">
        <ele>894.40002441406</ele>
        <time>2024-10-24T13:28:35.000Z</time>
      </trkpt>
      <trkpt lat="42.83128" lon="2.30467">
        <ele>892.20001220703</ele>
        <time>2024-10-24T13:28:40.000Z</time>
      </trkpt>
      <trkpt lat="42.8312" lon="2.30487">
        <ele>887.40002441406</ele>
        <time>2024-10-24T13:28:45.000Z</time>
      </trkpt>
      <trkpt lat="42.8312" lon="2.30488">
        <ele>887.20001220703</ele>
        <time>2024-10-24T13:28:46.000Z</time>
      </trkpt>
      <trkpt lat="42.83118" lon="2.30491">
        <ele>886.40002441406</ele>
        <time>2024-10-24T13:29:19.000Z</time>
      </trkpt>
      <trkpt lat="42.83117" lon="2.30494">
        <ele>885.79998779297</ele>
        <time>2024-10-24T13:29:20.000Z</time>
      </trkpt>
      <trkpt lat="42.83108" lon="2.30516">
        <ele>882.59997558594</ele>
        <time>2024-10-24T13:29:24.000Z</time>
      </trkpt>
      <trkpt lat="42.83101" lon="2.30543">
        <ele>879.20001220703</ele>
        <time>2024-10-24T13:29:28.000Z</time>
      </trkpt>
      <trkpt lat="42.831" lon="2.30551">
        <ele>878.40002441406</ele>
        <time>2024-10-24T13:29:29.000Z</time>
      </trkpt>
      <trkpt lat="42.831" lon="2.3056">
        <ele>878.40002441406</ele>
        <time>2024-10-24T13:29:30.000Z</time>
      </trkpt>
      <trkpt lat="42.83104" lon="2.30585">
        <ele>878</ele>
        <time>2024-10-24T13:29:33.000Z</time>
      </trkpt>
      <trkpt lat="42.83113" lon="2.30624">
        <ele>874.79998779297</ele>
        <time>2024-10-24T13:29:38.000Z</time>
      </trkpt>
      <trkpt lat="42.83119" lon="2.30653">
        <ele>871.20001220703</ele>
        <time>2024-10-24T13:29:42.000Z</time>
      </trkpt>
      <trkpt lat="42.83121" lon="2.30667">
        <ele>869.59997558594</ele>
        <time>2024-10-24T13:29:44.000Z</time>
      </trkpt>
      <trkpt lat="42.83123" lon="2.30683">
        <ele>868.40002441406</ele>
        <time>2024-10-24T13:29:46.000Z</time>
      </trkpt>
      <trkpt lat="42.83122" lon="2.30723">
        <ele>865.20001220703</ele>
        <time>2024-10-24T13:29:51.000Z</time>
      </trkpt>
      <trkpt lat="42.83123" lon="2.30731">
        <ele>865.20001220703</ele>
        <time>2024-10-24T13:29:52.000Z</time>
      </trkpt>
      <trkpt lat="42.8313" lon="2.30757">
        <ele>865.79998779297</ele>
        <time>2024-10-24T13:29:55.000Z</time>
      </trkpt>
      <trkpt lat="42.83139" lon="2.30776">
        <ele>866.79998779297</ele>
        <time>2024-10-24T13:29:58.000Z</time>
      </trkpt>
      <trkpt lat="42.83142" lon="2.30792">
        <ele>865.79998779297</ele>
        <time>2024-10-24T13:30:00.000Z</time>
      </trkpt>
      <trkpt lat="42.83139" lon="2.30809">
        <ele>864.40002441406</ele>
        <time>2024-10-24T13:30:02.000Z</time>
      </trkpt>
      <trkpt lat="42.83136" lon="2.30817">
        <ele>863.40002441406</ele>
        <time>2024-10-24T13:30:03.000Z</time>
      </trkpt>
      <trkpt lat="42.83131" lon="2.30823">
        <ele>862</ele>
        <time>2024-10-24T13:30:04.000Z</time>
      </trkpt>
      <trkpt lat="42.83116" lon="2.3084">
        <ele>858.20001220703</ele>
        <time>2024-10-24T13:30:07.000Z</time>
      </trkpt>
      <trkpt lat="42.831" lon="2.30871">
        <ele>851.59997558594</ele>
        <time>2024-10-24T13:30:12.000Z</time>
      </trkpt>
      <trkpt lat="42.83096" lon="2.30886">
        <ele>849.40002441406</ele>
        <time>2024-10-24T13:30:14.000Z</time>
      </trkpt>
      <trkpt lat="42.83095" lon="2.30903">
        <ele>847.40002441406</ele>
        <time>2024-10-24T13:30:16.000Z</time>
      </trkpt>
      <trkpt lat="42.83095" lon="2.30931">
        <ele>844.59997558594</ele>
        <time>2024-10-24T13:30:19.000Z</time>
      </trkpt>
      <trkpt lat="42.83097" lon="2.3094">
        <ele>844</ele>
        <time>2024-10-24T13:30:20.000Z</time>
      </trkpt>
      <trkpt lat="42.83111" lon="2.30991">
        <ele>843</ele>
        <time>2024-10-24T13:30:26.000Z</time>
      </trkpt>
      <trkpt lat="42.83115" lon="2.31018">
        <ele>843.79998779297</ele>
        <time>2024-10-24T13:30:29.000Z</time>
      </trkpt>
      <trkpt lat="42.83115" lon="2.31026">
        <ele>843.59997558594</ele>
        <time>2024-10-24T13:30:30.000Z</time>
      </trkpt>
      <trkpt lat="42.83114" lon="2.3105">
        <ele>842.59997558594</ele>
        <time>2024-10-24T13:30:33.000Z</time>
      </trkpt>
      <trkpt lat="42.83111" lon="2.31067">
        <ele>841.20001220703</ele>
        <time>2024-10-24T13:30:35.000Z</time>
      </trkpt>
      <trkpt lat="42.83108" lon="2.31095">
        <ele>839.20001220703</ele>
        <time>2024-10-24T13:30:38.000Z</time>
      </trkpt>
      <trkpt lat="42.83108" lon="2.31104">
        <ele>839.20001220703</ele>
        <time>2024-10-24T13:30:39.000Z</time>
      </trkpt>
      <trkpt lat="42.83107" lon="2.31121">
        <ele>838.40002441406</ele>
        <time>2024-10-24T13:30:41.000Z</time>
      </trkpt>
      <trkpt lat="42.83104" lon="2.31138">
        <ele>837.59997558594</ele>
        <time>2024-10-24T13:30:43.000Z</time>
      </trkpt>
      <trkpt lat="42.83099" lon="2.31155">
        <ele>835.79998779297</ele>
        <time>2024-10-24T13:30:45.000Z</time>
      </trkpt>
      <trkpt lat="42.83091" lon="2.31169">
        <ele>833.79998779297</ele>
        <time>2024-10-24T13:30:47.000Z</time>
      </trkpt>
      <trkpt lat="42.83082" lon="2.3118">
        <ele>832.79998779297</ele>
        <time>2024-10-24T13:30:49.000Z</time>
      </trkpt>
      <trkpt lat="42.83074" lon="2.3119">
        <ele>831.40002441406</ele>
        <time>2024-10-24T13:30:51.000Z</time>
      </trkpt>
      <trkpt lat="42.83062" lon="2.31207">
        <ele>829.59997558594</ele>
        <time>2024-10-24T13:30:54.000Z</time>
      </trkpt>
      <trkpt lat="42.83057" lon="2.31219">
        <ele>829.40002441406</ele>
        <time>2024-10-24T13:30:56.000Z</time>
      </trkpt>
      <trkpt lat="42.83055" lon="2.31226">
        <ele>830</ele>
        <time>2024-10-24T13:30:57.000Z</time>
      </trkpt>
      <trkpt lat="42.83054" lon="2.31234">
        <ele>830.59997558594</ele>
        <time>2024-10-24T13:30:58.000Z</time>
      </trkpt>
      <trkpt lat="42.83051" lon="2.31267">
        <ele>829.59997558594</ele>
        <time>2024-10-24T13:31:02.000Z</time>
      </trkpt>
      <trkpt lat="42.83052" lon="2.31291">
        <ele>826.79998779297</ele>
        <time>2024-10-24T13:31:05.000Z</time>
      </trkpt>
      <trkpt lat="42.83053" lon="2.31298">
        <ele>826.20001220703</ele>
        <time>2024-10-24T13:31:06.000Z</time>
      </trkpt>
      <trkpt lat="42.83054" lon="2.31306">
        <ele>825.79998779297</ele>
        <time>2024-10-24T13:31:07.000Z</time>
      </trkpt>
      <trkpt lat="42.83054" lon="2.31332">
        <ele>823.59997558594</ele>
        <time>2024-10-24T13:31:10.000Z</time>
      </trkpt>
      <trkpt lat="42.83048" lon="2.31372">
        <ele>820.20001220703</ele>
        <time>2024-10-24T13:31:15.000Z</time>
      </trkpt>
      <trkpt lat="42.83043" lon="2.31385">
        <ele>818.40002441406</ele>
        <time>2024-10-24T13:31:17.000Z</time>
      </trkpt>
      <trkpt lat="42.8304" lon="2.314">
        <ele>817.59997558594</ele>
        <time>2024-10-24T13:31:19.000Z</time>
      </trkpt>
      <trkpt lat="42.83042" lon="2.31429">
        <ele>817</ele>
        <time>2024-10-24T13:31:23.000Z</time>
      </trkpt>
      <trkpt lat="42.83053" lon="2.31477">
        <ele>816</ele>
        <time>2024-10-24T13:31:29.000Z</time>
      </trkpt>
      <trkpt lat="42.83056" lon="2.31507">
        <ele>815.20001220703</ele>
        <time>2024-10-24T13:31:33.000Z</time>
      </trkpt>
      <trkpt lat="42.83056" lon="2.31514">
        <ele>815</ele>
        <time>2024-10-24T13:31:34.000Z</time>
      </trkpt>
      <trkpt lat="42.83055" lon="2.31534">
        <ele>815</ele>
        <time>2024-10-24T13:31:37.000Z</time>
      </trkpt>
      <trkpt lat="42.83056" lon="2.31554">
        <ele>814.79998779297</ele>
        <time>2024-10-24T13:31:40.000Z</time>
      </trkpt>
      <trkpt lat="42.83057" lon="2.3156">
        <ele>814.79998779297</ele>
        <time>2024-10-24T13:31:41.000Z</time>
      </trkpt>
      <trkpt lat="42.83058" lon="2.3158">
        <ele>815.59997558594</ele>
        <time>2024-10-24T13:31:44.000Z</time>
      </trkpt>
      <trkpt lat="42.83062" lon="2.31592">
        <ele>816.40002441406</ele>
        <time>2024-10-24T13:31:46.000Z</time>
      </trkpt>
      <trkpt lat="42.83068" lon="2.31603">
        <ele>817.20001220703</ele>
        <time>2024-10-24T13:31:48.000Z</time>
      </trkpt>
      <trkpt lat="42.83075" lon="2.31612">
        <ele>817.79998779297</ele>
        <time>2024-10-24T13:31:50.000Z</time>
      </trkpt>
      <trkpt lat="42.83078" lon="2.31617">
        <ele>818</ele>
        <time>2024-10-24T13:31:51.000Z</time>
      </trkpt>
      <trkpt lat="42.83081" lon="2.31621">
        <ele>818.20001220703</ele>
        <time>2024-10-24T13:31:52.000Z</time>
      </trkpt>
      <trkpt lat="42.83095" lon="2.31634">
        <ele>819.20001220703</ele>
        <time>2024-10-24T13:31:56.000Z</time>
      </trkpt>
      <trkpt lat="42.83116" lon="2.31658">
        <ele>819</ele>
        <time>2024-10-24T13:32:02.000Z</time>
      </trkpt>
      <trkpt lat="42.83124" lon="2.31664">
        <ele>818.59997558594</ele>
        <time>2024-10-24T13:32:04.000Z</time>
      </trkpt>
      <trkpt lat="42.83132" lon="2.31671">
        <ele>817.59997558594</ele>
        <time>2024-10-24T13:32:06.000Z</time>
      </trkpt>
      <trkpt lat="42.83148" lon="2.3169">
        <ele>815</ele>
        <time>2024-10-24T13:32:10.000Z</time>
      </trkpt>
      <trkpt lat="42.83152" lon="2.31696">
        <ele>815</ele>
        <time>2024-10-24T13:32:11.000Z</time>
      </trkpt>
      <trkpt lat="42.83158" lon="2.31708">
        <ele>815</ele>
        <time>2024-10-24T13:32:13.000Z</time>
      </trkpt>
      <trkpt lat="42.83162" lon="2.31723">
        <ele>815.20001220703</ele>
        <time>2024-10-24T13:32:15.000Z</time>
      </trkpt>
      <trkpt lat="42.83168" lon="2.31752">
        <ele>815.20001220703</ele>
        <time>2024-10-24T13:32:19.000Z</time>
      </trkpt>
      <trkpt lat="42.83171" lon="2.3176">
        <ele>814.79998779297</ele>
        <time>2024-10-24T13:32:20.000Z</time>
      </trkpt>
      <trkpt lat="42.83184" lon="2.31778">
        <ele>812.79998779297</ele>
        <time>2024-10-24T13:32:23.000Z</time>
      </trkpt>
      <trkpt lat="42.83188" lon="2.31784">
        <ele>812.20001220703</ele>
        <time>2024-10-24T13:32:24.000Z</time>
      </trkpt>
      <trkpt lat="42.83203" lon="2.318">
        <ele>810</ele>
        <time>2024-10-24T13:32:27.000Z</time>
      </trkpt>
      <trkpt lat="42.83208" lon="2.31805">
        <ele>809.40002441406</ele>
        <time>2024-10-24T13:32:28.000Z</time>
      </trkpt>
      <trkpt lat="42.83221" lon="2.31824">
        <ele>807.59997558594</ele>
        <time>2024-10-24T13:32:31.000Z</time>
      </trkpt>
      <trkpt lat="42.83228" lon="2.31837">
        <ele>806.20001220703</ele>
        <time>2024-10-24T13:32:33.000Z</time>
      </trkpt>
      <trkpt lat="42.83241" lon="2.31856">
        <ele>803.59997558594</ele>
        <time>2024-10-24T13:32:36.000Z</time>
      </trkpt>
      <trkpt lat="42.83249" lon="2.3187">
        <ele>802</ele>
        <time>2024-10-24T13:32:38.000Z</time>
      </trkpt>
      <trkpt lat="42.83261" lon="2.31888">
        <ele>800</ele>
        <time>2024-10-24T13:32:41.000Z</time>
      </trkpt>
      <trkpt lat="42.83264" lon="2.31894">
        <ele>799.79998779297</ele>
        <time>2024-10-24T13:32:42.000Z</time>
      </trkpt>
      <trkpt lat="42.83267" lon="2.31901">
        <ele>799.79998779297</ele>
        <time>2024-10-24T13:32:43.000Z</time>
      </trkpt>
      <trkpt lat="42.83273" lon="2.31925">
        <ele>799</ele>
        <time>2024-10-24T13:32:46.000Z</time>
      </trkpt>
      <trkpt lat="42.83282" lon="2.31965">
        <ele>797</ele>
        <time>2024-10-24T13:32:51.000Z</time>
      </trkpt>
      <trkpt lat="42.83289" lon="2.31995">
        <ele>792.79998779297</ele>
        <time>2024-10-24T13:32:55.000Z</time>
      </trkpt>
      <trkpt lat="42.83292" lon="2.3201">
        <ele>791.20001220703</ele>
        <time>2024-10-24T13:32:57.000Z</time>
      </trkpt>
      <trkpt lat="42.83294" lon="2.32018">
        <ele>790.20001220703</ele>
        <time>2024-10-24T13:32:58.000Z</time>
      </trkpt>
      <trkpt lat="42.83297" lon="2.32034">
        <ele>788.79998779297</ele>
        <time>2024-10-24T13:33:00.000Z</time>
      </trkpt>
      <trkpt lat="42.83299" lon="2.32042">
        <ele>788.40002441406</ele>
        <time>2024-10-24T13:33:01.000Z</time>
      </trkpt>
      <trkpt lat="42.83305" lon="2.32074">
        <ele>787</ele>
        <time>2024-10-24T13:33:05.000Z</time>
      </trkpt>
      <trkpt lat="42.8331" lon="2.32106">
        <ele>783.59997558594</ele>
        <time>2024-10-24T13:33:09.000Z</time>
      </trkpt>
      <trkpt lat="42.83317" lon="2.32155">
        <ele>780.40002441406</ele>
        <time>2024-10-24T13:33:15.000Z</time>
      </trkpt>
      <trkpt lat="42.83318" lon="2.32165">
        <ele>780.59997558594</ele>
        <time>2024-10-24T13:33:16.000Z</time>
      </trkpt>
      <trkpt lat="42.83317" lon="2.32194">
        <ele>778.79998779297</ele>
        <time>2024-10-24T13:33:19.000Z</time>
      </trkpt>
      <trkpt lat="42.83311" lon="2.32244">
        <ele>779</ele>
        <time>2024-10-24T13:33:24.000Z</time>
      </trkpt>
      <trkpt lat="42.8331" lon="2.32283">
        <ele>777.59997558594</ele>
        <time>2024-10-24T13:33:28.000Z</time>
      </trkpt>
      <trkpt lat="42.83311" lon="2.32292">
        <ele>777</ele>
        <time>2024-10-24T13:33:29.000Z</time>
      </trkpt>
      <trkpt lat="42.83315" lon="2.32309">
        <ele>775.40002441406</ele>
        <time>2024-10-24T13:33:31.000Z</time>
      </trkpt>
      <trkpt lat="42.83325" lon="2.32333">
        <ele>772.40002441406</ele>
        <time>2024-10-24T13:33:34.000Z</time>
      </trkpt>
      <trkpt lat="42.83328" lon="2.32341">
        <ele>771.20001220703</ele>
        <time>2024-10-24T13:33:35.000Z</time>
      </trkpt>
      <trkpt lat="42.83336" lon="2.32351">
        <ele>769.40002441406</ele>
        <time>2024-10-24T13:33:37.000Z</time>
      </trkpt>
      <trkpt lat="42.83347" lon="2.32355">
        <ele>767.59997558594</ele>
        <time>2024-10-24T13:33:39.000Z</time>
      </trkpt>
      <trkpt lat="42.83352" lon="2.32354">
        <ele>767.20001220703</ele>
        <time>2024-10-24T13:33:40.000Z</time>
      </trkpt>
      <trkpt lat="42.83357" lon="2.32352">
        <ele>766.79998779297</ele>
        <time>2024-10-24T13:33:41.000Z</time>
      </trkpt>
      <trkpt lat="42.83372" lon="2.3234">
        <ele>765</ele>
        <time>2024-10-24T13:33:44.000Z</time>
      </trkpt>
      <trkpt lat="42.83381" lon="2.32332">
        <ele>764.79998779297</ele>
        <time>2024-10-24T13:33:46.000Z</time>
      </trkpt>
      <trkpt lat="42.83395" lon="2.3232">
        <ele>763.79998779297</ele>
        <time>2024-10-24T13:33:49.000Z</time>
      </trkpt>
      <trkpt lat="42.83423" lon="2.32296">
        <ele>762.79998779297</ele>
        <time>2024-10-24T13:33:55.000Z</time>
      </trkpt>
      <trkpt lat="42.83444" lon="2.32276">
        <ele>762.59997558594</ele>
        <time>2024-10-24T13:34:00.000Z</time>
      </trkpt>
      <trkpt lat="42.83464" lon="2.32261">
        <ele>764</ele>
        <time>2024-10-24T13:34:04.000Z</time>
      </trkpt>
      <trkpt lat="42.83473" lon="2.32256">
        <ele>764.20001220703</ele>
        <time>2024-10-24T13:34:06.000Z</time>
      </trkpt>
      <trkpt lat="42.83488" lon="2.32255">
        <ele>763.79998779297</ele>
        <time>2024-10-24T13:34:09.000Z</time>
      </trkpt>
      <trkpt lat="42.83493" lon="2.32256">
        <ele>763.79998779297</ele>
        <time>2024-10-24T13:34:10.000Z</time>
      </trkpt>
      <trkpt lat="42.83506" lon="2.32264">
        <ele>764.40002441406</ele>
        <time>2024-10-24T13:34:13.000Z</time>
      </trkpt>
      <trkpt lat="42.83511" lon="2.32266">
        <ele>764.59997558594</ele>
        <time>2024-10-24T13:34:14.000Z</time>
      </trkpt>
      <trkpt lat="42.83537" lon="2.32276">
        <ele>767.20001220703</ele>
        <time>2024-10-24T13:34:19.000Z</time>
      </trkpt>
      <trkpt lat="42.83552" lon="2.32283">
        <ele>768</ele>
        <time>2024-10-24T13:34:22.000Z</time>
      </trkpt>
      <trkpt lat="42.83561" lon="2.32289">
        <ele>768.79998779297</ele>
        <time>2024-10-24T13:34:24.000Z</time>
      </trkpt>
      <trkpt lat="42.83573" lon="2.32294">
        <ele>768.40002441406</ele>
        <time>2024-10-24T13:34:27.000Z</time>
      </trkpt>
      <trkpt lat="42.83582" lon="2.32297">
        <ele>767.79998779297</ele>
        <time>2024-10-24T13:34:29.000Z</time>
      </trkpt>
      <trkpt lat="42.83592" lon="2.323">
        <ele>767</ele>
        <time>2024-10-24T13:34:31.000Z</time>
      </trkpt>
      <trkpt lat="42.83598" lon="2.32301">
        <ele>766.59997558594</ele>
        <time>2024-10-24T13:34:32.000Z</time>
      </trkpt>
      <trkpt lat="42.83614" lon="2.323">
        <ele>765.40002441406</ele>
        <time>2024-10-24T13:34:35.000Z</time>
      </trkpt>
      <trkpt lat="42.83632" lon="2.32293">
        <ele>763.59997558594</ele>
        <time>2024-10-24T13:34:39.000Z</time>
      </trkpt>
      <trkpt lat="42.83642" lon="2.32287">
        <ele>762.59997558594</ele>
        <time>2024-10-24T13:34:42.000Z</time>
      </trkpt>
      <trkpt lat="42.83651" lon="2.32286">
        <ele>761.59997558594</ele>
        <time>2024-10-24T13:34:44.000Z</time>
      </trkpt>
      <trkpt lat="42.83659" lon="2.32288">
        <ele>759.79998779297</ele>
        <time>2024-10-24T13:34:46.000Z</time>
      </trkpt>
      <trkpt lat="42.83671" lon="2.32294">
        <ele>756.79998779297</ele>
        <time>2024-10-24T13:34:48.000Z</time>
      </trkpt>
      <trkpt lat="42.83682" lon="2.32303">
        <ele>753.79998779297</ele>
        <time>2024-10-24T13:34:50.000Z</time>
      </trkpt>
      <trkpt lat="42.83696" lon="2.32326">
        <ele>748</ele>
        <time>2024-10-24T13:34:55.000Z</time>
      </trkpt>
      <trkpt lat="42.83705" lon="2.32338">
        <ele>746.20001220703</ele>
        <time>2024-10-24T13:34:59.000Z</time>
      </trkpt>
      <trkpt lat="42.83717" lon="2.32338">
        <ele>745</ele>
        <time>2024-10-24T13:35:04.000Z</time>
      </trkpt>
      <trkpt lat="42.83733" lon="2.32336">
        <ele>745.79998779297</ele>
        <time>2024-10-24T13:35:08.000Z</time>
      </trkpt>
      <trkpt lat="42.83737" lon="2.32335">
        <ele>745.59997558594</ele>
        <time>2024-10-24T13:35:09.000Z</time>
      </trkpt>
      <trkpt lat="42.83757" lon="2.32328">
        <ele>746.20001220703</ele>
        <time>2024-10-24T13:35:14.000Z</time>
      </trkpt>
      <trkpt lat="42.83765" lon="2.32322">
        <ele>747.20001220703</ele>
        <time>2024-10-24T13:35:16.000Z</time>
      </trkpt>
      <trkpt lat="42.83779" lon="2.32314">
        <ele>747.59997558594</ele>
        <time>2024-10-24T13:35:19.000Z</time>
      </trkpt>
      <trkpt lat="42.83788" lon="2.3231">
        <ele>748.20001220703</ele>
        <time>2024-10-24T13:35:21.000Z</time>
      </trkpt>
      <trkpt lat="42.83797" lon="2.32308">
        <ele>748.20001220703</ele>
        <time>2024-10-24T13:35:23.000Z</time>
      </trkpt>
      <trkpt lat="42.83818" lon="2.32302">
        <ele>747.20001220703</ele>
        <time>2024-10-24T13:35:28.000Z</time>
      </trkpt>
      <trkpt lat="42.83836" lon="2.32288">
        <ele>748.40002441406</ele>
        <time>2024-10-24T13:35:33.000Z</time>
      </trkpt>
      <trkpt lat="42.83853" lon="2.32271">
        <ele>748.40002441406</ele>
        <time>2024-10-24T13:35:38.000Z</time>
      </trkpt>
      <trkpt lat="42.83857" lon="2.32267">
        <ele>748.59997558594</ele>
        <time>2024-10-24T13:35:39.000Z</time>
      </trkpt>
      <trkpt lat="42.83867" lon="2.32257">
        <ele>748.20001220703</ele>
        <time>2024-10-24T13:35:42.000Z</time>
      </trkpt>
      <trkpt lat="42.83878" lon="2.32243">
        <ele>748.40002441406</ele>
        <time>2024-10-24T13:35:46.000Z</time>
      </trkpt>
      <trkpt lat="42.83891" lon="2.32227">
        <ele>749.79998779297</ele>
        <time>2024-10-24T13:35:51.000Z</time>
      </trkpt>
      <trkpt lat="42.83897" lon="2.32221">
        <ele>749.79998779297</ele>
        <time>2024-10-24T13:35:53.000Z</time>
      </trkpt>
      <trkpt lat="42.839" lon="2.32218">
        <ele>749.59997558594</ele>
        <time>2024-10-24T13:35:54.000Z</time>
      </trkpt>
      <trkpt lat="42.83912" lon="2.32198">
        <ele>751.79998779297</ele>
        <time>2024-10-24T13:35:59.000Z</time>
      </trkpt>
      <trkpt lat="42.83921" lon="2.32178">
        <ele>753.40002441406</ele>
        <time>2024-10-24T13:36:04.000Z</time>
      </trkpt>
      <trkpt lat="42.83924" lon="2.32171">
        <ele>754</ele>
        <time>2024-10-24T13:36:06.000Z</time>
      </trkpt>
      <trkpt lat="42.83927" lon="2.32164">
        <ele>754.20001220703</ele>
        <time>2024-10-24T13:36:08.000Z</time>
      </trkpt>
      <trkpt lat="42.83934" lon="2.32152">
        <ele>755.59997558594</ele>
        <time>2024-10-24T13:36:12.000Z</time>
      </trkpt>
      <trkpt lat="42.8394" lon="2.3214">
        <ele>756.40002441406</ele>
        <time>2024-10-24T13:36:16.000Z</time>
      </trkpt>
      <trkpt lat="42.83945" lon="2.32128">
        <ele>757</ele>
        <time>2024-10-24T13:36:21.000Z</time>
      </trkpt>
      <trkpt lat="42.8395" lon="2.32121">
        <ele>757.79998779297</ele>
        <time>2024-10-24T13:36:23.000Z</time>
      </trkpt>
      <trkpt lat="42.83953" lon="2.32118">
        <ele>758</ele>
        <time>2024-10-24T13:36:24.000Z</time>
      </trkpt>
      <trkpt lat="42.83973" lon="2.32101">
        <ele>754.20001220703</ele>
        <time>2024-10-24T13:36:29.000Z</time>
      </trkpt>
      <trkpt lat="42.83992" lon="2.32078">
        <ele>753.59997558594</ele>
        <time>2024-10-24T13:36:35.000Z</time>
      </trkpt>
      <trkpt lat="42.84007" lon="2.32056">
        <ele>751.40002441406</ele>
        <time>2024-10-24T13:36:40.000Z</time>
      </trkpt>
      <trkpt lat="42.8401" lon="2.32051">
        <ele>750.79998779297</ele>
        <time>2024-10-24T13:36:41.000Z</time>
      </trkpt>
      <trkpt lat="42.84017" lon="2.32038">
        <ele>749.59997558594</ele>
        <time>2024-10-24T13:36:44.000Z</time>
      </trkpt>
      <trkpt lat="42.84024" lon="2.32019">
        <ele>752</ele>
        <time>2024-10-24T13:36:49.000Z</time>
      </trkpt>
      <trkpt lat="42.84028" lon="2.32007">
        <ele>754.40002441406</ele>
        <time>2024-10-24T13:36:52.000Z</time>
      </trkpt>
      <trkpt lat="42.8403" lon="2.32003">
        <ele>755.20001220703</ele>
        <time>2024-10-24T13:36:53.000Z</time>
      </trkpt>
      <trkpt lat="42.84038" lon="2.31981">
        <ele>758.59997558594</ele>
        <time>2024-10-24T13:36:58.000Z</time>
      </trkpt>
      <trkpt lat="42.84042" lon="2.3196">
        <ele>761.20001220703</ele>
        <time>2024-10-24T13:37:03.000Z</time>
      </trkpt>
      <trkpt lat="42.84049" lon="2.31939">
        <ele>759.79998779297</ele>
        <time>2024-10-24T13:37:08.000Z</time>
      </trkpt>
      <trkpt lat="42.8405" lon="2.31922">
        <ele>763.20001220703</ele>
        <time>2024-10-24T13:37:13.000Z</time>
      </trkpt>
      <trkpt lat="42.84053" lon="2.31898">
        <ele>765.20001220703</ele>
        <time>2024-10-24T13:37:19.000Z</time>
      </trkpt>
      <trkpt lat="42.84059" lon="2.31872">
        <ele>766.59997558594</ele>
        <time>2024-10-24T13:37:25.000Z</time>
      </trkpt>
      <trkpt lat="42.84064" lon="2.31851">
        <ele>768</ele>
        <time>2024-10-24T13:37:30.000Z</time>
      </trkpt>
      <trkpt lat="42.84069" lon="2.3183">
        <ele>770.79998779297</ele>
        <time>2024-10-24T13:37:35.000Z</time>
      </trkpt>
      <trkpt lat="42.84072" lon="2.31812">
        <ele>771.79998779297</ele>
        <time>2024-10-24T13:37:39.000Z</time>
      </trkpt>
      <trkpt lat="42.84076" lon="2.3179">
        <ele>773.79998779297</ele>
        <time>2024-10-24T13:37:44.000Z</time>
      </trkpt>
      <trkpt lat="42.84083" lon="2.31764">
        <ele>774.40002441406</ele>
        <time>2024-10-24T13:37:50.000Z</time>
      </trkpt>
      <trkpt lat="42.84086" lon="2.31742">
        <ele>777</ele>
        <time>2024-10-24T13:37:55.000Z</time>
      </trkpt>
      <trkpt lat="42.84095" lon="2.31711">
        <ele>780.20001220703</ele>
        <time>2024-10-24T13:38:02.000Z</time>
      </trkpt>
      <trkpt lat="42.84096" lon="2.31688">
        <ele>787.40002441406</ele>
        <time>2024-10-24T13:38:07.000Z</time>
      </trkpt>
      <trkpt lat="42.84106" lon="2.31667">
        <ele>786.40002441406</ele>
        <time>2024-10-24T13:38:12.000Z</time>
      </trkpt>
      <trkpt lat="42.8411" lon="2.31646">
        <ele>786.79998779297</ele>
        <time>2024-10-24T13:38:17.000Z</time>
      </trkpt>
      <trkpt lat="42.84115" lon="2.31626">
        <ele>790</ele>
        <time>2024-10-24T13:38:22.000Z</time>
      </trkpt>
      <trkpt lat="42.84122" lon="2.31599">
        <ele>793.59997558594</ele>
        <time>2024-10-24T13:38:28.000Z</time>
      </trkpt>
      <trkpt lat="42.84126" lon="2.31594">
        <ele>792.59997558594</ele>
        <time>2024-10-24T13:38:29.000Z</time>
      </trkpt>
      <trkpt lat="42.84132" lon="2.31581">
        <ele>792.40002441406</ele>
        <time>2024-10-24T13:38:32.000Z</time>
      </trkpt>
      <trkpt lat="42.84136" lon="2.31561">
        <ele>795.40002441406</ele>
        <time>2024-10-24T13:38:37.000Z</time>
      </trkpt>
      <trkpt lat="42.84144" lon="2.31542">
        <ele>795.20001220703</ele>
        <time>2024-10-24T13:38:42.000Z</time>
      </trkpt>
      <trkpt lat="42.84147" lon="2.31518">
        <ele>798.59997558594</ele>
        <time>2024-10-24T13:38:47.000Z</time>
      </trkpt>
      <trkpt lat="42.84147" lon="2.31513">
        <ele>799</ele>
        <time>2024-10-24T13:38:48.000Z</time>
      </trkpt>
      <trkpt lat="42.84157" lon="2.31503">
        <ele>794.40002441406</ele>
        <time>2024-10-24T13:38:50.000Z</time>
      </trkpt>
      <trkpt lat="42.84164" lon="2.31485">
        <ele>794</ele>
        <time>2024-10-24T13:38:54.000Z</time>
      </trkpt>
      <trkpt lat="42.84168" lon="2.31472">
        <ele>795.20001220703</ele>
        <time>2024-10-24T13:38:57.000Z</time>
      </trkpt>
      <trkpt lat="42.84171" lon="2.31469">
        <ele>795</ele>
        <time>2024-10-24T13:38:58.000Z</time>
      </trkpt>
      <trkpt lat="42.84177" lon="2.31437">
        <ele>799.40002441406</ele>
        <time>2024-10-24T13:39:05.000Z</time>
      </trkpt>
      <trkpt lat="42.84188" lon="2.31413">
        <ele>799.20001220703</ele>
        <time>2024-10-24T13:39:11.000Z</time>
      </trkpt>
      <trkpt lat="42.84192" lon="2.31394">
        <ele>803</ele>
        <time>2024-10-24T13:39:16.000Z</time>
      </trkpt>
      <trkpt lat="42.84198" lon="2.3137">
        <ele>805.59997558594</ele>
        <time>2024-10-24T13:39:22.000Z</time>
      </trkpt>
      <trkpt lat="42.84199" lon="2.31366">
        <ele>805.59997558594</ele>
        <time>2024-10-24T13:39:23.000Z</time>
      </trkpt>
      <trkpt lat="42.84205" lon="2.31353">
        <ele>803.79998779297</ele>
        <time>2024-10-24T13:39:26.000Z</time>
      </trkpt>
      <trkpt lat="42.8421" lon="2.31329">
        <ele>805.20001220703</ele>
        <time>2024-10-24T13:39:32.000Z</time>
      </trkpt>
      <trkpt lat="42.84213" lon="2.3131">
        <ele>805.20001220703</ele>
        <time>2024-10-24T13:39:37.000Z</time>
      </trkpt>
      <trkpt lat="42.84216" lon="2.31287">
        <ele>807.79998779297</ele>
        <time>2024-10-24T13:39:43.000Z</time>
      </trkpt>
      <trkpt lat="42.84216" lon="2.31267">
        <ele>811.79998779297</ele>
        <time>2024-10-24T13:39:48.000Z</time>
      </trkpt>
      <trkpt lat="42.84215" lon="2.31243">
        <ele>815.40002441406</ele>
        <time>2024-10-24T13:39:53.000Z</time>
      </trkpt>
      <trkpt lat="42.84215" lon="2.31216">
        <ele>819.20001220703</ele>
        <time>2024-10-24T13:39:59.000Z</time>
      </trkpt>
      <trkpt lat="42.84215" lon="2.31194">
        <ele>819.79998779297</ele>
        <time>2024-10-24T13:40:04.000Z</time>
      </trkpt>
      <trkpt lat="42.84216" lon="2.31176">
        <ele>821.20001220703</ele>
        <time>2024-10-24T13:40:08.000Z</time>
      </trkpt>
      <trkpt lat="42.84219" lon="2.31149">
        <ele>821.79998779297</ele>
        <time>2024-10-24T13:40:14.000Z</time>
      </trkpt>
      <trkpt lat="42.84224" lon="2.31123">
        <ele>821.20001220703</ele>
        <time>2024-10-24T13:40:20.000Z</time>
      </trkpt>
      <trkpt lat="42.84228" lon="2.31097">
        <ele>820</ele>
        <time>2024-10-24T13:40:26.000Z</time>
      </trkpt>
      <trkpt lat="42.84233" lon="2.31071">
        <ele>817.59997558594</ele>
        <time>2024-10-24T13:40:32.000Z</time>
      </trkpt>
      <trkpt lat="42.84238" lon="2.31051">
        <ele>813.20001220703</ele>
        <time>2024-10-24T13:40:37.000Z</time>
      </trkpt>
      <trkpt lat="42.8424" lon="2.31043">
        <ele>813</ele>
        <time>2024-10-24T13:40:40.000Z</time>
      </trkpt>
      <trkpt lat="42.8424" lon="2.31041">
        <ele>813.20001220703</ele>
        <time>2024-10-24T13:40:41.000Z</time>
      </trkpt>
      <trkpt lat="42.8424" lon="2.31039">
        <ele>813.20001220703</ele>
        <time>2024-10-24T13:40:42.000Z</time>
      </trkpt>
      <trkpt lat="42.84242" lon="2.31033">
        <ele>812.79998779297</ele>
        <time>2024-10-24T13:40:44.000Z</time>
      </trkpt>
      <trkpt lat="42.84242" lon="2.3103">
        <ele>812.79998779297</ele>
        <time>2024-10-24T13:40:45.000Z</time>
      </trkpt>
      <trkpt lat="42.84248" lon="2.31016">
        <ele>811.40002441406</ele>
        <time>2024-10-24T13:40:50.000Z</time>
      </trkpt>
      <trkpt lat="42.84251" lon="2.3101">
        <ele>810.40002441406</ele>
        <time>2024-10-24T13:40:53.000Z</time>
      </trkpt>
      <trkpt lat="42.8425" lon="2.31005">
        <ele>811</ele>
        <time>2024-10-24T13:41:02.000Z</time>
      </trkpt>
      <trkpt lat="42.84252" lon="2.31002">
        <ele>810.59997558594</ele>
        <time>2024-10-24T13:41:03.000Z</time>
      </trkpt>
      <trkpt lat="42.84255" lon="2.3099">
        <ele>810.20001220703</ele>
        <time>2024-10-24T13:41:06.000Z</time>
      </trkpt>
      <trkpt lat="42.84256" lon="2.30964">
        <ele>810.40002441406</ele>
        <time>2024-10-24T13:41:12.000Z</time>
      </trkpt>
      <trkpt lat="42.84255" lon="2.30941">
        <ele>813.40002441406</ele>
        <time>2024-10-24T13:41:17.000Z</time>
      </trkpt>
      <trkpt lat="42.84258" lon="2.30904">
        <ele>816.20001220703</ele>
        <time>2024-10-24T13:41:25.000Z</time>
      </trkpt>
      <trkpt lat="42.8426" lon="2.30895">
        <ele>818</ele>
        <time>2024-10-24T13:41:27.000Z</time>
      </trkpt>
      <trkpt lat="42.84261" lon="2.30891">
        <ele>819.20001220703</ele>
        <time>2024-10-24T13:41:28.000Z</time>
      </trkpt>
      <trkpt lat="42.84263" lon="2.30882">
        <ele>820.59997558594</ele>
        <time>2024-10-24T13:41:30.000Z</time>
      </trkpt>
      <trkpt lat="42.84269" lon="2.30873">
        <ele>820</ele>
        <time>2024-10-24T13:41:32.000Z</time>
      </trkpt>
      <trkpt lat="42.84275" lon="2.30865">
        <ele>818.79998779297</ele>
        <time>2024-10-24T13:41:34.000Z</time>
      </trkpt>
      <trkpt lat="42.84281" lon="2.30856">
        <ele>817.40002441406</ele>
        <time>2024-10-24T13:41:36.000Z</time>
      </trkpt>
      <trkpt lat="42.84289" lon="2.30848">
        <ele>813.59997558594</ele>
        <time>2024-10-24T13:41:38.000Z</time>
      </trkpt>
      <trkpt lat="42.84296" lon="2.30839">
        <ele>811</ele>
        <time>2024-10-24T13:41:40.000Z</time>
      </trkpt>
      <trkpt lat="42.84298" lon="2.30834">
        <ele>810.40002441406</ele>
        <time>2024-10-24T13:41:41.000Z</time>
      </trkpt>
      <trkpt lat="42.84299" lon="2.30829">
        <ele>810.20001220703</ele>
        <time>2024-10-24T13:41:42.000Z</time>
      </trkpt>
      <trkpt lat="42.84297" lon="2.30808">
        <ele>812</ele>
        <time>2024-10-24T13:41:46.000Z</time>
      </trkpt>
      <trkpt lat="42.84292" lon="2.30783">
        <ele>815.79998779297</ele>
        <time>2024-10-24T13:41:51.000Z</time>
      </trkpt>
      <trkpt lat="42.84294" lon="2.30756">
        <ele>819.79998779297</ele>
        <time>2024-10-24T13:41:56.000Z</time>
      </trkpt>
      <trkpt lat="42.84295" lon="2.30734">
        <ele>822.20001220703</ele>
        <time>2024-10-24T13:42:00.000Z</time>
      </trkpt>
      <trkpt lat="42.84297" lon="2.30725">
        <ele>823</ele>
        <time>2024-10-24T13:42:02.000Z</time>
      </trkpt>
      <trkpt lat="42.84301" lon="2.30695">
        <ele>824</ele>
        <time>2024-10-24T13:42:08.000Z</time>
      </trkpt>
      <trkpt lat="42.84303" lon="2.3069">
        <ele>823</ele>
        <time>2024-10-24T13:42:09.000Z</time>
      </trkpt>
      <trkpt lat="42.84306" lon="2.30681">
        <ele>821.20001220703</ele>
        <time>2024-10-24T13:42:11.000Z</time>
      </trkpt>
      <trkpt lat="42.84307" lon="2.3067">
        <ele>823.40002441406</ele>
        <time>2024-10-24T13:42:13.000Z</time>
      </trkpt>
      <trkpt lat="42.84306" lon="2.30664">
        <ele>826</ele>
        <time>2024-10-24T13:42:14.000Z</time>
      </trkpt>
      <trkpt lat="42.84305" lon="2.30654">
        <ele>830</ele>
        <time>2024-10-24T13:42:16.000Z</time>
      </trkpt>
      <trkpt lat="42.84309" lon="2.30646">
        <ele>830</ele>
        <time>2024-10-24T13:42:18.000Z</time>
      </trkpt>
      <trkpt lat="42.84309" lon="2.30642">
        <ele>831.20001220703</ele>
        <time>2024-10-24T13:42:19.000Z</time>
      </trkpt>
      <trkpt lat="42.84313" lon="2.30625">
        <ele>834.59997558594</ele>
        <time>2024-10-24T13:42:23.000Z</time>
      </trkpt>
      <trkpt lat="42.84313" lon="2.30621">
        <ele>835.79998779297</ele>
        <time>2024-10-24T13:42:24.000Z</time>
      </trkpt>
      <trkpt lat="42.84311" lon="2.30605">
        <ele>841</ele>
        <time>2024-10-24T13:42:27.000Z</time>
      </trkpt>
      <trkpt lat="42.84313" lon="2.30576">
        <ele>843.20001220703</ele>
        <time>2024-10-24T13:42:33.000Z</time>
      </trkpt>
      <trkpt lat="42.84318" lon="2.30544">
        <ele>840.59997558594</ele>
        <time>2024-10-24T13:42:40.000Z</time>
      </trkpt>
      <trkpt lat="42.84325" lon="2.30522">
        <ele>837.20001220703</ele>
        <time>2024-10-24T13:42:45.000Z</time>
      </trkpt>
      <trkpt lat="42.84329" lon="2.30504">
        <ele>837.20001220703</ele>
        <time>2024-10-24T13:42:49.000Z</time>
      </trkpt>
      <trkpt lat="42.84337" lon="2.30478">
        <ele>840.59997558594</ele>
        <time>2024-10-24T13:42:55.000Z</time>
      </trkpt>
      <trkpt lat="42.84338" lon="2.30474">
        <ele>841.40002441406</ele>
        <time>2024-10-24T13:42:56.000Z</time>
      </trkpt>
      <trkpt lat="42.84343" lon="2.3046">
        <ele>842.79998779297</ele>
        <time>2024-10-24T13:42:59.000Z</time>
      </trkpt>
      <trkpt lat="42.84349" lon="2.30435">
        <ele>842</ele>
        <time>2024-10-24T13:43:05.000Z</time>
      </trkpt>
      <trkpt lat="42.84354" lon="2.30406">
        <ele>840.20001220703</ele>
        <time>2024-10-24T13:43:12.000Z</time>
      </trkpt>
      <trkpt lat="42.84361" lon="2.30393">
        <ele>838.20001220703</ele>
        <time>2024-10-24T13:43:16.000Z</time>
      </trkpt>
      <trkpt lat="42.84367" lon="2.30382">
        <ele>836.20001220703</ele>
        <time>2024-10-24T13:43:20.000Z</time>
      </trkpt>
      <trkpt lat="42.84369" lon="2.30381">
        <ele>835.79998779297</ele>
        <time>2024-10-24T13:43:21.000Z</time>
      </trkpt>
      <trkpt lat="42.8437" lon="2.30377">
        <ele>835.40002441406</ele>
        <time>2024-10-24T13:43:23.000Z</time>
      </trkpt>
      <trkpt lat="42.84371" lon="2.30371">
        <ele>836</ele>
        <time>2024-10-24T13:43:26.000Z</time>
      </trkpt>
      <trkpt lat="42.8437" lon="2.30359">
        <ele>838.79998779297</ele>
        <time>2024-10-24T13:43:30.000Z</time>
      </trkpt>
      <trkpt lat="42.84367" lon="2.3034">
        <ele>842.79998779297</ele>
        <time>2024-10-24T13:43:36.000Z</time>
      </trkpt>
      <trkpt lat="42.84367" lon="2.30336">
        <ele>842.79998779297</ele>
        <time>2024-10-24T13:43:37.000Z</time>
      </trkpt>
      <trkpt lat="42.84368" lon="2.30325">
        <ele>842</ele>
        <time>2024-10-24T13:43:40.000Z</time>
      </trkpt>
      <trkpt lat="42.8437" lon="2.30317">
        <ele>840.40002441406</ele>
        <time>2024-10-24T13:43:42.000Z</time>
      </trkpt>
      <trkpt lat="42.84374" lon="2.30311">
        <ele>838</ele>
        <time>2024-10-24T13:43:44.000Z</time>
      </trkpt>
      <trkpt lat="42.84378" lon="2.30304">
        <ele>835.40002441406</ele>
        <time>2024-10-24T13:43:46.000Z</time>
      </trkpt>
      <trkpt lat="42.84383" lon="2.30299">
        <ele>831.59997558594</ele>
        <time>2024-10-24T13:43:48.000Z</time>
      </trkpt>
      <trkpt lat="42.84389" lon="2.30284">
        <ele>828.40002441406</ele>
        <time>2024-10-24T13:43:52.000Z</time>
      </trkpt>
      <trkpt lat="42.84391" lon="2.30262">
        <ele>827.79998779297</ele>
        <time>2024-10-24T13:43:57.000Z</time>
      </trkpt>
      <trkpt lat="42.84388" lon="2.30239">
        <ele>829.40002441406</ele>
        <time>2024-10-24T13:44:01.000Z</time>
      </trkpt>
      <trkpt lat="42.8438" lon="2.30213">
        <ele>835.59997558594</ele>
        <time>2024-10-24T13:44:06.000Z</time>
      </trkpt>
      <trkpt lat="42.84377" lon="2.30192">
        <ele>840.79998779297</ele>
        <time>2024-10-24T13:44:11.000Z</time>
      </trkpt>
      <trkpt lat="42.84372" lon="2.30163">
        <ele>849</ele>
        <time>2024-10-24T13:44:17.000Z</time>
      </trkpt>
      <trkpt lat="42.84373" lon="2.3014">
        <ele>845.40002441406</ele>
        <time>2024-10-24T13:44:22.000Z</time>
      </trkpt>
      <trkpt lat="42.84373" lon="2.30136">
        <ele>844.20001220703</ele>
        <time>2024-10-24T13:44:23.000Z</time>
      </trkpt>
      <trkpt lat="42.84376" lon="2.30128">
        <ele>839.79998779297</ele>
        <time>2024-10-24T13:44:25.000Z</time>
      </trkpt>
      <trkpt lat="42.8438" lon="2.30115">
        <ele>832.79998779297</ele>
        <time>2024-10-24T13:44:28.000Z</time>
      </trkpt>
      <trkpt lat="42.84383" lon="2.30111">
        <ele>829.59997558594</ele>
        <time>2024-10-24T13:44:29.000Z</time>
      </trkpt>
      <trkpt lat="42.8439" lon="2.30094">
        <ele>822.40002441406</ele>
        <time>2024-10-24T13:44:33.000Z</time>
      </trkpt>
      <trkpt lat="42.84387" lon="2.30072">
        <ele>825.59997558594</ele>
        <time>2024-10-24T13:44:37.000Z</time>
      </trkpt>
      <trkpt lat="42.84383" lon="2.30052">
        <ele>829.59997558594</ele>
        <time>2024-10-24T13:44:41.000Z</time>
      </trkpt>
      <trkpt lat="42.84383" lon="2.30035">
        <ele>828.59997558594</ele>
        <time>2024-10-24T13:44:45.000Z</time>
      </trkpt>
      <trkpt lat="42.84384" lon="2.30019">
        <ele>827.20001220703</ele>
        <time>2024-10-24T13:44:49.000Z</time>
      </trkpt>
      <trkpt lat="42.84381" lon="2.30001">
        <ele>826.59997558594</ele>
        <time>2024-10-24T13:44:54.000Z</time>
      </trkpt>
      <trkpt lat="42.84377" lon="2.29984">
        <ele>827.59997558594</ele>
        <time>2024-10-24T13:44:59.000Z</time>
      </trkpt>
      <trkpt lat="42.84375" lon="2.29969">
        <ele>826</ele>
        <time>2024-10-24T13:45:03.000Z</time>
      </trkpt>
      <trkpt lat="42.84373" lon="2.29949">
        <ele>826.20001220703</ele>
        <time>2024-10-24T13:45:08.000Z</time>
      </trkpt>
      <trkpt lat="42.84368" lon="2.29923">
        <ele>827.79998779297</ele>
        <time>2024-10-24T13:45:13.000Z</time>
      </trkpt>
      <trkpt lat="42.84363" lon="2.29895">
        <ele>826.20001220703</ele>
        <time>2024-10-24T13:45:18.000Z</time>
      </trkpt>
      <trkpt lat="42.84361" lon="2.29883">
        <ele>823.79998779297</ele>
        <time>2024-10-24T13:45:20.000Z</time>
      </trkpt>
      <trkpt lat="42.84359" lon="2.29859">
        <ele>820</ele>
        <time>2024-10-24T13:45:24.000Z</time>
      </trkpt>
      <trkpt lat="42.84353" lon="2.29839">
        <ele>822.40002441406</ele>
        <time>2024-10-24T13:45:28.000Z</time>
      </trkpt>
      <trkpt lat="42.84348" lon="2.29812">
        <ele>822</ele>
        <time>2024-10-24T13:45:34.000Z</time>
      </trkpt>
      <trkpt lat="42.84344" lon="2.29777">
        <ele>819.79998779297</ele>
        <time>2024-10-24T13:45:41.000Z</time>
      </trkpt>
      <trkpt lat="42.84338" lon="2.29749">
        <ele>818</ele>
        <time>2024-10-24T13:45:47.000Z</time>
      </trkpt>
      <trkpt lat="42.84335" lon="2.29729">
        <ele>816.20001220703</ele>
        <time>2024-10-24T13:45:53.000Z</time>
      </trkpt>
      <trkpt lat="42.84334" lon="2.29722">
        <ele>815.79998779297</ele>
        <time>2024-10-24T13:45:55.000Z</time>
      </trkpt>
      <trkpt lat="42.84334" lon="2.29715">
        <ele>814.20001220703</ele>
        <time>2024-10-24T13:45:57.000Z</time>
      </trkpt>
      <trkpt lat="42.84333" lon="2.29707">
        <ele>814.59997558594</ele>
        <time>2024-10-24T13:45:59.000Z</time>
      </trkpt>
      <trkpt lat="42.84334" lon="2.29701">
        <ele>813</ele>
        <time>2024-10-24T13:46:01.000Z</time>
      </trkpt>
      <trkpt lat="42.84336" lon="2.29695">
        <ele>810.79998779297</ele>
        <time>2024-10-24T13:46:03.000Z</time>
      </trkpt>
      <trkpt lat="42.84334" lon="2.29691">
        <ele>812.40002441406</ele>
        <time>2024-10-24T13:46:04.000Z</time>
      </trkpt>
      <trkpt lat="42.84331" lon="2.29675">
        <ele>814.59997558594</ele>
        <time>2024-10-24T13:46:08.000Z</time>
      </trkpt>
      <trkpt lat="42.84331" lon="2.29672">
        <ele>814.79998779297</ele>
        <time>2024-10-24T13:46:09.000Z</time>
      </trkpt>
      <trkpt lat="42.84329" lon="2.29656">
        <ele>816.20001220703</ele>
        <time>2024-10-24T13:46:13.000Z</time>
      </trkpt>
      <trkpt lat="42.84327" lon="2.29647">
        <ele>817.79998779297</ele>
        <time>2024-10-24T13:46:15.000Z</time>
      </trkpt>
      <trkpt lat="42.84326" lon="2.29643">
        <ele>818.20001220703</ele>
        <time>2024-10-24T13:46:16.000Z</time>
      </trkpt>
      <trkpt lat="42.84323" lon="2.29635">
        <ele>819.59997558594</ele>
        <time>2024-10-24T13:46:18.000Z</time>
      </trkpt>
      <trkpt lat="42.84319" lon="2.29627">
        <ele>821</ele>
        <time>2024-10-24T13:46:20.000Z</time>
      </trkpt>
      <trkpt lat="42.84318" lon="2.29625">
        <ele>821.40002441406</ele>
        <time>2024-10-24T13:46:21.000Z</time>
      </trkpt>
      <trkpt lat="42.84314" lon="2.29614">
        <ele>821.20001220703</ele>
        <time>2024-10-24T13:46:24.000Z</time>
      </trkpt>
      <trkpt lat="42.84311" lon="2.29593">
        <ele>819</ele>
        <time>2024-10-24T13:46:29.000Z</time>
      </trkpt>
      <trkpt lat="42.84306" lon="2.29578">
        <ele>820.40002441406</ele>
        <time>2024-10-24T13:46:33.000Z</time>
      </trkpt>
      <trkpt lat="42.84306" lon="2.29575">
        <ele>820</ele>
        <time>2024-10-24T13:46:34.000Z</time>
      </trkpt>
      <trkpt lat="42.84301" lon="2.29566">
        <ele>821.79998779297</ele>
        <time>2024-10-24T13:46:36.000Z</time>
      </trkpt>
      <trkpt lat="42.84298" lon="2.29558">
        <ele>822.40002441406</ele>
        <time>2024-10-24T13:46:38.000Z</time>
      </trkpt>
      <trkpt lat="42.84296" lon="2.2955">
        <ele>822.59997558594</ele>
        <time>2024-10-24T13:46:40.000Z</time>
      </trkpt>
      <trkpt lat="42.84291" lon="2.29527">
        <ele>822.40002441406</ele>
        <time>2024-10-24T13:46:45.000Z</time>
      </trkpt>
      <trkpt lat="42.84283" lon="2.29496">
        <ele>823.79998779297</ele>
        <time>2024-10-24T13:46:51.000Z</time>
      </trkpt>
      <trkpt lat="42.84283" lon="2.29492">
        <ele>823</ele>
        <time>2024-10-24T13:46:52.000Z</time>
      </trkpt>
      <trkpt lat="42.84282" lon="2.29483">
        <ele>822.59997558594</ele>
        <time>2024-10-24T13:46:54.000Z</time>
      </trkpt>
      <trkpt lat="42.84279" lon="2.29459">
        <ele>821.59997558594</ele>
        <time>2024-10-24T13:46:59.000Z</time>
      </trkpt>
      <trkpt lat="42.84276" lon="2.29441">
        <ele>822</ele>
        <time>2024-10-24T13:47:03.000Z</time>
      </trkpt>
      <trkpt lat="42.84272" lon="2.29421">
        <ele>824.40002441406</ele>
        <time>2024-10-24T13:47:07.000Z</time>
      </trkpt>
      <trkpt lat="42.84269" lon="2.29397">
        <ele>825</ele>
        <time>2024-10-24T13:47:12.000Z</time>
      </trkpt>
      <trkpt lat="42.84263" lon="2.29371">
        <ele>828.79998779297</ele>
        <time>2024-10-24T13:47:18.000Z</time>
      </trkpt>
      <trkpt lat="42.84263" lon="2.29339">
        <ele>829.20001220703</ele>
        <time>2024-10-24T13:47:24.000Z</time>
      </trkpt>
      <trkpt lat="42.84267" lon="2.29309">
        <ele>827</ele>
        <time>2024-10-24T13:47:30.000Z</time>
      </trkpt>
      <trkpt lat="42.84269" lon="2.29281">
        <ele>825.40002441406</ele>
        <time>2024-10-24T13:47:36.000Z</time>
      </trkpt>
      <trkpt lat="42.84271" lon="2.29243">
        <ele>826.40002441406</ele>
        <time>2024-10-24T13:47:44.000Z</time>
      </trkpt>
      <trkpt lat="42.84273" lon="2.29218">
        <ele>826.59997558594</ele>
        <time>2024-10-24T13:47:50.000Z</time>
      </trkpt>
      <trkpt lat="42.84272" lon="2.29189">
        <ele>832.59997558594</ele>
        <time>2024-10-24T13:47:57.000Z</time>
      </trkpt>
      <trkpt lat="42.8426" lon="2.29167">
        <ele>841.79998779297</ele>
        <time>2024-10-24T13:48:03.000Z</time>
      </trkpt>
      <trkpt lat="42.84253" lon="2.29145">
        <ele>846.20001220703</ele>
        <time>2024-10-24T13:48:08.000Z</time>
      </trkpt>
      <trkpt lat="42.84252" lon="2.29129">
        <ele>845.59997558594</ele>
        <time>2024-10-24T13:48:12.000Z</time>
      </trkpt>
      <trkpt lat="42.84252" lon="2.29112">
        <ele>843.79998779297</ele>
        <time>2024-10-24T13:48:16.000Z</time>
      </trkpt>
      <trkpt lat="42.84251" lon="2.29092">
        <ele>843.40002441406</ele>
        <time>2024-10-24T13:48:21.000Z</time>
      </trkpt>
      <trkpt lat="42.84252" lon="2.29071">
        <ele>842.59997558594</ele>
        <time>2024-10-24T13:48:26.000Z</time>
      </trkpt>
      <trkpt lat="42.84256" lon="2.29057">
        <ele>840</ele>
        <time>2024-10-24T13:48:30.000Z</time>
      </trkpt>
      <trkpt lat="42.84255" lon="2.2905">
        <ele>841</ele>
        <time>2024-10-24T13:48:32.000Z</time>
      </trkpt>
      <trkpt lat="42.84259" lon="2.29045">
        <ele>837.79998779297</ele>
        <time>2024-10-24T13:48:34.000Z</time>
      </trkpt>
      <trkpt lat="42.8426" lon="2.29027">
        <ele>836.79998779297</ele>
        <time>2024-10-24T13:48:39.000Z</time>
      </trkpt>
      <trkpt lat="42.8426" lon="2.29007">
        <ele>837.40002441406</ele>
        <time>2024-10-24T13:48:44.000Z</time>
      </trkpt>
      <trkpt lat="42.8426" lon="2.2899">
        <ele>837.59997558594</ele>
        <time>2024-10-24T13:48:48.000Z</time>
      </trkpt>
      <trkpt lat="42.84261" lon="2.28974">
        <ele>837.59997558594</ele>
        <time>2024-10-24T13:48:52.000Z</time>
      </trkpt>
      <trkpt lat="42.84261" lon="2.2897">
        <ele>837.79998779297</ele>
        <time>2024-10-24T13:48:53.000Z</time>
      </trkpt>
      <trkpt lat="42.84261" lon="2.28946">
        <ele>848.20001220703</ele>
        <time>2024-10-24T13:48:59.000Z</time>
      </trkpt>
      <trkpt lat="42.84262" lon="2.28936">
        <ele>849.79998779297</ele>
        <time>2024-10-24T13:49:02.000Z</time>
      </trkpt>
      <trkpt lat="42.84262" lon="2.28933">
        <ele>850.79998779297</ele>
        <time>2024-10-24T13:49:03.000Z</time>
      </trkpt>
      <trkpt lat="42.84263" lon="2.28914">
        <ele>853.79998779297</ele>
        <time>2024-10-24T13:49:08.000Z</time>
      </trkpt>
      <trkpt lat="42.84263" lon="2.28903">
        <ele>851.40002441406</ele>
        <time>2024-10-24T13:49:11.000Z</time>
      </trkpt>
      <trkpt lat="42.84266" lon="2.28897">
        <ele>846.20001220703</ele>
        <time>2024-10-24T13:49:13.000Z</time>
      </trkpt>
      <trkpt lat="42.84268" lon="2.28894">
        <ele>843.20001220703</ele>
        <time>2024-10-24T13:49:14.000Z</time>
      </trkpt>
      <trkpt lat="42.8427" lon="2.28881">
        <ele>840.20001220703</ele>
        <time>2024-10-24T13:49:17.000Z</time>
      </trkpt>
      <trkpt lat="42.84269" lon="2.28858">
        <ele>841.20001220703</ele>
        <time>2024-10-24T13:49:22.000Z</time>
      </trkpt>
      <trkpt lat="42.8427" lon="2.28854">
        <ele>839.59997558594</ele>
        <time>2024-10-24T13:49:23.000Z</time>
      </trkpt>
      <trkpt lat="42.84273" lon="2.28844">
        <ele>839</ele>
        <time>2024-10-24T13:49:25.000Z</time>
      </trkpt>
      <trkpt lat="42.84276" lon="2.28818">
        <ele>840</ele>
        <time>2024-10-24T13:49:30.000Z</time>
      </trkpt>
      <trkpt lat="42.84282" lon="2.28794">
        <ele>840</ele>
        <time>2024-10-24T13:49:35.000Z</time>
      </trkpt>
      <trkpt lat="42.84285" lon="2.28763">
        <ele>842.40002441406</ele>
        <time>2024-10-24T13:49:41.000Z</time>
      </trkpt>
      <trkpt lat="42.84289" lon="2.2872">
        <ele>842.20001220703</ele>
        <time>2024-10-24T13:49:49.000Z</time>
      </trkpt>
      <trkpt lat="42.84295" lon="2.28677">
        <ele>842</ele>
        <time>2024-10-24T13:49:57.000Z</time>
      </trkpt>
      <trkpt lat="42.84297" lon="2.28672">
        <ele>841.20001220703</ele>
        <time>2024-10-24T13:49:58.000Z</time>
      </trkpt>
      <trkpt lat="42.84297" lon="2.28646">
        <ele>841.20001220703</ele>
        <time>2024-10-24T13:50:02.000Z</time>
      </trkpt>
      <trkpt lat="42.84297" lon="2.2864">
        <ele>842</ele>
        <time>2024-10-24T13:50:03.000Z</time>
      </trkpt>
      <trkpt lat="42.84298" lon="2.28605">
        <ele>845.40002441406</ele>
        <time>2024-10-24T13:50:09.000Z</time>
      </trkpt>
      <trkpt lat="42.84296" lon="2.28579">
        <ele>848.20001220703</ele>
        <time>2024-10-24T13:50:14.000Z</time>
      </trkpt>
      <trkpt lat="42.843" lon="2.28562">
        <ele>843.59997558594</ele>
        <time>2024-10-24T13:50:18.000Z</time>
      </trkpt>
      <trkpt lat="42.84302" lon="2.28558">
        <ele>841.20001220703</ele>
        <time>2024-10-24T13:50:19.000Z</time>
      </trkpt>
      <trkpt lat="42.84307" lon="2.28551">
        <ele>836.20001220703</ele>
        <time>2024-10-24T13:50:21.000Z</time>
      </trkpt>
      <trkpt lat="42.8431" lon="2.28547">
        <ele>833.79998779297</ele>
        <time>2024-10-24T13:50:22.000Z</time>
      </trkpt>
      <trkpt lat="42.84316" lon="2.28539">
        <ele>829</ele>
        <time>2024-10-24T13:50:24.000Z</time>
      </trkpt>
      <trkpt lat="42.84316" lon="2.28536">
        <ele>828</ele>
        <time>2024-10-24T13:50:25.000Z</time>
      </trkpt>
      <trkpt lat="42.84316" lon="2.28532">
        <ele>828.20001220703</ele>
        <time>2024-10-24T13:50:26.000Z</time>
      </trkpt>
      <trkpt lat="42.84313" lon="2.28527">
        <ele>830.20001220703</ele>
        <time>2024-10-24T13:50:28.000Z</time>
      </trkpt>
      <trkpt lat="42.84307" lon="2.2852">
        <ele>833.79998779297</ele>
        <time>2024-10-24T13:50:30.000Z</time>
      </trkpt>
      <trkpt lat="42.843" lon="2.28502">
        <ele>835.40002441406</ele>
        <time>2024-10-24T13:50:34.000Z</time>
      </trkpt>
      <trkpt lat="42.84299" lon="2.28497">
        <ele>835.79998779297</ele>
        <time>2024-10-24T13:50:35.000Z</time>
      </trkpt>
      <trkpt lat="42.84299" lon="2.28487">
        <ele>834.79998779297</ele>
        <time>2024-10-24T13:50:37.000Z</time>
      </trkpt>
      <trkpt lat="42.84299" lon="2.28464">
        <ele>833.59997558594</ele>
        <time>2024-10-24T13:50:42.000Z</time>
      </trkpt>
      <trkpt lat="42.84299" lon="2.28445">
        <ele>833.20001220703</ele>
        <time>2024-10-24T13:50:46.000Z</time>
      </trkpt>
      <trkpt lat="42.84296" lon="2.28431">
        <ele>833.79998779297</ele>
        <time>2024-10-24T13:50:49.000Z</time>
      </trkpt>
      <trkpt lat="42.84296" lon="2.28427">
        <ele>834</ele>
        <time>2024-10-24T13:50:50.000Z</time>
      </trkpt>
      <trkpt lat="42.84292" lon="2.28409">
        <ele>835.79998779297</ele>
        <time>2024-10-24T13:50:54.000Z</time>
      </trkpt>
      <trkpt lat="42.84294" lon="2.28397">
        <ele>834.20001220703</ele>
        <time>2024-10-24T13:50:57.000Z</time>
      </trkpt>
      <trkpt lat="42.84298" lon="2.28384">
        <ele>830.40002441406</ele>
        <time>2024-10-24T13:51:00.000Z</time>
      </trkpt>
      <trkpt lat="42.84302" lon="2.2838">
        <ele>828</ele>
        <time>2024-10-24T13:51:01.000Z</time>
      </trkpt>
      <trkpt lat="42.84307" lon="2.28374">
        <ele>824.59997558594</ele>
        <time>2024-10-24T13:51:03.000Z</time>
      </trkpt>
      <trkpt lat="42.84303" lon="2.28363">
        <ele>827.59997558594</ele>
        <time>2024-10-24T13:51:05.000Z</time>
      </trkpt>
      <trkpt lat="42.84305" lon="2.28345">
        <ele>826.59997558594</ele>
        <time>2024-10-24T13:51:09.000Z</time>
      </trkpt>
      <trkpt lat="42.84309" lon="2.28336">
        <ele>824.59997558594</ele>
        <time>2024-10-24T13:51:11.000Z</time>
      </trkpt>
      <trkpt lat="42.84311" lon="2.28331">
        <ele>823.40002441406</ele>
        <time>2024-10-24T13:51:12.000Z</time>
      </trkpt>
      <trkpt lat="42.84314" lon="2.28326">
        <ele>822.20001220703</ele>
        <time>2024-10-24T13:51:13.000Z</time>
      </trkpt>
      <trkpt lat="42.84319" lon="2.28316">
        <ele>821.20001220703</ele>
        <time>2024-10-24T13:51:15.000Z</time>
      </trkpt>
      <trkpt lat="42.84322" lon="2.28302">
        <ele>821.40002441406</ele>
        <time>2024-10-24T13:51:17.000Z</time>
      </trkpt>
      <trkpt lat="42.84325" lon="2.28289">
        <ele>820</ele>
        <time>2024-10-24T13:51:19.000Z</time>
      </trkpt>
      <trkpt lat="42.84326" lon="2.28282">
        <ele>819.40002441406</ele>
        <time>2024-10-24T13:51:20.000Z</time>
      </trkpt>
      <trkpt lat="42.84326" lon="2.2827">
        <ele>818.79998779297</ele>
        <time>2024-10-24T13:51:23.000Z</time>
      </trkpt>
      <trkpt lat="42.84324" lon="2.28265">
        <ele>820</ele>
        <time>2024-10-24T13:51:25.000Z</time>
      </trkpt>
      <trkpt lat="42.84321" lon="2.28261">
        <ele>822.20001220703</ele>
        <time>2024-10-24T13:51:27.000Z</time>
      </trkpt>
      <trkpt lat="42.84321" lon="2.28259">
        <ele>822</ele>
        <time>2024-10-24T13:51:28.000Z</time>
      </trkpt>
      <trkpt lat="42.84323" lon="2.28255">
        <ele>820.79998779297</ele>
        <time>2024-10-24T13:51:30.000Z</time>
      </trkpt>
      <trkpt lat="42.8432" lon="2.28249">
        <ele>822.59997558594</ele>
        <time>2024-10-24T13:51:32.000Z</time>
      </trkpt>
      <trkpt lat="42.84316" lon="2.28237">
        <ele>824.79998779297</ele>
        <time>2024-10-24T13:51:35.000Z</time>
      </trkpt>
      <trkpt lat="42.84315" lon="2.28233">
        <ele>824.79998779297</ele>
        <time>2024-10-24T13:51:36.000Z</time>
      </trkpt>
      <trkpt lat="42.84315" lon="2.28229">
        <ele>824.40002441406</ele>
        <time>2024-10-24T13:51:37.000Z</time>
      </trkpt>
      <trkpt lat="42.84315" lon="2.28221">
        <ele>823.79998779297</ele>
        <time>2024-10-24T13:51:39.000Z</time>
      </trkpt>
      <trkpt lat="42.84309" lon="2.282">
        <ele>825.20001220703</ele>
        <time>2024-10-24T13:51:43.000Z</time>
      </trkpt>
      <trkpt lat="42.84316" lon="2.28178">
        <ele>817.59997558594</ele>
        <time>2024-10-24T13:51:48.000Z</time>
      </trkpt>
      <trkpt lat="42.84321" lon="2.28168">
        <ele>813.59997558594</ele>
        <time>2024-10-24T13:51:50.000Z</time>
      </trkpt>
      <trkpt lat="42.84325" lon="2.28159">
        <ele>811</ele>
        <time>2024-10-24T13:51:52.000Z</time>
      </trkpt>
      <trkpt lat="42.84322" lon="2.28138">
        <ele>813</ele>
        <time>2024-10-24T13:51:56.000Z</time>
      </trkpt>
      <trkpt lat="42.84314" lon="2.28116">
        <ele>818.20001220703</ele>
        <time>2024-10-24T13:52:00.000Z</time>
      </trkpt>
      <trkpt lat="42.84306" lon="2.2809">
        <ele>824.59997558594</ele>
        <time>2024-10-24T13:52:05.000Z</time>
      </trkpt>
      <trkpt lat="42.84297" lon="2.28063">
        <ele>828.59997558594</ele>
        <time>2024-10-24T13:52:10.000Z</time>
      </trkpt>
      <trkpt lat="42.84292" lon="2.28036">
        <ele>831.20001220703</ele>
        <time>2024-10-24T13:52:15.000Z</time>
      </trkpt>
      <trkpt lat="42.84288" lon="2.28019">
        <ele>833.40002441406</ele>
        <time>2024-10-24T13:52:19.000Z</time>
      </trkpt>
      <trkpt lat="42.84281" lon="2.27991">
        <ele>840.59997558594</ele>
        <time>2024-10-24T13:52:24.000Z</time>
      </trkpt>
      <trkpt lat="42.84278" lon="2.27967">
        <ele>846.59997558594</ele>
        <time>2024-10-24T13:52:29.000Z</time>
      </trkpt>
      <trkpt lat="42.84284" lon="2.27948">
        <ele>845.20001220703</ele>
        <time>2024-10-24T13:52:33.000Z</time>
      </trkpt>
      <trkpt lat="42.84287" lon="2.27944">
        <ele>842.59997558594</ele>
        <time>2024-10-24T13:52:34.000Z</time>
      </trkpt>
      <trkpt lat="42.8429" lon="2.27936">
        <ele>841.79998779297</ele>
        <time>2024-10-24T13:52:36.000Z</time>
      </trkpt>
      <trkpt lat="42.84294" lon="2.27933">
        <ele>840.40002441406</ele>
        <time>2024-10-24T13:52:37.000Z</time>
      </trkpt>
      <trkpt lat="42.84296" lon="2.27929">
        <ele>839.59997558594</ele>
        <time>2024-10-24T13:52:38.000Z</time>
      </trkpt>
      <trkpt lat="42.84305" lon="2.27922">
        <ele>835.79998779297</ele>
        <time>2024-10-24T13:52:40.000Z</time>
      </trkpt>
      <trkpt lat="42.84311" lon="2.27918">
        <ele>833.20001220703</ele>
        <time>2024-10-24T13:52:41.000Z</time>
      </trkpt>
      <trkpt lat="42.8432" lon="2.2791">
        <ele>830.59997558594</ele>
        <time>2024-10-24T13:52:43.000Z</time>
      </trkpt>
      <trkpt lat="42.84323" lon="2.27889">
        <ele>831.59997558594</ele>
        <time>2024-10-24T13:52:47.000Z</time>
      </trkpt>
      <trkpt lat="42.84323" lon="2.27884">
        <ele>832</ele>
        <time>2024-10-24T13:52:48.000Z</time>
      </trkpt>
      <trkpt lat="42.84322" lon="2.27874">
        <ele>834.40002441406</ele>
        <time>2024-10-24T13:52:50.000Z</time>
      </trkpt>
      <trkpt lat="42.84321" lon="2.27865">
        <ele>836.79998779297</ele>
        <time>2024-10-24T13:52:52.000Z</time>
      </trkpt>
      <trkpt lat="42.84324" lon="2.27852">
        <ele>837</ele>
        <time>2024-10-24T13:52:55.000Z</time>
      </trkpt>
      <trkpt lat="42.8433" lon="2.27838">
        <ele>835.40002441406</ele>
        <time>2024-10-24T13:52:58.000Z</time>
      </trkpt>
      <trkpt lat="42.84336" lon="2.27829">
        <ele>831.40002441406</ele>
        <time>2024-10-24T13:53:00.000Z</time>
      </trkpt>
      <trkpt lat="42.84345" lon="2.27807">
        <ele>824.59997558594</ele>
        <time>2024-10-24T13:53:05.000Z</time>
      </trkpt>
      <trkpt lat="42.84351" lon="2.27798">
        <ele>821.79998779297</ele>
        <time>2024-10-24T13:53:07.000Z</time>
      </trkpt>
      <trkpt lat="42.84354" lon="2.27789">
        <ele>820.20001220703</ele>
        <time>2024-10-24T13:53:09.000Z</time>
      </trkpt>
      <trkpt lat="42.84354" lon="2.27774">
        <ele>821.59997558594</ele>
        <time>2024-10-24T13:53:12.000Z</time>
      </trkpt>
      <trkpt lat="42.84352" lon="2.27768">
        <ele>823.40002441406</ele>
        <time>2024-10-24T13:53:13.000Z</time>
      </trkpt>
      <trkpt lat="42.84347" lon="2.27749">
        <ele>828.59997558594</ele>
        <time>2024-10-24T13:53:17.000Z</time>
      </trkpt>
      <trkpt lat="42.84345" lon="2.27745">
        <ele>830.20001220703</ele>
        <time>2024-10-24T13:53:18.000Z</time>
      </trkpt>
      <trkpt lat="42.84341" lon="2.27714">
        <ele>837.20001220703</ele>
        <time>2024-10-24T13:53:24.000Z</time>
      </trkpt>
      <trkpt lat="42.84345" lon="2.27689">
        <ele>836.59997558594</ele>
        <time>2024-10-24T13:53:29.000Z</time>
      </trkpt>
      <trkpt lat="42.8435" lon="2.2767">
        <ele>833.79998779297</ele>
        <time>2024-10-24T13:53:33.000Z</time>
      </trkpt>
      <trkpt lat="42.84346" lon="2.27644">
        <ele>836.79998779297</ele>
        <time>2024-10-24T13:53:38.000Z</time>
      </trkpt>
      <trkpt lat="42.84349" lon="2.2763">
        <ele>835.20001220703</ele>
        <time>2024-10-24T13:53:41.000Z</time>
      </trkpt>
      <trkpt lat="42.84352" lon="2.27611">
        <ele>832</ele>
        <time>2024-10-24T13:53:45.000Z</time>
      </trkpt>
      <trkpt lat="42.84353" lon="2.27607">
        <ele>831.59997558594</ele>
        <time>2024-10-24T13:53:46.000Z</time>
      </trkpt>
      <trkpt lat="42.84341" lon="2.27578">
        <ele>837</ele>
        <time>2024-10-24T13:53:51.000Z</time>
      </trkpt>
      <trkpt lat="42.84338" lon="2.27566">
        <ele>840.20001220703</ele>
        <time>2024-10-24T13:53:53.000Z</time>
      </trkpt>
      <trkpt lat="42.84333" lon="2.27553">
        <ele>844.59997558594</ele>
        <time>2024-10-24T13:53:55.000Z</time>
      </trkpt>
      <trkpt lat="42.84331" lon="2.27539">
        <ele>846.59997558594</ele>
        <time>2024-10-24T13:53:57.000Z</time>
      </trkpt>
      <trkpt lat="42.84329" lon="2.27525">
        <ele>849.40002441406</ele>
        <time>2024-10-24T13:53:59.000Z</time>
      </trkpt>
      <trkpt lat="42.84329" lon="2.2752">
        <ele>849.59997558594</ele>
        <time>2024-10-24T13:54:00.000Z</time>
      </trkpt>
      <trkpt lat="42.84329" lon="2.27514">
        <ele>848</ele>
        <time>2024-10-24T13:54:01.000Z</time>
      </trkpt>
      <trkpt lat="42.84333" lon="2.27502">
        <ele>845.20001220703</ele>
        <time>2024-10-24T13:54:03.000Z</time>
      </trkpt>
      <trkpt lat="42.84334" lon="2.27484">
        <ele>844.20001220703</ele>
        <time>2024-10-24T13:54:06.000Z</time>
      </trkpt>
      <trkpt lat="42.84332" lon="2.27471">
        <ele>843</ele>
        <time>2024-10-24T13:54:08.000Z</time>
      </trkpt>
      <trkpt lat="42.84331" lon="2.27464">
        <ele>842.79998779297</ele>
        <time>2024-10-24T13:54:09.000Z</time>
      </trkpt>
      <trkpt lat="42.8433" lon="2.27451">
        <ele>843.59997558594</ele>
        <time>2024-10-24T13:54:11.000Z</time>
      </trkpt>
      <trkpt lat="42.8433" lon="2.27445">
        <ele>842.59997558594</ele>
        <time>2024-10-24T13:54:12.000Z</time>
      </trkpt>
      <trkpt lat="42.84331" lon="2.2742">
        <ele>841.40002441406</ele>
        <time>2024-10-24T13:54:16.000Z</time>
      </trkpt>
      <trkpt lat="42.84334" lon="2.27397">
        <ele>839.79998779297</ele>
        <time>2024-10-24T13:54:19.000Z</time>
      </trkpt>
      <trkpt lat="42.84336" lon="2.27389">
        <ele>838.79998779297</ele>
        <time>2024-10-24T13:54:20.000Z</time>
      </trkpt>
      <trkpt lat="42.84336" lon="2.27382">
        <ele>839.40002441406</ele>
        <time>2024-10-24T13:54:21.000Z</time>
      </trkpt>
      <trkpt lat="42.84337" lon="2.27354">
        <ele>839</ele>
        <time>2024-10-24T13:54:25.000Z</time>
      </trkpt>
      <trkpt lat="42.84334" lon="2.2732">
        <ele>841.79998779297</ele>
        <time>2024-10-24T13:54:30.000Z</time>
      </trkpt>
      <trkpt lat="42.84332" lon="2.27296">
        <ele>844.40002441406</ele>
        <time>2024-10-24T13:54:34.000Z</time>
      </trkpt>
      <trkpt lat="42.84335" lon="2.27284">
        <ele>843</ele>
        <time>2024-10-24T13:54:36.000Z</time>
      </trkpt>
      <trkpt lat="42.84335" lon="2.27272">
        <ele>843.79998779297</ele>
        <time>2024-10-24T13:54:38.000Z</time>
      </trkpt>
      <trkpt lat="42.84341" lon="2.27246">
        <ele>838.20001220703</ele>
        <time>2024-10-24T13:54:42.000Z</time>
      </trkpt>
      <trkpt lat="42.84341" lon="2.27239">
        <ele>838.40002441406</ele>
        <time>2024-10-24T13:54:43.000Z</time>
      </trkpt>
      <trkpt lat="42.84339" lon="2.27215">
        <ele>839.59997558594</ele>
        <time>2024-10-24T13:54:47.000Z</time>
      </trkpt>
      <trkpt lat="42.84339" lon="2.27184">
        <ele>843.40002441406</ele>
        <time>2024-10-24T13:54:52.000Z</time>
      </trkpt>
      <trkpt lat="42.8434" lon="2.27173">
        <ele>844</ele>
        <time>2024-10-24T13:54:54.000Z</time>
      </trkpt>
      <trkpt lat="42.84343" lon="2.27167">
        <ele>842.20001220703</ele>
        <time>2024-10-24T13:54:56.000Z</time>
      </trkpt>
      <trkpt lat="42.84346" lon="2.27163">
        <ele>840.59997558594</ele>
        <time>2024-10-24T13:54:57.000Z</time>
      </trkpt>
      <trkpt lat="42.84353" lon="2.27156">
        <ele>835</ele>
        <time>2024-10-24T13:54:59.000Z</time>
      </trkpt>
      <trkpt lat="42.84358" lon="2.27146">
        <ele>830.20001220703</ele>
        <time>2024-10-24T13:55:01.000Z</time>
      </trkpt>
      <trkpt lat="42.84359" lon="2.2714">
        <ele>829.59997558594</ele>
        <time>2024-10-24T13:55:02.000Z</time>
      </trkpt>
      <trkpt lat="42.84359" lon="2.27113">
        <ele>827.79998779297</ele>
        <time>2024-10-24T13:55:07.000Z</time>
      </trkpt>
      <trkpt lat="42.84356" lon="2.27093">
        <ele>830</ele>
        <time>2024-10-24T13:55:11.000Z</time>
      </trkpt>
      <trkpt lat="42.84354" lon="2.2707">
        <ele>828.79998779297</ele>
        <time>2024-10-24T13:55:15.000Z</time>
      </trkpt>
      <trkpt lat="42.84354" lon="2.27052">
        <ele>826</ele>
        <time>2024-10-24T13:55:18.000Z</time>
      </trkpt>
      <trkpt lat="42.84353" lon="2.27041">
        <ele>824.40002441406</ele>
        <time>2024-10-24T13:55:20.000Z</time>
      </trkpt>
      <trkpt lat="42.8435" lon="2.27015">
        <ele>821</ele>
        <time>2024-10-24T13:55:25.000Z</time>
      </trkpt>
      <trkpt lat="42.84349" lon="2.27009">
        <ele>820.40002441406</ele>
        <time>2024-10-24T13:55:26.000Z</time>
      </trkpt>
      <trkpt lat="42.84345" lon="2.26989">
        <ele>819.79998779297</ele>
        <time>2024-10-24T13:55:29.000Z</time>
      </trkpt>
      <trkpt lat="42.84344" lon="2.26977">
        <ele>820.20001220703</ele>
        <time>2024-10-24T13:55:31.000Z</time>
      </trkpt>
      <trkpt lat="42.84341" lon="2.26959">
        <ele>820.59997558594</ele>
        <time>2024-10-24T13:55:34.000Z</time>
      </trkpt>
      <trkpt lat="42.84341" lon="2.26953">
        <ele>820.40002441406</ele>
        <time>2024-10-24T13:55:35.000Z</time>
      </trkpt>
      <trkpt lat="42.84338" lon="2.26921">
        <ele>818.79998779297</ele>
        <time>2024-10-24T13:55:41.000Z</time>
      </trkpt>
      <trkpt lat="42.84332" lon="2.26882">
        <ele>813.20001220703</ele>
        <time>2024-10-24T13:55:48.000Z</time>
      </trkpt>
      <trkpt lat="42.84332" lon="2.26876">
        <ele>813.20001220703</ele>
        <time>2024-10-24T13:55:49.000Z</time>
      </trkpt>
      <trkpt lat="42.84328" lon="2.2685">
        <ele>813.79998779297</ele>
        <time>2024-10-24T13:55:53.000Z</time>
      </trkpt>
      <trkpt lat="42.84326" lon="2.26836">
        <ele>814.79998779297</ele>
        <time>2024-10-24T13:55:55.000Z</time>
      </trkpt>
      <trkpt lat="42.84323" lon="2.26823">
        <ele>815.40002441406</ele>
        <time>2024-10-24T13:55:57.000Z</time>
      </trkpt>
      <trkpt lat="42.8432" lon="2.26809">
        <ele>815.59997558594</ele>
        <time>2024-10-24T13:55:59.000Z</time>
      </trkpt>
      <trkpt lat="42.84317" lon="2.26796">
        <ele>816</ele>
        <time>2024-10-24T13:56:01.000Z</time>
      </trkpt>
      <trkpt lat="42.84308" lon="2.26746">
        <ele>821.20001220703</ele>
        <time>2024-10-24T13:56:09.000Z</time>
      </trkpt>
      <trkpt lat="42.84306" lon="2.26724">
        <ele>821.59997558594</ele>
        <time>2024-10-24T13:56:13.000Z</time>
      </trkpt>
      <trkpt lat="42.84302" lon="2.26694">
        <ele>824.79998779297</ele>
        <time>2024-10-24T13:56:19.000Z</time>
      </trkpt>
      <trkpt lat="42.84299" lon="2.2667">
        <ele>826.40002441406</ele>
        <time>2024-10-24T13:56:24.000Z</time>
      </trkpt>
      <trkpt lat="42.84301" lon="2.26661">
        <ele>826.20001220703</ele>
        <time>2024-10-24T13:56:26.000Z</time>
      </trkpt>
      <trkpt lat="42.84304" lon="2.26658">
        <ele>824.20001220703</ele>
        <time>2024-10-24T13:56:27.000Z</time>
      </trkpt>
      <trkpt lat="42.84305" lon="2.26654">
        <ele>824.40002441406</ele>
        <time>2024-10-24T13:56:28.000Z</time>
      </trkpt>
      <trkpt lat="42.84302" lon="2.26647">
        <ele>826.40002441406</ele>
        <time>2024-10-24T13:56:30.000Z</time>
      </trkpt>
      <trkpt lat="42.843" lon="2.26632">
        <ele>829.40002441406</ele>
        <time>2024-10-24T13:56:34.000Z</time>
      </trkpt>
      <trkpt lat="42.84301" lon="2.26628">
        <ele>828.79998779297</ele>
        <time>2024-10-24T13:56:35.000Z</time>
      </trkpt>
      <trkpt lat="42.84305" lon="2.26621">
        <ele>827.20001220703</ele>
        <time>2024-10-24T13:56:37.000Z</time>
      </trkpt>
      <trkpt lat="42.84305" lon="2.26612">
        <ele>826.59997558594</ele>
        <time>2024-10-24T13:56:39.000Z</time>
      </trkpt>
      <trkpt lat="42.84304" lon="2.26592">
        <ele>828.40002441406</ele>
        <time>2024-10-24T13:56:43.000Z</time>
      </trkpt>
      <trkpt lat="42.84306" lon="2.26572">
        <ele>827</ele>
        <time>2024-10-24T13:56:47.000Z</time>
      </trkpt>
      <trkpt lat="42.84308" lon="2.26557">
        <ele>825.79998779297</ele>
        <time>2024-10-24T13:56:50.000Z</time>
      </trkpt>
      <trkpt lat="42.84309" lon="2.26545">
        <ele>825.79998779297</ele>
        <time>2024-10-24T13:56:52.000Z</time>
      </trkpt>
      <trkpt lat="42.84308" lon="2.26526">
        <ele>826</ele>
        <time>2024-10-24T13:56:55.000Z</time>
      </trkpt>
      <trkpt lat="42.84307" lon="2.26514">
        <ele>825.79998779297</ele>
        <time>2024-10-24T13:56:57.000Z</time>
      </trkpt>
      <trkpt lat="42.84307" lon="2.26501">
        <ele>825</ele>
        <time>2024-10-24T13:56:59.000Z</time>
      </trkpt>
      <trkpt lat="42.84309" lon="2.26489">
        <ele>822.79998779297</ele>
        <time>2024-10-24T13:57:01.000Z</time>
      </trkpt>
      <trkpt lat="42.84311" lon="2.26478">
        <ele>819.79998779297</ele>
        <time>2024-10-24T13:57:03.000Z</time>
      </trkpt>
      <trkpt lat="42.84309" lon="2.26467">
        <ele>820.20001220703</ele>
        <time>2024-10-24T13:57:05.000Z</time>
      </trkpt>
      <trkpt lat="42.84309" lon="2.26461">
        <ele>819.79998779297</ele>
        <time>2024-10-24T13:57:06.000Z</time>
      </trkpt>
      <trkpt lat="42.8431" lon="2.26455">
        <ele>819.20001220703</ele>
        <time>2024-10-24T13:57:07.000Z</time>
      </trkpt>
      <trkpt lat="42.84312" lon="2.26436">
        <ele>815.79998779297</ele>
        <time>2024-10-24T13:57:10.000Z</time>
      </trkpt>
      <trkpt lat="42.84313" lon="2.26429">
        <ele>816</ele>
        <time>2024-10-24T13:57:11.000Z</time>
      </trkpt>
      <trkpt lat="42.84314" lon="2.26422">
        <ele>815.59997558594</ele>
        <time>2024-10-24T13:57:12.000Z</time>
      </trkpt>
      <trkpt lat="42.84315" lon="2.26402">
        <ele>816</ele>
        <time>2024-10-24T13:57:15.000Z</time>
      </trkpt>
      <trkpt lat="42.84315" lon="2.2639">
        <ele>817.20001220703</ele>
        <time>2024-10-24T13:57:17.000Z</time>
      </trkpt>
      <trkpt lat="42.84316" lon="2.26378">
        <ele>816.40002441406</ele>
        <time>2024-10-24T13:57:19.000Z</time>
      </trkpt>
      <trkpt lat="42.84318" lon="2.26366">
        <ele>815</ele>
        <time>2024-10-24T13:57:21.000Z</time>
      </trkpt>
      <trkpt lat="42.84321" lon="2.26355">
        <ele>813</ele>
        <time>2024-10-24T13:57:23.000Z</time>
      </trkpt>
      <trkpt lat="42.84323" lon="2.26341">
        <ele>810.79998779297</ele>
        <time>2024-10-24T13:57:26.000Z</time>
      </trkpt>
      <trkpt lat="42.84324" lon="2.26336">
        <ele>810.40002441406</ele>
        <time>2024-10-24T13:57:27.000Z</time>
      </trkpt>
      <trkpt lat="42.84323" lon="2.26325">
        <ele>811.79998779297</ele>
        <time>2024-10-24T13:57:29.000Z</time>
      </trkpt>
      <trkpt lat="42.84318" lon="2.26304">
        <ele>815.79998779297</ele>
        <time>2024-10-24T13:57:33.000Z</time>
      </trkpt>
      <trkpt lat="42.84304" lon="2.26273">
        <ele>822.59997558594</ele>
        <time>2024-10-24T13:57:39.000Z</time>
      </trkpt>
      <trkpt lat="42.84302" lon="2.26268">
        <ele>823</ele>
        <time>2024-10-24T13:57:40.000Z</time>
      </trkpt>
      <trkpt lat="42.84299" lon="2.26251">
        <ele>822.40002441406</ele>
        <time>2024-10-24T13:57:43.000Z</time>
      </trkpt>
      <trkpt lat="42.8429" lon="2.26218">
        <ele>821.79998779297</ele>
        <time>2024-10-24T13:57:49.000Z</time>
      </trkpt>
      <trkpt lat="42.84284" lon="2.26188">
        <ele>822</ele>
        <time>2024-10-24T13:57:55.000Z</time>
      </trkpt>
      <trkpt lat="42.84281" lon="2.26171">
        <ele>820.40002441406</ele>
        <time>2024-10-24T13:57:59.000Z</time>
      </trkpt>
      <trkpt lat="42.84272" lon="2.2614">
        <ele>821.40002441406</ele>
        <time>2024-10-24T13:58:05.000Z</time>
      </trkpt>
      <trkpt lat="42.84267" lon="2.26124">
        <ele>823.40002441406</ele>
        <time>2024-10-24T13:58:08.000Z</time>
      </trkpt>
      <trkpt lat="42.84263" lon="2.26113">
        <ele>824.59997558594</ele>
        <time>2024-10-24T13:58:10.000Z</time>
      </trkpt>
      <trkpt lat="42.84261" lon="2.26108">
        <ele>825</ele>
        <time>2024-10-24T13:58:11.000Z</time>
      </trkpt>
      <trkpt lat="42.84254" lon="2.2608">
        <ele>828.20001220703</ele>
        <time>2024-10-24T13:58:16.000Z</time>
      </trkpt>
      <trkpt lat="42.84254" lon="2.26074">
        <ele>828.59997558594</ele>
        <time>2024-10-24T13:58:17.000Z</time>
      </trkpt>
      <trkpt lat="42.84253" lon="2.26069">
        <ele>829.40002441406</ele>
        <time>2024-10-24T13:58:18.000Z</time>
      </trkpt>
      <trkpt lat="42.8425" lon="2.26042">
        <ele>830.79998779297</ele>
        <time>2024-10-24T13:58:23.000Z</time>
      </trkpt>
      <trkpt lat="42.84248" lon="2.26017">
        <ele>832.79998779297</ele>
        <time>2024-10-24T13:58:28.000Z</time>
      </trkpt>
      <trkpt lat="42.84249" lon="2.26008">
        <ele>831.40002441406</ele>
        <time>2024-10-24T13:58:31.000Z</time>
      </trkpt>
      <trkpt lat="42.84249" lon="2.26005">
        <ele>831.59997558594</ele>
        <time>2024-10-24T13:58:32.000Z</time>
      </trkpt>
      <trkpt lat="42.84249" lon="2.25983">
        <ele>830.20001220703</ele>
        <time>2024-10-24T13:58:37.000Z</time>
      </trkpt>
      <trkpt lat="42.84248" lon="2.25964">
        <ele>830</ele>
        <time>2024-10-24T13:58:41.000Z</time>
      </trkpt>
      <trkpt lat="42.84247" lon="2.2595">
        <ele>831</ele>
        <time>2024-10-24T13:58:44.000Z</time>
      </trkpt>
      <trkpt lat="42.84247" lon="2.25945">
        <ele>831.40002441406</ele>
        <time>2024-10-24T13:58:45.000Z</time>
      </trkpt>
      <trkpt lat="42.84247" lon="2.25926">
        <ele>831</ele>
        <time>2024-10-24T13:58:49.000Z</time>
      </trkpt>
      <trkpt lat="42.8425" lon="2.25904">
        <ele>833</ele>
        <time>2024-10-24T13:58:54.000Z</time>
      </trkpt>
      <trkpt lat="42.84246" lon="2.25885">
        <ele>835.79998779297</ele>
        <time>2024-10-24T13:58:58.000Z</time>
      </trkpt>
      <trkpt lat="42.84245" lon="2.25862">
        <ele>837.20001220703</ele>
        <time>2024-10-24T13:59:03.000Z</time>
      </trkpt>
      <trkpt lat="42.84242" lon="2.25846">
        <ele>838.59997558594</ele>
        <time>2024-10-24T13:59:07.000Z</time>
      </trkpt>
      <trkpt lat="42.84241" lon="2.25834">
        <ele>838.20001220703</ele>
        <time>2024-10-24T13:59:10.000Z</time>
      </trkpt>
      <trkpt lat="42.84242" lon="2.25831">
        <ele>837.20001220703</ele>
        <time>2024-10-24T13:59:11.000Z</time>
      </trkpt>
      <trkpt lat="42.84244" lon="2.25827">
        <ele>835.59997558594</ele>
        <time>2024-10-24T13:59:12.000Z</time>
      </trkpt>
      <trkpt lat="42.84246" lon="2.25819">
        <ele>833.40002441406</ele>
        <time>2024-10-24T13:59:14.000Z</time>
      </trkpt>
      <trkpt lat="42.84246" lon="2.25812">
        <ele>833.20001220703</ele>
        <time>2024-10-24T13:59:17.000Z</time>
      </trkpt>
      <trkpt lat="42.84242" lon="2.25807">
        <ele>835.79998779297</ele>
        <time>2024-10-24T13:59:51.000Z</time>
      </trkpt>
      <trkpt lat="42.84243" lon="2.25788">
        <ele>834.59997558594</ele>
        <time>2024-10-24T13:59:55.000Z</time>
      </trkpt>
      <trkpt lat="42.84243" lon="2.25784">
        <ele>833.79998779297</ele>
        <time>2024-10-24T13:59:56.000Z</time>
      </trkpt>
      <trkpt lat="42.84242" lon="2.25774">
        <ele>834.59997558594</ele>
        <time>2024-10-24T13:59:58.000Z</time>
      </trkpt>
      <trkpt lat="42.84242" lon="2.25768">
        <ele>834.40002441406</ele>
        <time>2024-10-24T13:59:59.000Z</time>
      </trkpt>
      <trkpt lat="42.84243" lon="2.25756">
        <ele>833.59997558594</ele>
        <time>2024-10-24T14:00:01.000Z</time>
      </trkpt>
      <trkpt lat="42.84241" lon="2.25741">
        <ele>833.59997558594</ele>
        <time>2024-10-24T14:00:04.000Z</time>
      </trkpt>
      <trkpt lat="42.84242" lon="2.25722">
        <ele>832.20001220703</ele>
        <time>2024-10-24T14:00:08.000Z</time>
      </trkpt>
      <trkpt lat="42.84247" lon="2.25694">
        <ele>826.59997558594</ele>
        <time>2024-10-24T14:00:14.000Z</time>
      </trkpt>
      <trkpt lat="42.8425" lon="2.25671">
        <ele>822.40002441406</ele>
        <time>2024-10-24T14:00:19.000Z</time>
      </trkpt>
      <trkpt lat="42.84253" lon="2.25649">
        <ele>818</ele>
        <time>2024-10-24T14:00:23.000Z</time>
      </trkpt>
      <trkpt lat="42.84256" lon="2.25634">
        <ele>814.59997558594</ele>
        <time>2024-10-24T14:00:26.000Z</time>
      </trkpt>
      <trkpt lat="42.84257" lon="2.25628">
        <ele>813.79998779297</ele>
        <time>2024-10-24T14:00:27.000Z</time>
      </trkpt>
      <trkpt lat="42.84259" lon="2.25613">
        <ele>812.59997558594</ele>
        <time>2024-10-24T14:00:30.000Z</time>
      </trkpt>
      <trkpt lat="42.84259" lon="2.25607">
        <ele>812.20001220703</ele>
        <time>2024-10-24T14:00:31.000Z</time>
      </trkpt>
      <trkpt lat="42.8426" lon="2.25587">
        <ele>813.79998779297</ele>
        <time>2024-10-24T14:00:35.000Z</time>
      </trkpt>
      <trkpt lat="42.84262" lon="2.25569">
        <ele>814.40002441406</ele>
        <time>2024-10-24T14:00:39.000Z</time>
      </trkpt>
      <trkpt lat="42.84265" lon="2.25558">
        <ele>814.59997558594</ele>
        <time>2024-10-24T14:00:42.000Z</time>
      </trkpt>
      <trkpt lat="42.84264" lon="2.25554">
        <ele>815.40002441406</ele>
        <time>2024-10-24T14:00:43.000Z</time>
      </trkpt>
      <trkpt lat="42.84272" lon="2.25527">
        <ele>810.40002441406</ele>
        <time>2024-10-24T14:00:48.000Z</time>
      </trkpt>
      <trkpt lat="42.84287" lon="2.25503">
        <ele>796.79998779297</ele>
        <time>2024-10-24T14:00:53.000Z</time>
      </trkpt>
      <trkpt lat="42.84291" lon="2.25489">
        <ele>793.40002441406</ele>
        <time>2024-10-24T14:00:56.000Z</time>
      </trkpt>
      <trkpt lat="42.84292" lon="2.25484">
        <ele>792.59997558594</ele>
        <time>2024-10-24T14:00:57.000Z</time>
      </trkpt>
      <trkpt lat="42.84299" lon="2.2547">
        <ele>789.40002441406</ele>
        <time>2024-10-24T14:01:00.000Z</time>
      </trkpt>
      <trkpt lat="42.84298" lon="2.25452">
        <ele>790.59997558594</ele>
        <time>2024-10-24T14:01:04.000Z</time>
      </trkpt>
      <trkpt lat="42.843" lon="2.25432">
        <ele>789</ele>
        <time>2024-10-24T14:01:07.000Z</time>
      </trkpt>
      <trkpt lat="42.843" lon="2.2542">
        <ele>788.59997558594</ele>
        <time>2024-10-24T14:01:09.000Z</time>
      </trkpt>
      <trkpt lat="42.84302" lon="2.25404">
        <ele>788</ele>
        <time>2024-10-24T14:01:12.000Z</time>
      </trkpt>
      <trkpt lat="42.84305" lon="2.25393">
        <ele>785.79998779297</ele>
        <time>2024-10-24T14:01:14.000Z</time>
      </trkpt>
      <trkpt lat="42.84311" lon="2.25365">
        <ele>781.40002441406</ele>
        <time>2024-10-24T14:01:19.000Z</time>
      </trkpt>
      <trkpt lat="42.84315" lon="2.25354">
        <ele>780</ele>
        <time>2024-10-24T14:01:21.000Z</time>
      </trkpt>
      <trkpt lat="42.84318" lon="2.25348">
        <ele>778.40002441406</ele>
        <time>2024-10-24T14:01:22.000Z</time>
      </trkpt>
      <trkpt lat="42.84324" lon="2.25337">
        <ele>775.79998779297</ele>
        <time>2024-10-24T14:01:24.000Z</time>
      </trkpt>
      <trkpt lat="42.84325" lon="2.25326">
        <ele>775.20001220703</ele>
        <time>2024-10-24T14:01:26.000Z</time>
      </trkpt>
      <trkpt lat="42.84327" lon="2.2531">
        <ele>773.59997558594</ele>
        <time>2024-10-24T14:01:29.000Z</time>
      </trkpt>
      <trkpt lat="42.84329" lon="2.25305">
        <ele>772.20001220703</ele>
        <time>2024-10-24T14:01:30.000Z</time>
      </trkpt>
      <trkpt lat="42.84328" lon="2.25298">
        <ele>772.40002441406</ele>
        <time>2024-10-24T14:01:32.000Z</time>
      </trkpt>
      <trkpt lat="42.84331" lon="2.25288">
        <ele>770.79998779297</ele>
        <time>2024-10-24T14:01:34.000Z</time>
      </trkpt>
      <trkpt lat="42.84337" lon="2.25261">
        <ele>767</ele>
        <time>2024-10-24T14:01:38.000Z</time>
      </trkpt>
      <trkpt lat="42.84339" lon="2.25248">
        <ele>765.79998779297</ele>
        <time>2024-10-24T14:01:40.000Z</time>
      </trkpt>
      <trkpt lat="42.84341" lon="2.25229">
        <ele>765</ele>
        <time>2024-10-24T14:01:43.000Z</time>
      </trkpt>
      <trkpt lat="42.84342" lon="2.25223">
        <ele>764.40002441406</ele>
        <time>2024-10-24T14:01:44.000Z</time>
      </trkpt>
      <trkpt lat="42.84345" lon="2.25212">
        <ele>763</ele>
        <time>2024-10-24T14:01:46.000Z</time>
      </trkpt>
      <trkpt lat="42.84347" lon="2.25206">
        <ele>762.20001220703</ele>
        <time>2024-10-24T14:01:47.000Z</time>
      </trkpt>
      <trkpt lat="42.84348" lon="2.25201">
        <ele>762.20001220703</ele>
        <time>2024-10-24T14:01:48.000Z</time>
      </trkpt>
      <trkpt lat="42.84348" lon="2.25191">
        <ele>763.20001220703</ele>
        <time>2024-10-24T14:01:50.000Z</time>
      </trkpt>
      <trkpt lat="42.84346" lon="2.25172">
        <ele>765.20001220703</ele>
        <time>2024-10-24T14:01:54.000Z</time>
      </trkpt>
      <trkpt lat="42.84347" lon="2.25158">
        <ele>764.59997558594</ele>
        <time>2024-10-24T14:01:56.000Z</time>
      </trkpt>
      <trkpt lat="42.84349" lon="2.25143">
        <ele>763.20001220703</ele>
        <time>2024-10-24T14:01:58.000Z</time>
      </trkpt>
      <trkpt lat="42.84351" lon="2.25137">
        <ele>762.20001220703</ele>
        <time>2024-10-24T14:01:59.000Z</time>
      </trkpt>
      <trkpt lat="42.84353" lon="2.25125">
        <ele>760.59997558594</ele>
        <time>2024-10-24T14:02:01.000Z</time>
      </trkpt>
      <trkpt lat="42.84355" lon="2.25121">
        <ele>759.79998779297</ele>
        <time>2024-10-24T14:02:02.000Z</time>
      </trkpt>
      <trkpt lat="42.84365" lon="2.2511">
        <ele>752</ele>
        <time>2024-10-24T14:02:04.000Z</time>
      </trkpt>
      <trkpt lat="42.84365" lon="2.25094">
        <ele>753.40002441406</ele>
        <time>2024-10-24T14:02:07.000Z</time>
      </trkpt>
      <trkpt lat="42.84365" lon="2.25089">
        <ele>753</ele>
        <time>2024-10-24T14:02:08.000Z</time>
      </trkpt>
      <trkpt lat="42.84368" lon="2.2508">
        <ele>751.40002441406</ele>
        <time>2024-10-24T14:02:10.000Z</time>
      </trkpt>
      <trkpt lat="42.84375" lon="2.25064">
        <ele>747.20001220703</ele>
        <time>2024-10-24T14:02:14.000Z</time>
      </trkpt>
      <trkpt lat="42.84381" lon="2.25053">
        <ele>744.40002441406</ele>
        <time>2024-10-24T14:02:16.000Z</time>
      </trkpt>
      <trkpt lat="42.84387" lon="2.25042">
        <ele>741.20001220703</ele>
        <time>2024-10-24T14:02:18.000Z</time>
      </trkpt>
      <trkpt lat="42.84394" lon="2.25025">
        <ele>734.59997558594</ele>
        <time>2024-10-24T14:02:21.000Z</time>
      </trkpt>
      <trkpt lat="42.84394" lon="2.2502">
        <ele>734.20001220703</ele>
        <time>2024-10-24T14:02:22.000Z</time>
      </trkpt>
      <trkpt lat="42.84395" lon="2.25008">
        <ele>733.59997558594</ele>
        <time>2024-10-24T14:02:24.000Z</time>
      </trkpt>
      <trkpt lat="42.84398" lon="2.24993">
        <ele>730.79998779297</ele>
        <time>2024-10-24T14:02:27.000Z</time>
      </trkpt>
      <trkpt lat="42.84396" lon="2.24971">
        <ele>731.20001220703</ele>
        <time>2024-10-24T14:02:32.000Z</time>
      </trkpt>
      <trkpt lat="42.84394" lon="2.24957">
        <ele>733.20001220703</ele>
        <time>2024-10-24T14:02:35.000Z</time>
      </trkpt>
      <trkpt lat="42.84393" lon="2.24951">
        <ele>733.79998779297</ele>
        <time>2024-10-24T14:02:36.000Z</time>
      </trkpt>
      <trkpt lat="42.84393" lon="2.24945">
        <ele>734.40002441406</ele>
        <time>2024-10-24T14:02:37.000Z</time>
      </trkpt>
      <trkpt lat="42.84393" lon="2.24931">
        <ele>734</ele>
        <time>2024-10-24T14:02:39.000Z</time>
      </trkpt>
      <trkpt lat="42.84392" lon="2.24925">
        <ele>734.20001220703</ele>
        <time>2024-10-24T14:02:40.000Z</time>
      </trkpt>
      <trkpt lat="42.8439" lon="2.24908">
        <ele>733.79998779297</ele>
        <time>2024-10-24T14:02:43.000Z</time>
      </trkpt>
      <trkpt lat="42.84391" lon="2.24903">
        <ele>732</ele>
        <time>2024-10-24T14:02:44.000Z</time>
      </trkpt>
      <trkpt lat="42.84391" lon="2.24898">
        <ele>731.20001220703</ele>
        <time>2024-10-24T14:02:45.000Z</time>
      </trkpt>
      <trkpt lat="42.84394" lon="2.24886">
        <ele>727.59997558594</ele>
        <time>2024-10-24T14:02:47.000Z</time>
      </trkpt>
      <trkpt lat="42.84394" lon="2.24879">
        <ele>726.40002441406</ele>
        <time>2024-10-24T14:02:48.000Z</time>
      </trkpt>
      <trkpt lat="42.8439" lon="2.24856">
        <ele>727</ele>
        <time>2024-10-24T14:02:52.000Z</time>
      </trkpt>
      <trkpt lat="42.84391" lon="2.2485">
        <ele>726.40002441406</ele>
        <time>2024-10-24T14:02:53.000Z</time>
      </trkpt>
      <trkpt lat="42.84391" lon="2.24833">
        <ele>725.40002441406</ele>
        <time>2024-10-24T14:02:56.000Z</time>
      </trkpt>
      <trkpt lat="42.84394" lon="2.24828">
        <ele>724</ele>
        <time>2024-10-24T14:02:57.000Z</time>
      </trkpt>
      <trkpt lat="42.84394" lon="2.24813">
        <ele>722.59997558594</ele>
        <time>2024-10-24T14:03:00.000Z</time>
      </trkpt>
      <trkpt lat="42.84398" lon="2.24802">
        <ele>719.40002441406</ele>
        <time>2024-10-24T14:03:02.000Z</time>
      </trkpt>
      <trkpt lat="42.84401" lon="2.24797">
        <ele>717.20001220703</ele>
        <time>2024-10-24T14:03:03.000Z</time>
      </trkpt>
      <trkpt lat="42.84403" lon="2.24792">
        <ele>715.79998779297</ele>
        <time>2024-10-24T14:03:04.000Z</time>
      </trkpt>
      <trkpt lat="42.84405" lon="2.24782">
        <ele>714.20001220703</ele>
        <time>2024-10-24T14:03:06.000Z</time>
      </trkpt>
      <trkpt lat="42.84403" lon="2.24775">
        <ele>714.59997558594</ele>
        <time>2024-10-24T14:03:07.000Z</time>
      </trkpt>
      <trkpt lat="42.84408" lon="2.24764">
        <ele>709.59997558594</ele>
        <time>2024-10-24T14:03:09.000Z</time>
      </trkpt>
      <trkpt lat="42.84407" lon="2.24752">
        <ele>708</ele>
        <time>2024-10-24T14:03:11.000Z</time>
      </trkpt>
      <trkpt lat="42.84412" lon="2.24739">
        <ele>704.79998779297</ele>
        <time>2024-10-24T14:03:13.000Z</time>
      </trkpt>
      <trkpt lat="42.84411" lon="2.24728">
        <ele>703.79998779297</ele>
        <time>2024-10-24T14:03:15.000Z</time>
      </trkpt>
      <trkpt lat="42.84412" lon="2.24722">
        <ele>702.40002441406</ele>
        <time>2024-10-24T14:03:16.000Z</time>
      </trkpt>
      <trkpt lat="42.84408" lon="2.24701">
        <ele>702.59997558594</ele>
        <time>2024-10-24T14:03:19.000Z</time>
      </trkpt>
      <trkpt lat="42.84406" lon="2.24669">
        <ele>704.20001220703</ele>
        <time>2024-10-24T14:03:24.000Z</time>
      </trkpt>
      <trkpt lat="42.84405" lon="2.24662">
        <ele>704.79998779297</ele>
        <time>2024-10-24T14:03:25.000Z</time>
      </trkpt>
      <trkpt lat="42.84404" lon="2.24647">
        <ele>706.40002441406</ele>
        <time>2024-10-24T14:03:27.000Z</time>
      </trkpt>
      <trkpt lat="42.84404" lon="2.24641">
        <ele>706.79998779297</ele>
        <time>2024-10-24T14:03:28.000Z</time>
      </trkpt>
      <trkpt lat="42.84404" lon="2.24635">
        <ele>707.20001220703</ele>
        <time>2024-10-24T14:03:29.000Z</time>
      </trkpt>
      <trkpt lat="42.84407" lon="2.24625">
        <ele>704.59997558594</ele>
        <time>2024-10-24T14:03:31.000Z</time>
      </trkpt>
      <trkpt lat="42.84412" lon="2.24613">
        <ele>701.59997558594</ele>
        <time>2024-10-24T14:03:34.000Z</time>
      </trkpt>
      <trkpt lat="42.84412" lon="2.24607">
        <ele>701.40002441406</ele>
        <time>2024-10-24T14:03:35.000Z</time>
      </trkpt>
      <trkpt lat="42.84413" lon="2.246">
        <ele>700.79998779297</ele>
        <time>2024-10-24T14:03:36.000Z</time>
      </trkpt>
      <trkpt lat="42.84411" lon="2.24574">
        <ele>700.79998779297</ele>
        <time>2024-10-24T14:03:40.000Z</time>
      </trkpt>
      <trkpt lat="42.84412" lon="2.24563">
        <ele>699.59997558594</ele>
        <time>2024-10-24T14:03:42.000Z</time>
      </trkpt>
      <trkpt lat="42.84412" lon="2.24545">
        <ele>697.20001220703</ele>
        <time>2024-10-24T14:03:45.000Z</time>
      </trkpt>
      <trkpt lat="42.84413" lon="2.24539">
        <ele>696.20001220703</ele>
        <time>2024-10-24T14:03:46.000Z</time>
      </trkpt>
      <trkpt lat="42.84415" lon="2.24515">
        <ele>694.20001220703</ele>
        <time>2024-10-24T14:03:50.000Z</time>
      </trkpt>
      <trkpt lat="42.84418" lon="2.24502">
        <ele>693.40002441406</ele>
        <time>2024-10-24T14:03:52.000Z</time>
      </trkpt>
      <trkpt lat="42.8442" lon="2.24491">
        <ele>692.79998779297</ele>
        <time>2024-10-24T14:03:54.000Z</time>
      </trkpt>
      <trkpt lat="42.84422" lon="2.2448">
        <ele>691.40002441406</ele>
        <time>2024-10-24T14:03:56.000Z</time>
      </trkpt>
      <trkpt lat="42.84427" lon="2.24468">
        <ele>688.79998779297</ele>
        <time>2024-10-24T14:03:58.000Z</time>
      </trkpt>
      <trkpt lat="42.8443" lon="2.24456">
        <ele>688.40002441406</ele>
        <time>2024-10-24T14:04:00.000Z</time>
      </trkpt>
      <trkpt lat="42.84432" lon="2.24444">
        <ele>688.79998779297</ele>
        <time>2024-10-24T14:04:02.000Z</time>
      </trkpt>
      <trkpt lat="42.84439" lon="2.24417">
        <ele>685.79998779297</ele>
        <time>2024-10-24T14:04:06.000Z</time>
      </trkpt>
      <trkpt lat="42.84441" lon="2.24411">
        <ele>683.79998779297</ele>
        <time>2024-10-24T14:04:07.000Z</time>
      </trkpt>
      <trkpt lat="42.84447" lon="2.24401">
        <ele>680.59997558594</ele>
        <time>2024-10-24T14:04:09.000Z</time>
      </trkpt>
      <trkpt lat="42.84455" lon="2.24392">
        <ele>678</ele>
        <time>2024-10-24T14:04:11.000Z</time>
      </trkpt>
      <trkpt lat="42.84469" lon="2.24382">
        <ele>673.40002441406</ele>
        <time>2024-10-24T14:04:14.000Z</time>
      </trkpt>
      <trkpt lat="42.84474" lon="2.24381">
        <ele>671.40002441406</ele>
        <time>2024-10-24T14:04:15.000Z</time>
      </trkpt>
      <trkpt lat="42.84492" lon="2.2438">
        <ele>664.59997558594</ele>
        <time>2024-10-24T14:04:19.000Z</time>
      </trkpt>
      <trkpt lat="42.84501" lon="2.24374">
        <ele>661.79998779297</ele>
        <time>2024-10-24T14:04:22.000Z</time>
      </trkpt>
      <trkpt lat="42.84513" lon="2.24351">
        <ele>657</ele>
        <time>2024-10-24T14:04:26.000Z</time>
      </trkpt>
      <trkpt lat="42.84515" lon="2.24329">
        <ele>654.20001220703</ele>
        <time>2024-10-24T14:04:30.000Z</time>
      </trkpt>
      <trkpt lat="42.84508" lon="2.2432">
        <ele>655.40002441406</ele>
        <time>2024-10-24T14:04:32.000Z</time>
      </trkpt>
      <trkpt lat="42.84503" lon="2.24316">
        <ele>656.79998779297</ele>
        <time>2024-10-24T14:04:33.000Z</time>
      </trkpt>
      <trkpt lat="42.84493" lon="2.24306">
        <ele>659.40002441406</ele>
        <time>2024-10-24T14:04:36.000Z</time>
      </trkpt>
      <trkpt lat="42.8449" lon="2.24301">
        <ele>659.59997558594</ele>
        <time>2024-10-24T14:04:37.000Z</time>
      </trkpt>
      <trkpt lat="42.84479" lon="2.24269">
        <ele>657.79998779297</ele>
        <time>2024-10-24T14:04:42.000Z</time>
      </trkpt>
      <trkpt lat="42.84473" lon="2.24259">
        <ele>657.20001220703</ele>
        <time>2024-10-24T14:04:44.000Z</time>
      </trkpt>
      <trkpt lat="42.84466" lon="2.24248">
        <ele>657.20001220703</ele>
        <time>2024-10-24T14:04:46.000Z</time>
      </trkpt>
      <trkpt lat="42.84462" lon="2.24243">
        <ele>657.40002441406</ele>
        <time>2024-10-24T14:04:47.000Z</time>
      </trkpt>
      <trkpt lat="42.84458" lon="2.2423">
        <ele>656.40002441406</ele>
        <time>2024-10-24T14:04:49.000Z</time>
      </trkpt>
      <trkpt lat="42.84458" lon="2.24223">
        <ele>655</ele>
        <time>2024-10-24T14:04:50.000Z</time>
      </trkpt>
      <trkpt lat="42.84459" lon="2.24203">
        <ele>650.79998779297</ele>
        <time>2024-10-24T14:04:53.000Z</time>
      </trkpt>
      <trkpt lat="42.84457" lon="2.24192">
        <ele>649</ele>
        <time>2024-10-24T14:04:55.000Z</time>
      </trkpt>
      <trkpt lat="42.84453" lon="2.24179">
        <ele>647</ele>
        <time>2024-10-24T14:04:59.000Z</time>
      </trkpt>
      <trkpt lat="42.84451" lon="2.24164">
        <ele>644</ele>
        <time>2024-10-24T14:05:03.000Z</time>
      </trkpt>
      <trkpt lat="42.84448" lon="2.24151">
        <ele>642.40002441406</ele>
        <time>2024-10-24T14:05:05.000Z</time>
      </trkpt>
      <trkpt lat="42.84447" lon="2.24137">
        <ele>640</ele>
        <time>2024-10-24T14:05:07.000Z</time>
      </trkpt>
      <trkpt lat="42.84447" lon="2.24124">
        <ele>637.20001220703</ele>
        <time>2024-10-24T14:05:09.000Z</time>
      </trkpt>
      <trkpt lat="42.84445" lon="2.2411">
        <ele>636.20001220703</ele>
        <time>2024-10-24T14:05:11.000Z</time>
      </trkpt>
      <trkpt lat="42.84438" lon="2.24092">
        <ele>635.59997558594</ele>
        <time>2024-10-24T14:05:14.000Z</time>
      </trkpt>
      <trkpt lat="42.84435" lon="2.24087">
        <ele>635.40002441406</ele>
        <time>2024-10-24T14:05:15.000Z</time>
      </trkpt>
      <trkpt lat="42.84425" lon="2.24065">
        <ele>635.20001220703</ele>
        <time>2024-10-24T14:05:19.000Z</time>
      </trkpt>
      <trkpt lat="42.84423" lon="2.2406">
        <ele>635.40002441406</ele>
        <time>2024-10-24T14:05:20.000Z</time>
      </trkpt>
      <trkpt lat="42.84419" lon="2.24056">
        <ele>636.20001220703</ele>
        <time>2024-10-24T14:05:21.000Z</time>
      </trkpt>
      <trkpt lat="42.84404" lon="2.24037">
        <ele>639.20001220703</ele>
        <time>2024-10-24T14:05:25.000Z</time>
      </trkpt>
      <trkpt lat="42.84398" lon="2.24025">
        <ele>639.59997558594</ele>
        <time>2024-10-24T14:05:27.000Z</time>
      </trkpt>
      <trkpt lat="42.84397" lon="2.24019">
        <ele>639.59997558594</ele>
        <time>2024-10-24T14:05:28.000Z</time>
      </trkpt>
      <trkpt lat="42.84397" lon="2.24012">
        <ele>640</ele>
        <time>2024-10-24T14:05:29.000Z</time>
      </trkpt>
      <trkpt lat="42.84399" lon="2.23998">
        <ele>639.59997558594</ele>
        <time>2024-10-24T14:05:31.000Z</time>
      </trkpt>
      <trkpt lat="42.84402" lon="2.23992">
        <ele>638.79998779297</ele>
        <time>2024-10-24T14:05:32.000Z</time>
      </trkpt>
      <trkpt lat="42.84412" lon="2.23977">
        <ele>636.79998779297</ele>
        <time>2024-10-24T14:05:36.000Z</time>
      </trkpt>
      <trkpt lat="42.84418" lon="2.2397">
        <ele>634.59997558594</ele>
        <time>2024-10-24T14:05:38.000Z</time>
      </trkpt>
      <trkpt lat="42.84425" lon="2.23963">
        <ele>632</ele>
        <time>2024-10-24T14:05:40.000Z</time>
      </trkpt>
      <trkpt lat="42.84428" lon="2.23959">
        <ele>631.20001220703</ele>
        <time>2024-10-24T14:05:41.000Z</time>
      </trkpt>
      <trkpt lat="42.84442" lon="2.23941">
        <ele>627</ele>
        <time>2024-10-24T14:05:46.000Z</time>
      </trkpt>
      <trkpt lat="42.84459" lon="2.23925">
        <ele>619.59997558594</ele>
        <time>2024-10-24T14:05:52.000Z</time>
      </trkpt>
      <trkpt lat="42.84462" lon="2.23921">
        <ele>618.59997558594</ele>
        <time>2024-10-24T14:05:53.000Z</time>
      </trkpt>
      <trkpt lat="42.84467" lon="2.23903">
        <ele>617.79998779297</ele>
        <time>2024-10-24T14:05:56.000Z</time>
      </trkpt>
      <trkpt lat="42.84473" lon="2.23879">
        <ele>618.59997558594</ele>
        <time>2024-10-24T14:06:00.000Z</time>
      </trkpt>
      <trkpt lat="42.84477" lon="2.23869">
        <ele>618.40002441406</ele>
        <time>2024-10-24T14:06:02.000Z</time>
      </trkpt>
      <trkpt lat="42.84479" lon="2.23864">
        <ele>618.20001220703</ele>
        <time>2024-10-24T14:06:03.000Z</time>
      </trkpt>
      <trkpt lat="42.84484" lon="2.23853">
        <ele>617.40002441406</ele>
        <time>2024-10-24T14:06:05.000Z</time>
      </trkpt>
      <trkpt lat="42.8449" lon="2.23842">
        <ele>615.59997558594</ele>
        <time>2024-10-24T14:06:07.000Z</time>
      </trkpt>
      <trkpt lat="42.84494" lon="2.23831">
        <ele>613.79998779297</ele>
        <time>2024-10-24T14:06:09.000Z</time>
      </trkpt>
      <trkpt lat="42.84509" lon="2.23808">
        <ele>605.59997558594</ele>
        <time>2024-10-24T14:06:14.000Z</time>
      </trkpt>
      <trkpt lat="42.84512" lon="2.23803">
        <ele>603.40002441406</ele>
        <time>2024-10-24T14:06:15.000Z</time>
      </trkpt>
      <trkpt lat="42.84514" lon="2.23797">
        <ele>602.40002441406</ele>
        <time>2024-10-24T14:06:16.000Z</time>
      </trkpt>
      <trkpt lat="42.84519" lon="2.23777">
        <ele>601.40002441406</ele>
        <time>2024-10-24T14:06:19.000Z</time>
      </trkpt>
      <trkpt lat="42.84518" lon="2.23754">
        <ele>600</ele>
        <time>2024-10-24T14:06:22.000Z</time>
      </trkpt>
      <trkpt lat="42.8452" lon="2.23741">
        <ele>598.79998779297</ele>
        <time>2024-10-24T14:06:24.000Z</time>
      </trkpt>
      <trkpt lat="42.84521" lon="2.23735">
        <ele>598.40002441406</ele>
        <time>2024-10-24T14:06:25.000Z</time>
      </trkpt>
      <trkpt lat="42.84521" lon="2.23708">
        <ele>597.59997558594</ele>
        <time>2024-10-24T14:06:29.000Z</time>
      </trkpt>
      <trkpt lat="42.84518" lon="2.23681">
        <ele>597</ele>
        <time>2024-10-24T14:06:33.000Z</time>
      </trkpt>
      <trkpt lat="42.84518" lon="2.23676">
        <ele>595.59997558594</ele>
        <time>2024-10-24T14:06:34.000Z</time>
      </trkpt>
      <trkpt lat="42.84518" lon="2.23665">
        <ele>592.79998779297</ele>
        <time>2024-10-24T14:06:36.000Z</time>
      </trkpt>
      <trkpt lat="42.84516" lon="2.23651">
        <ele>591.20001220703</ele>
        <time>2024-10-24T14:06:38.000Z</time>
      </trkpt>
      <trkpt lat="42.84512" lon="2.2364">
        <ele>590.59997558594</ele>
        <time>2024-10-24T14:06:40.000Z</time>
      </trkpt>
      <trkpt lat="42.84507" lon="2.23628">
        <ele>591.20001220703</ele>
        <time>2024-10-24T14:06:42.000Z</time>
      </trkpt>
      <trkpt lat="42.84499" lon="2.23611">
        <ele>591.79998779297</ele>
        <time>2024-10-24T14:06:45.000Z</time>
      </trkpt>
      <trkpt lat="42.84497" lon="2.23599">
        <ele>591.20001220703</ele>
        <time>2024-10-24T14:06:47.000Z</time>
      </trkpt>
      <trkpt lat="42.84497" lon="2.23576">
        <ele>589.20001220703</ele>
        <time>2024-10-24T14:06:51.000Z</time>
      </trkpt>
      <trkpt lat="42.84497" lon="2.23554">
        <ele>590.20001220703</ele>
        <time>2024-10-24T14:06:54.000Z</time>
      </trkpt>
      <trkpt lat="42.84496" lon="2.23535">
        <ele>591.20001220703</ele>
        <time>2024-10-24T14:06:57.000Z</time>
      </trkpt>
      <trkpt lat="42.84496" lon="2.23522">
        <ele>592</ele>
        <time>2024-10-24T14:06:59.000Z</time>
      </trkpt>
      <trkpt lat="42.84498" lon="2.23511">
        <ele>590.20001220703</ele>
        <time>2024-10-24T14:07:01.000Z</time>
      </trkpt>
      <trkpt lat="42.84499" lon="2.23505">
        <ele>589.59997558594</ele>
        <time>2024-10-24T14:07:02.000Z</time>
      </trkpt>
      <trkpt lat="42.84502" lon="2.23489">
        <ele>587.59997558594</ele>
        <time>2024-10-24T14:07:05.000Z</time>
      </trkpt>
      <trkpt lat="42.84504" lon="2.23484">
        <ele>585.79998779297</ele>
        <time>2024-10-24T14:07:06.000Z</time>
      </trkpt>
      <trkpt lat="42.84506" lon="2.23479">
        <ele>584.40002441406</ele>
        <time>2024-10-24T14:07:07.000Z</time>
      </trkpt>
      <trkpt lat="42.84509" lon="2.23458">
        <ele>582</ele>
        <time>2024-10-24T14:07:11.000Z</time>
      </trkpt>
      <trkpt lat="42.8451" lon="2.23446">
        <ele>581</ele>
        <time>2024-10-24T14:07:13.000Z</time>
      </trkpt>
      <trkpt lat="42.84516" lon="2.23413">
        <ele>574.20001220703</ele>
        <time>2024-10-24T14:07:19.000Z</time>
      </trkpt>
      <trkpt lat="42.8452" lon="2.23396">
        <ele>568.79998779297</ele>
        <time>2024-10-24T14:07:22.000Z</time>
      </trkpt>
      <trkpt lat="42.84523" lon="2.23382">
        <ele>566.40002441406</ele>
        <time>2024-10-24T14:07:24.000Z</time>
      </trkpt>
      <trkpt lat="42.84526" lon="2.23367">
        <ele>564</ele>
        <time>2024-10-24T14:07:26.000Z</time>
      </trkpt>
      <trkpt lat="42.8453" lon="2.23344">
        <ele>560.40002441406</ele>
        <time>2024-10-24T14:07:29.000Z</time>
      </trkpt>
      <trkpt lat="42.84532" lon="2.2333">
        <ele>558</ele>
        <time>2024-10-24T14:07:31.000Z</time>
      </trkpt>
      <trkpt lat="42.84533" lon="2.23316">
        <ele>555.59997558594</ele>
        <time>2024-10-24T14:07:33.000Z</time>
      </trkpt>
      <trkpt lat="42.84532" lon="2.2331">
        <ele>555.59997558594</ele>
        <time>2024-10-24T14:07:34.000Z</time>
      </trkpt>
      <trkpt lat="42.8453" lon="2.23305">
        <ele>556</ele>
        <time>2024-10-24T14:07:35.000Z</time>
      </trkpt>
      <trkpt lat="42.84522" lon="2.23296">
        <ele>557</ele>
        <time>2024-10-24T14:07:37.000Z</time>
      </trkpt>
      <trkpt lat="42.84507" lon="2.23287">
        <ele>557.79998779297</ele>
        <time>2024-10-24T14:07:40.000Z</time>
      </trkpt>
      <trkpt lat="42.84499" lon="2.23279">
        <ele>557.79998779297</ele>
        <time>2024-10-24T14:07:42.000Z</time>
      </trkpt>
      <trkpt lat="42.84471" lon="2.23253">
        <ele>560.59997558594</ele>
        <time>2024-10-24T14:07:48.000Z</time>
      </trkpt>
      <trkpt lat="42.84459" lon="2.2324">
        <ele>562.59997558594</ele>
        <time>2024-10-24T14:07:52.000Z</time>
      </trkpt>
      <trkpt lat="42.84458" lon="2.2324">
        <ele>563</ele>
        <time>2024-10-24T14:07:53.000Z</time>
      </trkpt>
      <trkpt lat="42.8445" lon="2.23237">
        <ele>565.59997558594</ele>
        <time>2024-10-24T14:10:46.000Z</time>
      </trkpt>
      <trkpt lat="42.84448" lon="2.23235">
        <ele>566.20001220703</ele>
        <time>2024-10-24T14:10:47.000Z</time>
      </trkpt>
      <trkpt lat="42.84446" lon="2.23232">
        <ele>566.59997558594</ele>
        <time>2024-10-24T14:10:48.000Z</time>
      </trkpt>
      <trkpt lat="42.84444" lon="2.23223">
        <ele>565.79998779297</ele>
        <time>2024-10-24T14:10:50.000Z</time>
      </trkpt>
      <trkpt lat="42.84444" lon="2.23212">
        <ele>564.40002441406</ele>
        <time>2024-10-24T14:10:52.000Z</time>
      </trkpt>
      <trkpt lat="42.84446" lon="2.23207">
        <ele>563.59997558594</ele>
        <time>2024-10-24T14:10:53.000Z</time>
      </trkpt>
      <trkpt lat="42.84451" lon="2.23198">
        <ele>559.40002441406</ele>
        <time>2024-10-24T14:10:55.000Z</time>
      </trkpt>
      <trkpt lat="42.84458" lon="2.23189">
        <ele>555.20001220703</ele>
        <time>2024-10-24T14:10:57.000Z</time>
      </trkpt>
      <trkpt lat="42.84475" lon="2.23168">
        <ele>548.59997558594</ele>
        <time>2024-10-24T14:11:01.000Z</time>
      </trkpt>
      <trkpt lat="42.84481" lon="2.23154">
        <ele>545.79998779297</ele>
        <time>2024-10-24T14:11:03.000Z</time>
      </trkpt>
      <trkpt lat="42.84485" lon="2.23139">
        <ele>543</ele>
        <time>2024-10-24T14:11:05.000Z</time>
      </trkpt>
      <trkpt lat="42.84488" lon="2.23108">
        <ele>543.79998779297</ele>
        <time>2024-10-24T14:11:09.000Z</time>
      </trkpt>
      <trkpt lat="42.8449" lon="2.23102">
        <ele>543.20001220703</ele>
        <time>2024-10-24T14:11:10.000Z</time>
      </trkpt>
      <trkpt lat="42.84495" lon="2.2309">
        <ele>543.20001220703</ele>
        <time>2024-10-24T14:11:12.000Z</time>
      </trkpt>
      <trkpt lat="42.84502" lon="2.2308">
        <ele>540.40002441406</ele>
        <time>2024-10-24T14:11:14.000Z</time>
      </trkpt>
      <trkpt lat="42.84514" lon="2.23059">
        <ele>538.20001220703</ele>
        <time>2024-10-24T14:11:18.000Z</time>
      </trkpt>
      <trkpt lat="42.84518" lon="2.23054">
        <ele>537.59997558594</ele>
        <time>2024-10-24T14:11:19.000Z</time>
      </trkpt>
      <trkpt lat="42.84536" lon="2.23034">
        <ele>530.59997558594</ele>
        <time>2024-10-24T14:11:24.000Z</time>
      </trkpt>
      <trkpt lat="42.84545" lon="2.23028">
        <ele>528.59997558594</ele>
        <time>2024-10-24T14:11:26.000Z</time>
      </trkpt>
      <trkpt lat="42.84552" lon="2.23019">
        <ele>525.79998779297</ele>
        <time>2024-10-24T14:11:28.000Z</time>
      </trkpt>
      <trkpt lat="42.84555" lon="2.23013">
        <ele>525.20001220703</ele>
        <time>2024-10-24T14:11:29.000Z</time>
      </trkpt>
      <trkpt lat="42.84557" lon="2.23008">
        <ele>524.40002441406</ele>
        <time>2024-10-24T14:11:30.000Z</time>
      </trkpt>
      <trkpt lat="42.84558" lon="2.22996">
        <ele>524.40002441406</ele>
        <time>2024-10-24T14:11:32.000Z</time>
      </trkpt>
      <trkpt lat="42.84557" lon="2.22973">
        <ele>526.20001220703</ele>
        <time>2024-10-24T14:11:36.000Z</time>
      </trkpt>
      <trkpt lat="42.84558" lon="2.22968">
        <ele>526.20001220703</ele>
        <time>2024-10-24T14:11:37.000Z</time>
      </trkpt>
      <trkpt lat="42.8456" lon="2.22964">
        <ele>525.59997558594</ele>
        <time>2024-10-24T14:11:38.000Z</time>
      </trkpt>
      <trkpt lat="42.84566" lon="2.22955">
        <ele>523.40002441406</ele>
        <time>2024-10-24T14:11:40.000Z</time>
      </trkpt>
      <trkpt lat="42.8457" lon="2.22951">
        <ele>522</ele>
        <time>2024-10-24T14:11:41.000Z</time>
      </trkpt>
      <trkpt lat="42.84576" lon="2.22945">
        <ele>520.20001220703</ele>
        <time>2024-10-24T14:11:43.000Z</time>
      </trkpt>
      <trkpt lat="42.84594" lon="2.22927">
        <ele>510.79998779297</ele>
        <time>2024-10-24T14:11:47.000Z</time>
      </trkpt>
      <trkpt lat="42.84606" lon="2.22915">
        <ele>505.60000610352</ele>
        <time>2024-10-24T14:11:50.000Z</time>
      </trkpt>
      <trkpt lat="42.84615" lon="2.22911">
        <ele>503.39999389648</ele>
        <time>2024-10-24T14:11:52.000Z</time>
      </trkpt>
      <trkpt lat="42.84622" lon="2.22909">
        <ele>501.79998779297</ele>
        <time>2024-10-24T14:11:55.000Z</time>
      </trkpt>
      <trkpt lat="42.84622" lon="2.22908">
        <ele>501.79998779297</ele>
        <time>2024-10-24T14:11:56.000Z</time>
      </trkpt>
      <trkpt lat="42.84624" lon="2.22905">
        <ele>501.60000610352</ele>
        <time>2024-10-24T14:15:38.000Z</time>
      </trkpt>
      <trkpt lat="42.84626" lon="2.22902">
        <ele>501.39999389648</ele>
        <time>2024-10-24T14:15:39.000Z</time>
      </trkpt>
      <trkpt lat="42.84629" lon="2.22898">
        <ele>501</ele>
        <time>2024-10-24T14:15:40.000Z</time>
      </trkpt>
      <trkpt lat="42.8463" lon="2.22888">
        <ele>500.79998779297</ele>
        <time>2024-10-24T14:15:42.000Z</time>
      </trkpt>
      <trkpt lat="42.84621" lon="2.2288">
        <ele>501</ele>
        <time>2024-10-24T14:15:45.000Z</time>
      </trkpt>
      <trkpt lat="42.84608" lon="2.22877">
        <ele>504.60000610352</ele>
        <time>2024-10-24T14:15:48.000Z</time>
      </trkpt>
      <trkpt lat="42.84603" lon="2.22874">
        <ele>506</ele>
        <time>2024-10-24T14:15:49.000Z</time>
      </trkpt>
      <trkpt lat="42.84598" lon="2.2287">
        <ele>507.20001220703</ele>
        <time>2024-10-24T14:15:50.000Z</time>
      </trkpt>
      <trkpt lat="42.84593" lon="2.22859">
        <ele>508</ele>
        <time>2024-10-24T14:15:52.000Z</time>
      </trkpt>
      <trkpt lat="42.84593" lon="2.22846">
        <ele>508.20001220703</ele>
        <time>2024-10-24T14:15:54.000Z</time>
      </trkpt>
      <trkpt lat="42.84595" lon="2.2284">
        <ele>508</ele>
        <time>2024-10-24T14:15:55.000Z</time>
      </trkpt>
      <trkpt lat="42.84599" lon="2.22835">
        <ele>507.39999389648</ele>
        <time>2024-10-24T14:15:56.000Z</time>
      </trkpt>
      <trkpt lat="42.84607" lon="2.22824">
        <ele>505</ele>
        <time>2024-10-24T14:15:58.000Z</time>
      </trkpt>
      <trkpt lat="42.84613" lon="2.22819">
        <ele>503.39999389648</ele>
        <time>2024-10-24T14:15:59.000Z</time>
      </trkpt>
      <trkpt lat="42.84634" lon="2.22797">
        <ele>498.60000610352</ele>
        <time>2024-10-24T14:16:03.000Z</time>
      </trkpt>
      <trkpt lat="42.84644" lon="2.22789">
        <ele>496.39999389648</ele>
        <time>2024-10-24T14:16:05.000Z</time>
      </trkpt>
      <trkpt lat="42.84654" lon="2.22783">
        <ele>493.79998779297</ele>
        <time>2024-10-24T14:16:07.000Z</time>
      </trkpt>
      <trkpt lat="42.84664" lon="2.2278">
        <ele>492.39999389648</ele>
        <time>2024-10-24T14:16:09.000Z</time>
      </trkpt>
      <trkpt lat="42.84675" lon="2.2278">
        <ele>491.20001220703</ele>
        <time>2024-10-24T14:16:11.000Z</time>
      </trkpt>
      <trkpt lat="42.8468" lon="2.22781">
        <ele>490.60000610352</ele>
        <time>2024-10-24T14:16:12.000Z</time>
      </trkpt>
      <trkpt lat="42.8469" lon="2.22783">
        <ele>489.60000610352</ele>
        <time>2024-10-24T14:16:14.000Z</time>
      </trkpt>
      <trkpt lat="42.84694" lon="2.22786">
        <ele>489.20001220703</ele>
        <time>2024-10-24T14:16:15.000Z</time>
      </trkpt>
      <trkpt lat="42.84702" lon="2.22792">
        <ele>488.39999389648</ele>
        <time>2024-10-24T14:16:17.000Z</time>
      </trkpt>
      <trkpt lat="42.84717" lon="2.22801">
        <ele>485.79998779297</ele>
        <time>2024-10-24T14:16:20.000Z</time>
      </trkpt>
      <trkpt lat="42.84728" lon="2.22805">
        <ele>483.60000610352</ele>
        <time>2024-10-24T14:16:22.000Z</time>
      </trkpt>
      <trkpt lat="42.84738" lon="2.22804">
        <ele>481.79998779297</ele>
        <time>2024-10-24T14:16:24.000Z</time>
      </trkpt>
      <trkpt lat="42.84754" lon="2.22793">
        <ele>480.20001220703</ele>
        <time>2024-10-24T14:16:27.000Z</time>
      </trkpt>
      <trkpt lat="42.84758" lon="2.22788">
        <ele>479.79998779297</ele>
        <time>2024-10-24T14:16:28.000Z</time>
      </trkpt>
      <trkpt lat="42.84763" lon="2.22782">
        <ele>479.39999389648</ele>
        <time>2024-10-24T14:16:29.000Z</time>
      </trkpt>
      <trkpt lat="42.84772" lon="2.2277">
        <ele>479</ele>
        <time>2024-10-24T14:16:31.000Z</time>
      </trkpt>
      <trkpt lat="42.84775" lon="2.22764">
        <ele>479</ele>
        <time>2024-10-24T14:16:32.000Z</time>
      </trkpt>
      <trkpt lat="42.84779" lon="2.22758">
        <ele>479.20001220703</ele>
        <time>2024-10-24T14:16:34.000Z</time>
      </trkpt>
      <trkpt lat="42.84779" lon="2.22756">
        <ele>479.60000610352</ele>
        <time>2024-10-24T14:16:35.000Z</time>
      </trkpt>
      <trkpt lat="42.84779" lon="2.22746">
        <ele>481.39999389648</ele>
        <time>2024-10-24T14:17:31.000Z</time>
      </trkpt>
      <trkpt lat="42.84781" lon="2.22743">
        <ele>481.39999389648</ele>
        <time>2024-10-24T14:17:32.000Z</time>
      </trkpt>
      <trkpt lat="42.84791" lon="2.22723">
        <ele>480.79998779297</ele>
        <time>2024-10-24T14:17:36.000Z</time>
      </trkpt>
      <trkpt lat="42.84797" lon="2.22705">
        <ele>479.79998779297</ele>
        <time>2024-10-24T14:17:39.000Z</time>
      </trkpt>
      <trkpt lat="42.84799" lon="2.22699">
        <ele>479.39999389648</ele>
        <time>2024-10-24T14:17:40.000Z</time>
      </trkpt>
      <trkpt lat="42.84802" lon="2.22693">
        <ele>479.60000610352</ele>
        <time>2024-10-24T14:17:41.000Z</time>
      </trkpt>
      <trkpt lat="42.84812" lon="2.22678">
        <ele>477.79998779297</ele>
        <time>2024-10-24T14:17:44.000Z</time>
      </trkpt>
      <trkpt lat="42.84825" lon="2.22664">
        <ele>474.79998779297</ele>
        <time>2024-10-24T14:17:47.000Z</time>
      </trkpt>
      <trkpt lat="42.8483" lon="2.22661">
        <ele>474</ele>
        <time>2024-10-24T14:17:48.000Z</time>
      </trkpt>
      <trkpt lat="42.84852" lon="2.22647">
        <ele>470.39999389648</ele>
        <time>2024-10-24T14:17:52.000Z</time>
      </trkpt>
      <trkpt lat="42.84862" lon="2.22642">
        <ele>467.60000610352</ele>
        <time>2024-10-24T14:17:54.000Z</time>
      </trkpt>
      <trkpt lat="42.84873" lon="2.22637">
        <ele>464</ele>
        <time>2024-10-24T14:17:56.000Z</time>
      </trkpt>
      <trkpt lat="42.84879" lon="2.22634">
        <ele>462.39999389648</ele>
        <time>2024-10-24T14:17:57.000Z</time>
      </trkpt>
      <trkpt lat="42.84889" lon="2.22625">
        <ele>460.20001220703</ele>
        <time>2024-10-24T14:17:59.000Z</time>
      </trkpt>
      <trkpt lat="42.849" lon="2.22613">
        <ele>457.79998779297</ele>
        <time>2024-10-24T14:18:01.000Z</time>
      </trkpt>
      <trkpt lat="42.84914" lon="2.22592">
        <ele>456.79998779297</ele>
        <time>2024-10-24T14:18:04.000Z</time>
      </trkpt>
      <trkpt lat="42.84917" lon="2.22584">
        <ele>456.20001220703</ele>
        <time>2024-10-24T14:18:05.000Z</time>
      </trkpt>
      <trkpt lat="42.84932" lon="2.22537">
        <ele>452.79998779297</ele>
        <time>2024-10-24T14:18:10.000Z</time>
      </trkpt>
      <trkpt lat="42.84935" lon="2.22528">
        <ele>451.39999389648</ele>
        <time>2024-10-24T14:18:11.000Z</time>
      </trkpt>
      <trkpt lat="42.84943" lon="2.225">
        <ele>446.39999389648</ele>
        <time>2024-10-24T14:18:14.000Z</time>
      </trkpt>
      <trkpt lat="42.84946" lon="2.22484">
        <ele>444.39999389648</ele>
        <time>2024-10-24T14:18:16.000Z</time>
      </trkpt>
      <trkpt lat="42.84945" lon="2.22477">
        <ele>443.39999389648</ele>
        <time>2024-10-24T14:18:17.000Z</time>
      </trkpt>
      <trkpt lat="42.84942" lon="2.2247">
        <ele>443</ele>
        <time>2024-10-24T14:18:18.000Z</time>
      </trkpt>
      <trkpt lat="42.84933" lon="2.22459">
        <ele>443.20001220703</ele>
        <time>2024-10-24T14:18:20.000Z</time>
      </trkpt>
      <trkpt lat="42.84908" lon="2.22438">
        <ele>441.20001220703</ele>
        <time>2024-10-24T14:18:24.000Z</time>
      </trkpt>
      <trkpt lat="42.84902" lon="2.22436">
        <ele>440.79998779297</ele>
        <time>2024-10-24T14:18:25.000Z</time>
      </trkpt>
      <trkpt lat="42.84889" lon="2.22433">
        <ele>439.60000610352</ele>
        <time>2024-10-24T14:18:27.000Z</time>
      </trkpt>
      <trkpt lat="42.84877" lon="2.22435">
        <ele>438.60000610352</ele>
        <time>2024-10-24T14:18:29.000Z</time>
      </trkpt>
      <trkpt lat="42.84851" lon="2.22447">
        <ele>440.79998779297</ele>
        <time>2024-10-24T14:18:33.000Z</time>
      </trkpt>
      <trkpt lat="42.84835" lon="2.22461">
        <ele>443</ele>
        <time>2024-10-24T14:18:36.000Z</time>
      </trkpt>
      <trkpt lat="42.84831" lon="2.22465">
        <ele>443.79998779297</ele>
        <time>2024-10-24T14:18:37.000Z</time>
      </trkpt>
      <trkpt lat="42.84827" lon="2.22467">
        <ele>444.79998779297</ele>
        <time>2024-10-24T14:18:38.000Z</time>
      </trkpt>
      <trkpt lat="42.8482" lon="2.22462">
        <ele>445.20001220703</ele>
        <time>2024-10-24T14:18:40.000Z</time>
      </trkpt>
      <trkpt lat="42.84815" lon="2.22452">
        <ele>445.20001220703</ele>
        <time>2024-10-24T14:18:42.000Z</time>
      </trkpt>
      <trkpt lat="42.84815" lon="2.22446">
        <ele>444.79998779297</ele>
        <time>2024-10-24T14:18:43.000Z</time>
      </trkpt>
      <trkpt lat="42.84816" lon="2.2244">
        <ele>444.20001220703</ele>
        <time>2024-10-24T14:18:44.000Z</time>
      </trkpt>
      <trkpt lat="42.8482" lon="2.22429">
        <ele>443</ele>
        <time>2024-10-24T14:18:46.000Z</time>
      </trkpt>
      <trkpt lat="42.84837" lon="2.22384">
        <ele>438</ele>
        <time>2024-10-24T14:18:52.000Z</time>
      </trkpt>
      <trkpt lat="42.84844" lon="2.2235">
        <ele>438</ele>
        <time>2024-10-24T14:18:56.000Z</time>
      </trkpt>
      <trkpt lat="42.84847" lon="2.22342">
        <ele>438</ele>
        <time>2024-10-24T14:18:57.000Z</time>
      </trkpt>
      <trkpt lat="42.84851" lon="2.22334">
        <ele>437.60000610352</ele>
        <time>2024-10-24T14:18:58.000Z</time>
      </trkpt>
      <trkpt lat="42.84859" lon="2.22321">
        <ele>436.20001220703</ele>
        <time>2024-10-24T14:19:00.000Z</time>
      </trkpt>
      <trkpt lat="42.8487" lon="2.22299">
        <ele>433.39999389648</ele>
        <time>2024-10-24T14:19:03.000Z</time>
      </trkpt>
      <trkpt lat="42.84875" lon="2.22282">
        <ele>432.79998779297</ele>
        <time>2024-10-24T14:19:05.000Z</time>
      </trkpt>
      <trkpt lat="42.84888" lon="2.22248">
        <ele>430.60000610352</ele>
        <time>2024-10-24T14:19:09.000Z</time>
      </trkpt>
      <trkpt lat="42.84892" lon="2.22241">
        <ele>429.79998779297</ele>
        <time>2024-10-24T14:19:10.000Z</time>
      </trkpt>
      <trkpt lat="42.84902" lon="2.22227">
        <ele>427.39999389648</ele>
        <time>2024-10-24T14:19:12.000Z</time>
      </trkpt>
      <trkpt lat="42.84927" lon="2.22177">
        <ele>422.79998779297</ele>
        <time>2024-10-24T14:19:18.000Z</time>
      </trkpt>
      <trkpt lat="42.84937" lon="2.2214">
        <ele>419.79998779297</ele>
        <time>2024-10-24T14:19:22.000Z</time>
      </trkpt>
      <trkpt lat="42.84938" lon="2.22131">
        <ele>419</ele>
        <time>2024-10-24T14:19:23.000Z</time>
      </trkpt>
      <trkpt lat="42.84937" lon="2.22121">
        <ele>419.79998779297</ele>
        <time>2024-10-24T14:19:24.000Z</time>
      </trkpt>
      <trkpt lat="42.84932" lon="2.22102">
        <ele>420.60000610352</ele>
        <time>2024-10-24T14:19:26.000Z</time>
      </trkpt>
      <trkpt lat="42.84929" lon="2.22084">
        <ele>422</ele>
        <time>2024-10-24T14:19:28.000Z</time>
      </trkpt>
      <trkpt lat="42.84927" lon="2.22068">
        <ele>422.60000610352</ele>
        <time>2024-10-24T14:19:30.000Z</time>
      </trkpt>
      <trkpt lat="42.8493" lon="2.22053">
        <ele>421.39999389648</ele>
        <time>2024-10-24T14:19:32.000Z</time>
      </trkpt>
      <trkpt lat="42.84933" lon="2.22045">
        <ele>420.20001220703</ele>
        <time>2024-10-24T14:19:33.000Z</time>
      </trkpt>
      <trkpt lat="42.84949" lon="2.22008">
        <ele>413.20001220703</ele>
        <time>2024-10-24T14:19:38.000Z</time>
      </trkpt>
      <trkpt lat="42.84951" lon="2.21999">
        <ele>411.79998779297</ele>
        <time>2024-10-24T14:19:39.000Z</time>
      </trkpt>
      <trkpt lat="42.84951" lon="2.2199">
        <ele>410.79998779297</ele>
        <time>2024-10-24T14:19:40.000Z</time>
      </trkpt>
      <trkpt lat="42.84951" lon="2.21972">
        <ele>410.79998779297</ele>
        <time>2024-10-24T14:19:42.000Z</time>
      </trkpt>
      <trkpt lat="42.84949" lon="2.21963">
        <ele>411.20001220703</ele>
        <time>2024-10-24T14:19:43.000Z</time>
      </trkpt>
      <trkpt lat="42.84947" lon="2.21955">
        <ele>410.60000610352</ele>
        <time>2024-10-24T14:19:44.000Z</time>
      </trkpt>
      <trkpt lat="42.84935" lon="2.21931">
        <ele>410.60000610352</ele>
        <time>2024-10-24T14:19:47.000Z</time>
      </trkpt>
      <trkpt lat="42.84925" lon="2.2192">
        <ele>411.60000610352</ele>
        <time>2024-10-24T14:19:49.000Z</time>
      </trkpt>
      <trkpt lat="42.84919" lon="2.21916">
        <ele>412.39999389648</ele>
        <time>2024-10-24T14:19:50.000Z</time>
      </trkpt>
      <trkpt lat="42.84914" lon="2.21911">
        <ele>413</ele>
        <time>2024-10-24T14:19:51.000Z</time>
      </trkpt>
      <trkpt lat="42.84907" lon="2.219">
        <ele>413.79998779297</ele>
        <time>2024-10-24T14:19:53.000Z</time>
      </trkpt>
      <trkpt lat="42.84907" lon="2.21889">
        <ele>413.60000610352</ele>
        <time>2024-10-24T14:19:55.000Z</time>
      </trkpt>
      <trkpt lat="42.84908" lon="2.21882">
        <ele>412</ele>
        <time>2024-10-24T14:19:56.000Z</time>
      </trkpt>
      <trkpt lat="42.84916" lon="2.21861">
        <ele>408.39999389648</ele>
        <time>2024-10-24T14:19:59.000Z</time>
      </trkpt>
      <trkpt lat="42.84919" lon="2.21855">
        <ele>406.60000610352</ele>
        <time>2024-10-24T14:20:00.000Z</time>
      </trkpt>
      <trkpt lat="42.84922" lon="2.21848">
        <ele>404.79998779297</ele>
        <time>2024-10-24T14:20:01.000Z</time>
      </trkpt>
      <trkpt lat="42.84927" lon="2.21835">
        <ele>402.60000610352</ele>
        <time>2024-10-24T14:20:03.000Z</time>
      </trkpt>
      <trkpt lat="42.8493" lon="2.21828">
        <ele>401.39999389648</ele>
        <time>2024-10-24T14:20:04.000Z</time>
      </trkpt>
      <trkpt lat="42.84942" lon="2.21813">
        <ele>397.60000610352</ele>
        <time>2024-10-24T14:20:07.000Z</time>
      </trkpt>
      <trkpt lat="42.84949" lon="2.21801">
        <ele>394.60000610352</ele>
        <time>2024-10-24T14:20:09.000Z</time>
      </trkpt>
      <trkpt lat="42.84952" lon="2.21785">
        <ele>392.39999389648</ele>
        <time>2024-10-24T14:20:11.000Z</time>
      </trkpt>
      <trkpt lat="42.84951" lon="2.21777">
        <ele>391.39999389648</ele>
        <time>2024-10-24T14:20:12.000Z</time>
      </trkpt>
      <trkpt lat="42.8495" lon="2.21769">
        <ele>391</ele>
        <time>2024-10-24T14:20:13.000Z</time>
      </trkpt>
      <trkpt lat="42.84944" lon="2.21754">
        <ele>391.60000610352</ele>
        <time>2024-10-24T14:20:15.000Z</time>
      </trkpt>
      <trkpt lat="42.84941" lon="2.21747">
        <ele>392</ele>
        <time>2024-10-24T14:20:16.000Z</time>
      </trkpt>
      <trkpt lat="42.8494" lon="2.21731">
        <ele>392.60000610352</ele>
        <time>2024-10-24T14:20:18.000Z</time>
      </trkpt>
      <trkpt lat="42.84943" lon="2.21714">
        <ele>392.39999389648</ele>
        <time>2024-10-24T14:20:20.000Z</time>
      </trkpt>
      <trkpt lat="42.84946" lon="2.21707">
        <ele>391.60000610352</ele>
        <time>2024-10-24T14:20:21.000Z</time>
      </trkpt>
      <trkpt lat="42.84958" lon="2.21688">
        <ele>389.20001220703</ele>
        <time>2024-10-24T14:20:24.000Z</time>
      </trkpt>
      <trkpt lat="42.84961" lon="2.21681">
        <ele>388.20001220703</ele>
        <time>2024-10-24T14:20:25.000Z</time>
      </trkpt>
      <trkpt lat="42.84963" lon="2.21673">
        <ele>387.60000610352</ele>
        <time>2024-10-24T14:20:26.000Z</time>
      </trkpt>
      <trkpt lat="42.84963" lon="2.21665">
        <ele>387.39999389648</ele>
        <time>2024-10-24T14:20:27.000Z</time>
      </trkpt>
      <trkpt lat="42.84962" lon="2.21657">
        <ele>387.20001220703</ele>
        <time>2024-10-24T14:20:28.000Z</time>
      </trkpt>
      <trkpt lat="42.84956" lon="2.21632">
        <ele>386.60000610352</ele>
        <time>2024-10-24T14:20:31.000Z</time>
      </trkpt>
      <trkpt lat="42.84939" lon="2.21604">
        <ele>390</ele>
        <time>2024-10-24T14:20:35.000Z</time>
      </trkpt>
      <trkpt lat="42.84934" lon="2.21589">
        <ele>392</ele>
        <time>2024-10-24T14:20:37.000Z</time>
      </trkpt>
      <trkpt lat="42.84935" lon="2.21582">
        <ele>392.20001220703</ele>
        <time>2024-10-24T14:20:38.000Z</time>
      </trkpt>
      <trkpt lat="42.84936" lon="2.21575">
        <ele>391.60000610352</ele>
        <time>2024-10-24T14:20:39.000Z</time>
      </trkpt>
      <trkpt lat="42.84943" lon="2.21554">
        <ele>389.60000610352</ele>
        <time>2024-10-24T14:20:42.000Z</time>
      </trkpt>
      <trkpt lat="42.84946" lon="2.21542">
        <ele>388</ele>
        <time>2024-10-24T14:20:44.000Z</time>
      </trkpt>
      <trkpt lat="42.84949" lon="2.21528">
        <ele>385.39999389648</ele>
        <time>2024-10-24T14:20:46.000Z</time>
      </trkpt>
      <trkpt lat="42.84949" lon="2.21521">
        <ele>384.39999389648</ele>
        <time>2024-10-24T14:20:47.000Z</time>
      </trkpt>
      <trkpt lat="42.84953" lon="2.21474">
        <ele>377.20001220703</ele>
        <time>2024-10-24T14:20:53.000Z</time>
      </trkpt>
      <trkpt lat="42.84954" lon="2.21466">
        <ele>376.20001220703</ele>
        <time>2024-10-24T14:20:54.000Z</time>
      </trkpt>
      <trkpt lat="42.84959" lon="2.21449">
        <ele>375.20001220703</ele>
        <time>2024-10-24T14:20:56.000Z</time>
      </trkpt>
      <trkpt lat="42.84962" lon="2.21441">
        <ele>374.60000610352</ele>
        <time>2024-10-24T14:20:57.000Z</time>
      </trkpt>
      <trkpt lat="42.8497" lon="2.21419">
        <ele>373.60000610352</ele>
        <time>2024-10-24T14:21:00.000Z</time>
      </trkpt>
      <trkpt lat="42.84973" lon="2.21402">
        <ele>374.20001220703</ele>
        <time>2024-10-24T14:21:02.000Z</time>
      </trkpt>
      <trkpt lat="42.84973" lon="2.21384">
        <ele>375.39999389648</ele>
        <time>2024-10-24T14:21:04.000Z</time>
      </trkpt>
      <trkpt lat="42.84965" lon="2.21354">
        <ele>375.60000610352</ele>
        <time>2024-10-24T14:21:08.000Z</time>
      </trkpt>
      <trkpt lat="42.84964" lon="2.21337">
        <ele>374.79998779297</ele>
        <time>2024-10-24T14:21:10.000Z</time>
      </trkpt>
      <trkpt lat="42.84964" lon="2.21329">
        <ele>374</ele>
        <time>2024-10-24T14:21:11.000Z</time>
      </trkpt>
      <trkpt lat="42.84967" lon="2.21303">
        <ele>371</ele>
        <time>2024-10-24T14:21:14.000Z</time>
      </trkpt>
      <trkpt lat="42.84969" lon="2.21286">
        <ele>369</ele>
        <time>2024-10-24T14:21:16.000Z</time>
      </trkpt>
      <trkpt lat="42.84973" lon="2.2123">
        <ele>367.39999389648</ele>
        <time>2024-10-24T14:21:23.000Z</time>
      </trkpt>
      <trkpt lat="42.84974" lon="2.212">
        <ele>364.79998779297</ele>
        <time>2024-10-24T14:21:27.000Z</time>
      </trkpt>
      <trkpt lat="42.84975" lon="2.21194">
        <ele>364</ele>
        <time>2024-10-24T14:21:28.000Z</time>
      </trkpt>
      <trkpt lat="42.84978" lon="2.21175">
        <ele>360.79998779297</ele>
        <time>2024-10-24T14:21:31.000Z</time>
      </trkpt>
      <trkpt lat="42.84977" lon="2.21161">
        <ele>359.39999389648</ele>
        <time>2024-10-24T14:21:33.000Z</time>
      </trkpt>
      <trkpt lat="42.84977" lon="2.21153">
        <ele>358.60000610352</ele>
        <time>2024-10-24T14:21:34.000Z</time>
      </trkpt>
      <trkpt lat="42.84973" lon="2.21139">
        <ele>358.60000610352</ele>
        <time>2024-10-24T14:21:36.000Z</time>
      </trkpt>
      <trkpt lat="42.84969" lon="2.21131">
        <ele>359</ele>
        <time>2024-10-24T14:21:37.000Z</time>
      </trkpt>
      <trkpt lat="42.84962" lon="2.21116">
        <ele>360.39999389648</ele>
        <time>2024-10-24T14:21:39.000Z</time>
      </trkpt>
      <trkpt lat="42.84953" lon="2.21101">
        <ele>361.79998779297</ele>
        <time>2024-10-24T14:21:41.000Z</time>
      </trkpt>
      <trkpt lat="42.84932" lon="2.21063">
        <ele>360.39999389648</ele>
        <time>2024-10-24T14:21:45.000Z</time>
      </trkpt>
      <trkpt lat="42.84899" lon="2.20993">
        <ele>354.20001220703</ele>
        <time>2024-10-24T14:21:52.000Z</time>
      </trkpt>
      <trkpt lat="42.84891" lon="2.20971">
        <ele>353</ele>
        <time>2024-10-24T14:21:54.000Z</time>
      </trkpt>
      <trkpt lat="42.84886" lon="2.20949">
        <ele>350.20001220703</ele>
        <time>2024-10-24T14:21:56.000Z</time>
      </trkpt>
      <trkpt lat="42.84882" lon="2.20916">
        <ele>345.60000610352</ele>
        <time>2024-10-24T14:21:59.000Z</time>
      </trkpt>
      <trkpt lat="42.84882" lon="2.20906">
        <ele>344.79998779297</ele>
        <time>2024-10-24T14:22:00.000Z</time>
      </trkpt>
      <trkpt lat="42.84882" lon="2.20896">
        <ele>343.60000610352</ele>
        <time>2024-10-24T14:22:01.000Z</time>
      </trkpt>
      <trkpt lat="42.84886" lon="2.20871">
        <ele>340.39999389648</ele>
        <time>2024-10-24T14:22:04.000Z</time>
      </trkpt>
      <trkpt lat="42.84888" lon="2.20863">
        <ele>339.79998779297</ele>
        <time>2024-10-24T14:22:05.000Z</time>
      </trkpt>
      <trkpt lat="42.84893" lon="2.20843">
        <ele>338.20001220703</ele>
        <time>2024-10-24T14:22:07.000Z</time>
      </trkpt>
      <trkpt lat="42.84899" lon="2.20818">
        <ele>336.39999389648</ele>
        <time>2024-10-24T14:22:10.000Z</time>
      </trkpt>
      <trkpt lat="42.84901" lon="2.20804">
        <ele>335.60000610352</ele>
        <time>2024-10-24T14:22:13.000Z</time>
      </trkpt>
      <trkpt lat="42.849" lon="2.20799">
        <ele>335.20001220703</ele>
        <time>2024-10-24T14:22:17.000Z</time>
      </trkpt>
      <trkpt lat="42.849" lon="2.20796">
        <ele>335.20001220703</ele>
        <time>2024-10-24T14:23:28.000Z</time>
      </trkpt>
      <trkpt lat="42.849" lon="2.2079">
        <ele>335</ele>
        <time>2024-10-24T14:23:30.000Z</time>
      </trkpt>
      <trkpt lat="42.849" lon="2.20774">
        <ele>334.39999389648</ele>
        <time>2024-10-24T14:23:33.000Z</time>
      </trkpt>
      <trkpt lat="42.849" lon="2.20767">
        <ele>334.20001220703</ele>
        <time>2024-10-24T14:23:34.000Z</time>
      </trkpt>
      <trkpt lat="42.84898" lon="2.20753">
        <ele>334</ele>
        <time>2024-10-24T14:23:36.000Z</time>
      </trkpt>
      <trkpt lat="42.84896" lon="2.20738">
        <ele>333.60000610352</ele>
        <time>2024-10-24T14:23:38.000Z</time>
      </trkpt>
      <trkpt lat="42.84893" lon="2.2073">
        <ele>333.39999389648</ele>
        <time>2024-10-24T14:23:39.000Z</time>
      </trkpt>
      <trkpt lat="42.84876" lon="2.2068">
        <ele>330.39999389648</ele>
        <time>2024-10-24T14:23:45.000Z</time>
      </trkpt>
      <trkpt lat="42.84877" lon="2.20662">
        <ele>330.20001220703</ele>
        <time>2024-10-24T14:23:47.000Z</time>
      </trkpt>
      <trkpt lat="42.8488" lon="2.20652">
        <ele>330</ele>
        <time>2024-10-24T14:23:48.000Z</time>
      </trkpt>
      <trkpt lat="42.84883" lon="2.20643">
        <ele>330.20001220703</ele>
        <time>2024-10-24T14:23:49.000Z</time>
      </trkpt>
      <trkpt lat="42.84899" lon="2.20606">
        <ele>330.20001220703</ele>
        <time>2024-10-24T14:23:53.000Z</time>
      </trkpt>
      <trkpt lat="42.8491" lon="2.20569">
        <ele>328.60000610352</ele>
        <time>2024-10-24T14:23:57.000Z</time>
      </trkpt>
      <trkpt lat="42.84914" lon="2.20561">
        <ele>328</ele>
        <time>2024-10-24T14:23:58.000Z</time>
      </trkpt>
      <trkpt lat="42.84926" lon="2.20529">
        <ele>323.60000610352</ele>
        <time>2024-10-24T14:24:02.000Z</time>
      </trkpt>
      <trkpt lat="42.84929" lon="2.20521">
        <ele>322.20001220703</ele>
        <time>2024-10-24T14:24:03.000Z</time>
      </trkpt>
      <trkpt lat="42.84936" lon="2.20505">
        <ele>321</ele>
        <time>2024-10-24T14:24:05.000Z</time>
      </trkpt>
      <trkpt lat="42.84946" lon="2.20492">
        <ele>319.20001220703</ele>
        <time>2024-10-24T14:24:07.000Z</time>
      </trkpt>
      <trkpt lat="42.84957" lon="2.20483">
        <ele>319</ele>
        <time>2024-10-24T14:24:09.000Z</time>
      </trkpt>
      <trkpt lat="42.84968" lon="2.20476">
        <ele>319</ele>
        <time>2024-10-24T14:24:11.000Z</time>
      </trkpt>
      <trkpt lat="42.85003" lon="2.20467">
        <ele>317.39999389648</ele>
        <time>2024-10-24T14:24:16.000Z</time>
      </trkpt>
      <trkpt lat="42.85011" lon="2.20466">
        <ele>317</ele>
        <time>2024-10-24T14:24:17.000Z</time>
      </trkpt>
      <trkpt lat="42.85034" lon="2.2047">
        <ele>317</ele>
        <time>2024-10-24T14:24:20.000Z</time>
      </trkpt>
      <trkpt lat="42.85056" lon="2.2048">
        <ele>317.60000610352</ele>
        <time>2024-10-24T14:24:23.000Z</time>
      </trkpt>
      <trkpt lat="42.85063" lon="2.20485">
        <ele>317.60000610352</ele>
        <time>2024-10-24T14:24:24.000Z</time>
      </trkpt>
      <trkpt lat="42.85095" lon="2.20509">
        <ele>320.79998779297</ele>
        <time>2024-10-24T14:24:29.000Z</time>
      </trkpt>
      <trkpt lat="42.85107" lon="2.20516">
        <ele>321.20001220703</ele>
        <time>2024-10-24T14:24:31.000Z</time>
      </trkpt>
      <trkpt lat="42.85126" lon="2.20521">
        <ele>320.79998779297</ele>
        <time>2024-10-24T14:24:34.000Z</time>
      </trkpt>
      <trkpt lat="42.85145" lon="2.20522">
        <ele>319.39999389648</ele>
        <time>2024-10-24T14:24:37.000Z</time>
      </trkpt>
      <trkpt lat="42.85157" lon="2.20518">
        <ele>319.60000610352</ele>
        <time>2024-10-24T14:24:39.000Z</time>
      </trkpt>
      <trkpt lat="42.85169" lon="2.20511">
        <ele>320</ele>
        <time>2024-10-24T14:24:41.000Z</time>
      </trkpt>
      <trkpt lat="42.85184" lon="2.20496">
        <ele>319.20001220703</ele>
        <time>2024-10-24T14:24:44.000Z</time>
      </trkpt>
      <trkpt lat="42.8521" lon="2.2046">
        <ele>317</ele>
        <time>2024-10-24T14:24:50.000Z</time>
      </trkpt>
      <trkpt lat="42.85235" lon="2.20422">
        <ele>313.79998779297</ele>
        <time>2024-10-24T14:24:56.000Z</time>
      </trkpt>
      <trkpt lat="42.85252" lon="2.20382">
        <ele>312.20001220703</ele>
        <time>2024-10-24T14:25:01.000Z</time>
      </trkpt>
      <trkpt lat="42.85271" lon="2.2033">
        <ele>313</ele>
        <time>2024-10-24T14:25:07.000Z</time>
      </trkpt>
      <trkpt lat="42.85297" lon="2.20281">
        <ele>312.39999389648</ele>
        <time>2024-10-24T14:25:13.000Z</time>
      </trkpt>
      <trkpt lat="42.85335" lon="2.20224">
        <ele>310</ele>
        <time>2024-10-24T14:25:21.000Z</time>
      </trkpt>
      <trkpt lat="42.85363" lon="2.20187">
        <ele>310.79998779297</ele>
        <time>2024-10-24T14:25:27.000Z</time>
      </trkpt>
      <trkpt lat="42.85375" lon="2.20183">
        <ele>311.20001220703</ele>
        <time>2024-10-24T14:25:29.000Z</time>
      </trkpt>
      <trkpt lat="42.8538" lon="2.20184">
        <ele>311.39999389648</ele>
        <time>2024-10-24T14:25:30.000Z</time>
      </trkpt>
      <trkpt lat="42.85386" lon="2.20185">
        <ele>311.60000610352</ele>
        <time>2024-10-24T14:25:31.000Z</time>
      </trkpt>
      <trkpt lat="42.85394" lon="2.20181">
        <ele>311.79998779297</ele>
        <time>2024-10-24T14:25:33.000Z</time>
      </trkpt>
      <trkpt lat="42.85404" lon="2.20172">
        <ele>311.60000610352</ele>
        <time>2024-10-24T14:25:36.000Z</time>
      </trkpt>
      <trkpt lat="42.85406" lon="2.20172">
        <ele>311.79998779297</ele>
        <time>2024-10-24T14:25:37.000Z</time>
      </trkpt>
      <trkpt lat="42.85409" lon="2.20173">
        <ele>311.79998779297</ele>
        <time>2024-10-24T14:25:38.000Z</time>
      </trkpt>
      <trkpt lat="42.85416" lon="2.20178">
        <ele>312.39999389648</ele>
        <time>2024-10-24T14:25:41.000Z</time>
      </trkpt>
      <trkpt lat="42.85423" lon="2.20173">
        <ele>312</ele>
        <time>2024-10-24T14:25:44.000Z</time>
      </trkpt>
      <trkpt lat="42.85434" lon="2.20168">
        <ele>311.20001220703</ele>
        <time>2024-10-24T14:25:48.000Z</time>
      </trkpt>
      <trkpt lat="42.8544" lon="2.20167">
        <ele>310.79998779297</ele>
        <time>2024-10-24T14:25:52.000Z</time>
      </trkpt>
      <trkpt lat="42.85441" lon="2.20165">
        <ele>310.60000610352</ele>
        <time>2024-10-24T14:25:53.000Z</time>
      </trkpt>
      <trkpt lat="42.85449" lon="2.20138">
        <ele>310</ele>
        <time>2024-10-24T14:25:59.000Z</time>
      </trkpt>
      <trkpt lat="42.8545" lon="2.20131">
        <ele>310</ele>
        <time>2024-10-24T14:26:01.000Z</time>
      </trkpt>
      <trkpt lat="42.85451" lon="2.20128">
        <ele>310</ele>
        <time>2024-10-24T14:26:02.000Z</time>
      </trkpt>
      <trkpt lat="42.85471" lon="2.20118">
        <ele>309.60000610352</ele>
        <time>2024-10-24T14:26:09.000Z</time>
      </trkpt>
      <trkpt lat="42.85491" lon="2.20113">
        <ele>309.60000610352</ele>
        <time>2024-10-24T14:26:15.000Z</time>
      </trkpt>
      <trkpt lat="42.85507" lon="2.20109">
        <ele>309</ele>
        <time>2024-10-24T14:26:20.000Z</time>
      </trkpt>
      <trkpt lat="42.85524" lon="2.2011">
        <ele>309.20001220703</ele>
        <time>2024-10-24T14:26:24.000Z</time>
      </trkpt>
      <trkpt lat="42.85553" lon="2.20105">
        <ele>311.39999389648</ele>
        <time>2024-10-24T14:26:31.000Z</time>
      </trkpt>
      <trkpt lat="42.85576" lon="2.20101">
        <ele>313.20001220703</ele>
        <time>2024-10-24T14:26:38.000Z</time>
      </trkpt>
      <trkpt lat="42.85595" lon="2.20092">
        <ele>313</ele>
        <time>2024-10-24T14:26:44.000Z</time>
      </trkpt>
      <trkpt lat="42.85604" lon="2.20078">
        <ele>312.20001220703</ele>
        <time>2024-10-24T14:26:48.000Z</time>
      </trkpt>
      <trkpt lat="42.85618" lon="2.20059">
        <ele>314</ele>
        <time>2024-10-24T14:26:53.000Z</time>
      </trkpt>
      <trkpt lat="42.85631" lon="2.20034">
        <ele>318</ele>
        <time>2024-10-24T14:26:59.000Z</time>
      </trkpt>
      <trkpt lat="42.8564" lon="2.20015">
        <ele>319.20001220703</ele>
        <time>2024-10-24T14:27:03.000Z</time>
      </trkpt>
      <trkpt lat="42.85644" lon="2.20005">
        <ele>318.79998779297</ele>
        <time>2024-10-24T14:27:05.000Z</time>
      </trkpt>
      <trkpt lat="42.85649" lon="2.19979">
        <ele>317.79998779297</ele>
        <time>2024-10-24T14:27:10.000Z</time>
      </trkpt>
      <trkpt lat="42.85655" lon="2.19953">
        <ele>322.20001220703</ele>
        <time>2024-10-24T14:27:15.000Z</time>
      </trkpt>
      <trkpt lat="42.85658" lon="2.19925">
        <ele>323.39999389648</ele>
        <time>2024-10-24T14:27:20.000Z</time>
      </trkpt>
      <trkpt lat="42.85664" lon="2.19893">
        <ele>321</ele>
        <time>2024-10-24T14:27:27.000Z</time>
      </trkpt>
      <trkpt lat="42.85668" lon="2.19859">
        <ele>315.60000610352</ele>
        <time>2024-10-24T14:27:34.000Z</time>
      </trkpt>
      <trkpt lat="42.85672" lon="2.19822">
        <ele>312.20001220703</ele>
        <time>2024-10-24T14:27:41.000Z</time>
      </trkpt>
      <trkpt lat="42.85676" lon="2.19801">
        <ele>313</ele>
        <time>2024-10-24T14:27:45.000Z</time>
      </trkpt>
      <trkpt lat="42.85678" lon="2.1979">
        <ele>313.79998779297</ele>
        <time>2024-10-24T14:27:47.000Z</time>
      </trkpt>
      <trkpt lat="42.8568" lon="2.19772">
        <ele>315.39999389648</ele>
        <time>2024-10-24T14:27:50.000Z</time>
      </trkpt>
      <trkpt lat="42.85684" lon="2.1976">
        <ele>316.39999389648</ele>
        <time>2024-10-24T14:27:52.000Z</time>
      </trkpt>
      <trkpt lat="42.85689" lon="2.1975">
        <ele>318.20001220703</ele>
        <time>2024-10-24T14:27:54.000Z</time>
      </trkpt>
      <trkpt lat="42.85696" lon="2.19742">
        <ele>321.20001220703</ele>
        <time>2024-10-24T14:27:56.000Z</time>
      </trkpt>
      <trkpt lat="42.85701" lon="2.19735">
        <ele>323.20001220703</ele>
        <time>2024-10-24T14:27:58.000Z</time>
      </trkpt>
      <trkpt lat="42.85706" lon="2.19725">
        <ele>323.79998779297</ele>
        <time>2024-10-24T14:28:00.000Z</time>
      </trkpt>
      <trkpt lat="42.85715" lon="2.19704">
        <ele>324.60000610352</ele>
        <time>2024-10-24T14:28:04.000Z</time>
      </trkpt>
      <trkpt lat="42.85719" lon="2.19686">
        <ele>322.79998779297</ele>
        <time>2024-10-24T14:28:07.000Z</time>
      </trkpt>
      <trkpt lat="42.85721" lon="2.1968">
        <ele>322.60000610352</ele>
        <time>2024-10-24T14:28:08.000Z</time>
      </trkpt>
      <trkpt lat="42.85723" lon="2.19667">
        <ele>321.39999389648</ele>
        <time>2024-10-24T14:28:10.000Z</time>
      </trkpt>
      <trkpt lat="42.85726" lon="2.19655">
        <ele>320</ele>
        <time>2024-10-24T14:28:12.000Z</time>
      </trkpt>
      <trkpt lat="42.85727" lon="2.19648">
        <ele>319.39999389648</ele>
        <time>2024-10-24T14:28:13.000Z</time>
      </trkpt>
      <trkpt lat="42.85731" lon="2.1963">
        <ele>316.79998779297</ele>
        <time>2024-10-24T14:28:16.000Z</time>
      </trkpt>
      <trkpt lat="42.85733" lon="2.19623">
        <ele>316.79998779297</ele>
        <time>2024-10-24T14:28:17.000Z</time>
      </trkpt>
      <trkpt lat="42.85733" lon="2.19615">
        <ele>316.79998779297</ele>
        <time>2024-10-24T14:28:18.000Z</time>
      </trkpt>
      <trkpt lat="42.85732" lon="2.1959">
        <ele>315.60000610352</ele>
        <time>2024-10-24T14:28:21.000Z</time>
      </trkpt>
      <trkpt lat="42.85734" lon="2.19576">
        <ele>315.39999389648</ele>
        <time>2024-10-24T14:28:23.000Z</time>
      </trkpt>
      <trkpt lat="42.85736" lon="2.19565">
        <ele>315.79998779297</ele>
        <time>2024-10-24T14:28:25.000Z</time>
      </trkpt>
      <trkpt lat="42.8574" lon="2.19547">
        <ele>316</ele>
        <time>2024-10-24T14:28:28.000Z</time>
      </trkpt>
      <trkpt lat="42.85744" lon="2.19536">
        <ele>315.39999389648</ele>
        <time>2024-10-24T14:28:30.000Z</time>
      </trkpt>
      <trkpt lat="42.85753" lon="2.1951">
        <ele>314.20001220703</ele>
        <time>2024-10-24T14:28:35.000Z</time>
      </trkpt>
      <trkpt lat="42.85757" lon="2.195">
        <ele>314</ele>
        <time>2024-10-24T14:28:37.000Z</time>
      </trkpt>
      <trkpt lat="42.85759" lon="2.19495">
        <ele>314.20001220703</ele>
        <time>2024-10-24T14:28:38.000Z</time>
      </trkpt>
      <trkpt lat="42.85761" lon="2.19489">
        <ele>314.39999389648</ele>
        <time>2024-10-24T14:28:39.000Z</time>
      </trkpt>
      <trkpt lat="42.85766" lon="2.19473">
        <ele>315.39999389648</ele>
        <time>2024-10-24T14:28:42.000Z</time>
      </trkpt>
      <trkpt lat="42.85774" lon="2.19445">
        <ele>315.39999389648</ele>
        <time>2024-10-24T14:28:48.000Z</time>
      </trkpt>
      <trkpt lat="42.85778" lon="2.19436">
        <ele>315.20001220703</ele>
        <time>2024-10-24T14:28:50.000Z</time>
      </trkpt>
      <trkpt lat="42.85782" lon="2.19426">
        <ele>315.39999389648</ele>
        <time>2024-10-24T14:28:52.000Z</time>
      </trkpt>
      <trkpt lat="42.85792" lon="2.19395">
        <ele>314.20001220703</ele>
        <time>2024-10-24T14:28:58.000Z</time>
      </trkpt>
      <trkpt lat="42.85799" lon="2.19378">
        <ele>314.79998779297</ele>
        <time>2024-10-24T14:29:02.000Z</time>
      </trkpt>
      <trkpt lat="42.85803" lon="2.19365">
        <ele>315.39999389648</ele>
        <time>2024-10-24T14:29:06.000Z</time>
      </trkpt>
      <trkpt lat="42.85807" lon="2.19354">
        <ele>314.39999389648</ele>
        <time>2024-10-24T14:29:10.000Z</time>
      </trkpt>
      <trkpt lat="42.85812" lon="2.1935">
        <ele>314.39999389648</ele>
        <time>2024-10-24T14:29:12.000Z</time>
      </trkpt>
      <trkpt lat="42.85821" lon="2.19342">
        <ele>316.20001220703</ele>
        <time>2024-10-24T14:29:16.000Z</time>
      </trkpt>
      <trkpt lat="42.85831" lon="2.19336">
        <ele>319</ele>
        <time>2024-10-24T14:29:20.000Z</time>
      </trkpt>
      <trkpt lat="42.85839" lon="2.19327">
        <ele>318.39999389648</ele>
        <time>2024-10-24T14:29:24.000Z</time>
      </trkpt>
      <trkpt lat="42.85842" lon="2.19325">
        <ele>318.79998779297</ele>
        <time>2024-10-24T14:29:25.000Z</time>
      </trkpt>
      <trkpt lat="42.85852" lon="2.19321">
        <ele>321.60000610352</ele>
        <time>2024-10-24T14:29:28.000Z</time>
      </trkpt>
      <trkpt lat="42.85865" lon="2.1931">
        <ele>323</ele>
        <time>2024-10-24T14:29:32.000Z</time>
      </trkpt>
      <trkpt lat="42.8588" lon="2.19292">
        <ele>322.39999389648</ele>
        <time>2024-10-24T14:29:37.000Z</time>
      </trkpt>
      <trkpt lat="42.85893" lon="2.19276">
        <ele>321.60000610352</ele>
        <time>2024-10-24T14:29:42.000Z</time>
      </trkpt>
      <trkpt lat="42.85907" lon="2.19255">
        <ele>318.20001220703</ele>
        <time>2024-10-24T14:29:48.000Z</time>
      </trkpt>
      <trkpt lat="42.85922" lon="2.19238">
        <ele>317.79998779297</ele>
        <time>2024-10-24T14:29:54.000Z</time>
      </trkpt>
      <trkpt lat="42.85931" lon="2.19225">
        <ele>318.39999389648</ele>
        <time>2024-10-24T14:29:58.000Z</time>
      </trkpt>
      <trkpt lat="42.85932" lon="2.19222">
        <ele>318.20001220703</ele>
        <time>2024-10-24T14:29:59.000Z</time>
      </trkpt>
      <trkpt lat="42.85937" lon="2.19202">
        <ele>317.20001220703</ele>
        <time>2024-10-24T14:30:04.000Z</time>
      </trkpt>
      <trkpt lat="42.8594" lon="2.19182">
        <ele>316</ele>
        <time>2024-10-24T14:30:09.000Z</time>
      </trkpt>
      <trkpt lat="42.85942" lon="2.19179">
        <ele>316.39999389648</ele>
        <time>2024-10-24T14:30:10.000Z</time>
      </trkpt>
      <trkpt lat="42.85946" lon="2.19173">
        <ele>317</ele>
        <time>2024-10-24T14:30:12.000Z</time>
      </trkpt>
      <trkpt lat="42.85961" lon="2.19162">
        <ele>320</ele>
        <time>2024-10-24T14:30:18.000Z</time>
      </trkpt>
      <trkpt lat="42.85973" lon="2.19162">
        <ele>322.79998779297</ele>
        <time>2024-10-24T14:30:22.000Z</time>
      </trkpt>
      <trkpt lat="42.85981" lon="2.19169">
        <ele>325.60000610352</ele>
        <time>2024-10-24T14:30:24.000Z</time>
      </trkpt>
      <trkpt lat="42.85985" lon="2.19173">
        <ele>326.60000610352</ele>
        <time>2024-10-24T14:30:25.000Z</time>
      </trkpt>
      <trkpt lat="42.8599" lon="2.19177">
        <ele>327.39999389648</ele>
        <time>2024-10-24T14:30:26.000Z</time>
      </trkpt>
      <trkpt lat="42.86" lon="2.19184">
        <ele>328.60000610352</ele>
        <time>2024-10-24T14:30:28.000Z</time>
      </trkpt>
      <trkpt lat="42.86005" lon="2.19188">
        <ele>329.79998779297</ele>
        <time>2024-10-24T14:30:29.000Z</time>
      </trkpt>
      <trkpt lat="42.8601" lon="2.19192">
        <ele>331.39999389648</ele>
        <time>2024-10-24T14:30:30.000Z</time>
      </trkpt>
      <trkpt lat="42.86023" lon="2.19206">
        <ele>330.39999389648</ele>
        <time>2024-10-24T14:30:33.000Z</time>
      </trkpt>
      <trkpt lat="42.8606" lon="2.19236">
        <ele>325.39999389648</ele>
        <time>2024-10-24T14:30:40.000Z</time>
      </trkpt>
      <trkpt lat="42.86084" lon="2.19255">
        <ele>322.60000610352</ele>
        <time>2024-10-24T14:30:45.000Z</time>
      </trkpt>
      <trkpt lat="42.86093" lon="2.19266">
        <ele>322.39999389648</ele>
        <time>2024-10-24T14:30:47.000Z</time>
      </trkpt>
      <trkpt lat="42.86104" lon="2.19282">
        <ele>322.20001220703</ele>
        <time>2024-10-24T14:30:50.000Z</time>
      </trkpt>
      <trkpt lat="42.86116" lon="2.19295">
        <ele>321.20001220703</ele>
        <time>2024-10-24T14:30:53.000Z</time>
      </trkpt>
      <trkpt lat="42.86123" lon="2.19304">
        <ele>321</ele>
        <time>2024-10-24T14:30:55.000Z</time>
      </trkpt>
      <trkpt lat="42.8614" lon="2.19319">
        <ele>319.39999389648</ele>
        <time>2024-10-24T14:30:59.000Z</time>
      </trkpt>
      <trkpt lat="42.86156" lon="2.19327">
        <ele>317.20001220703</ele>
        <time>2024-10-24T14:31:04.000Z</time>
      </trkpt>
      <trkpt lat="42.86159" lon="2.19327">
        <ele>316.60000610352</ele>
        <time>2024-10-24T14:31:05.000Z</time>
      </trkpt>
      <trkpt lat="42.8617" lon="2.19323">
        <ele>312.79998779297</ele>
        <time>2024-10-24T14:31:08.000Z</time>
      </trkpt>
      <trkpt lat="42.86183" lon="2.19318">
        <ele>310</ele>
        <time>2024-10-24T14:31:11.000Z</time>
      </trkpt>
      <trkpt lat="42.86188" lon="2.19317">
        <ele>309.39999389648</ele>
        <time>2024-10-24T14:31:12.000Z</time>
      </trkpt>
      <trkpt lat="42.86204" lon="2.19309">
        <ele>306.60000610352</ele>
        <time>2024-10-24T14:31:16.000Z</time>
      </trkpt>
      <trkpt lat="42.86212" lon="2.19305">
        <ele>306.39999389648</ele>
        <time>2024-10-24T14:31:18.000Z</time>
      </trkpt>
      <trkpt lat="42.86222" lon="2.19304">
        <ele>306.39999389648</ele>
        <time>2024-10-24T14:31:20.000Z</time>
      </trkpt>
      <trkpt lat="42.86227" lon="2.19303">
        <ele>306.39999389648</ele>
        <time>2024-10-24T14:31:21.000Z</time>
      </trkpt>
      <trkpt lat="42.86251" lon="2.19305">
        <ele>306.79998779297</ele>
        <time>2024-10-24T14:31:25.000Z</time>
      </trkpt>
      <trkpt lat="42.86273" lon="2.19301">
        <ele>305.39999389648</ele>
        <time>2024-10-24T14:31:29.000Z</time>
      </trkpt>
      <trkpt lat="42.86288" lon="2.19295">
        <ele>303.79998779297</ele>
        <time>2024-10-24T14:31:32.000Z</time>
      </trkpt>
      <trkpt lat="42.86298" lon="2.1929">
        <ele>304.39999389648</ele>
        <time>2024-10-24T14:31:34.000Z</time>
      </trkpt>
      <trkpt lat="42.86315" lon="2.1928">
        <ele>304.79998779297</ele>
        <time>2024-10-24T14:31:37.000Z</time>
      </trkpt>
      <trkpt lat="42.86327" lon="2.19272">
        <ele>305.39999389648</ele>
        <time>2024-10-24T14:31:39.000Z</time>
      </trkpt>
      <trkpt lat="42.86347" lon="2.1926">
        <ele>306</ele>
        <time>2024-10-24T14:31:42.000Z</time>
      </trkpt>
      <trkpt lat="42.8636" lon="2.19252">
        <ele>304.60000610352</ele>
        <time>2024-10-24T14:31:44.000Z</time>
      </trkpt>
      <trkpt lat="42.86377" lon="2.1924">
        <ele>302.20001220703</ele>
        <time>2024-10-24T14:31:47.000Z</time>
      </trkpt>
      <trkpt lat="42.86394" lon="2.1923">
        <ele>302.39999389648</ele>
        <time>2024-10-24T14:31:50.000Z</time>
      </trkpt>
      <trkpt lat="42.86403" lon="2.1922">
        <ele>302.39999389648</ele>
        <time>2024-10-24T14:31:52.000Z</time>
      </trkpt>
      <trkpt lat="42.86407" lon="2.19215">
        <ele>302.60000610352</ele>
        <time>2024-10-24T14:31:53.000Z</time>
      </trkpt>
      <trkpt lat="42.86415" lon="2.19204">
        <ele>303.79998779297</ele>
        <time>2024-10-24T14:31:55.000Z</time>
      </trkpt>
      <trkpt lat="42.86418" lon="2.19198">
        <ele>303.79998779297</ele>
        <time>2024-10-24T14:31:56.000Z</time>
      </trkpt>
      <trkpt lat="42.86436" lon="2.19168">
        <ele>304</ele>
        <time>2024-10-24T14:32:01.000Z</time>
      </trkpt>
      <trkpt lat="42.86443" lon="2.19155">
        <ele>304.60000610352</ele>
        <time>2024-10-24T14:32:03.000Z</time>
      </trkpt>
      <trkpt lat="42.86454" lon="2.19138">
        <ele>305.60000610352</ele>
        <time>2024-10-24T14:32:06.000Z</time>
      </trkpt>
      <trkpt lat="42.86461" lon="2.19125">
        <ele>305.79998779297</ele>
        <time>2024-10-24T14:32:08.000Z</time>
      </trkpt>
      <trkpt lat="42.86465" lon="2.19112">
        <ele>305.20001220703</ele>
        <time>2024-10-24T14:32:10.000Z</time>
      </trkpt>
      <trkpt lat="42.86468" lon="2.19097">
        <ele>303.60000610352</ele>
        <time>2024-10-24T14:32:12.000Z</time>
      </trkpt>
      <trkpt lat="42.86469" lon="2.19081">
        <ele>302.20001220703</ele>
        <time>2024-10-24T14:32:14.000Z</time>
      </trkpt>
      <trkpt lat="42.86469" lon="2.1905">
        <ele>301</ele>
        <time>2024-10-24T14:32:18.000Z</time>
      </trkpt>
      <trkpt lat="42.8647" lon="2.19042">
        <ele>301.20001220703</ele>
        <time>2024-10-24T14:32:19.000Z</time>
      </trkpt>
      <trkpt lat="42.86471" lon="2.19013">
        <ele>303</ele>
        <time>2024-10-24T14:32:23.000Z</time>
      </trkpt>
      <trkpt lat="42.86469" lon="2.19004">
        <ele>302.79998779297</ele>
        <time>2024-10-24T14:32:24.000Z</time>
      </trkpt>
      <trkpt lat="42.86466" lon="2.18996">
        <ele>302.60000610352</ele>
        <time>2024-10-24T14:32:25.000Z</time>
      </trkpt>
      <trkpt lat="42.86456" lon="2.18973">
        <ele>300.20001220703</ele>
        <time>2024-10-24T14:32:28.000Z</time>
      </trkpt>
      <trkpt lat="42.86443" lon="2.18941">
        <ele>298.39999389648</ele>
        <time>2024-10-24T14:32:32.000Z</time>
      </trkpt>
      <trkpt lat="42.86442" lon="2.18933">
        <ele>298.20001220703</ele>
        <time>2024-10-24T14:32:33.000Z</time>
      </trkpt>
      <trkpt lat="42.86441" lon="2.18885">
        <ele>297</ele>
        <time>2024-10-24T14:32:39.000Z</time>
      </trkpt>
      <trkpt lat="42.86441" lon="2.18841">
        <ele>294.60000610352</ele>
        <time>2024-10-24T14:32:44.000Z</time>
      </trkpt>
      <trkpt lat="42.86432" lon="2.18786">
        <ele>292.20001220703</ele>
        <time>2024-10-24T14:32:50.000Z</time>
      </trkpt>
      <trkpt lat="42.8642" lon="2.18734">
        <ele>291.60000610352</ele>
        <time>2024-10-24T14:32:56.000Z</time>
      </trkpt>
      <trkpt lat="42.86418" lon="2.18726">
        <ele>291.79998779297</ele>
        <time>2024-10-24T14:32:57.000Z</time>
      </trkpt>
      <trkpt lat="42.86415" lon="2.18695">
        <ele>293.39999389648</ele>
        <time>2024-10-24T14:33:01.000Z</time>
      </trkpt>
      <trkpt lat="42.86418" lon="2.1868">
        <ele>293.79998779297</ele>
        <time>2024-10-24T14:33:03.000Z</time>
      </trkpt>
      <trkpt lat="42.86423" lon="2.18664">
        <ele>294</ele>
        <time>2024-10-24T14:33:05.000Z</time>
      </trkpt>
      <trkpt lat="42.86433" lon="2.18644">
        <ele>293.39999389648</ele>
        <time>2024-10-24T14:33:08.000Z</time>
      </trkpt>
      <trkpt lat="42.86437" lon="2.18638">
        <ele>293.20001220703</ele>
        <time>2024-10-24T14:33:09.000Z</time>
      </trkpt>
      <trkpt lat="42.86441" lon="2.18631">
        <ele>292.60000610352</ele>
        <time>2024-10-24T14:33:10.000Z</time>
      </trkpt>
      <trkpt lat="42.86449" lon="2.18618">
        <ele>291.79998779297</ele>
        <time>2024-10-24T14:33:12.000Z</time>
      </trkpt>
      <trkpt lat="42.86453" lon="2.18613">
        <ele>291</ele>
        <time>2024-10-24T14:33:13.000Z</time>
      </trkpt>
      <trkpt lat="42.86465" lon="2.18601">
        <ele>290.79998779297</ele>
        <time>2024-10-24T14:33:16.000Z</time>
      </trkpt>
      <trkpt lat="42.86469" lon="2.18599">
        <ele>291.20001220703</ele>
        <time>2024-10-24T14:33:17.000Z</time>
      </trkpt>
      <trkpt lat="42.86474" lon="2.186">
        <ele>291.39999389648</ele>
        <time>2024-10-24T14:33:18.000Z</time>
      </trkpt>
      <trkpt lat="42.86485" lon="2.18602">
        <ele>292.20001220703</ele>
        <time>2024-10-24T14:33:20.000Z</time>
      </trkpt>
      <trkpt lat="42.86498" lon="2.18605">
        <ele>293.20001220703</ele>
        <time>2024-10-24T14:33:22.000Z</time>
      </trkpt>
      <trkpt lat="42.86508" lon="2.1861">
        <ele>293.79998779297</ele>
        <time>2024-10-24T14:33:24.000Z</time>
      </trkpt>
      <trkpt lat="42.86525" lon="2.18615">
        <ele>294.39999389648</ele>
        <time>2024-10-24T14:33:27.000Z</time>
      </trkpt>
      <trkpt lat="42.86543" lon="2.18615">
        <ele>293.79998779297</ele>
        <time>2024-10-24T14:33:30.000Z</time>
      </trkpt>
      <trkpt lat="42.86555" lon="2.18613">
        <ele>293.39999389648</ele>
        <time>2024-10-24T14:33:32.000Z</time>
      </trkpt>
      <trkpt lat="42.86567" lon="2.18607">
        <ele>293.20001220703</ele>
        <time>2024-10-24T14:33:34.000Z</time>
      </trkpt>
      <trkpt lat="42.86579" lon="2.18598">
        <ele>293.60000610352</ele>
        <time>2024-10-24T14:33:36.000Z</time>
      </trkpt>
      <trkpt lat="42.86603" lon="2.18581">
        <ele>293.60000610352</ele>
        <time>2024-10-24T14:33:40.000Z</time>
      </trkpt>
      <trkpt lat="42.86614" lon="2.18573">
        <ele>293.39999389648</ele>
        <time>2024-10-24T14:33:42.000Z</time>
      </trkpt>
      <trkpt lat="42.86626" lon="2.1857">
        <ele>293.20001220703</ele>
        <time>2024-10-24T14:33:44.000Z</time>
      </trkpt>
      <trkpt lat="42.86631" lon="2.1857">
        <ele>293.20001220703</ele>
        <time>2024-10-24T14:33:45.000Z</time>
      </trkpt>
      <trkpt lat="42.86636" lon="2.18572">
        <ele>293.20001220703</ele>
        <time>2024-10-24T14:33:46.000Z</time>
      </trkpt>
      <trkpt lat="42.86648" lon="2.18576">
        <ele>293</ele>
        <time>2024-10-24T14:33:49.000Z</time>
      </trkpt>
      <trkpt lat="42.8668" lon="2.18584">
        <ele>295</ele>
        <time>2024-10-24T14:33:55.000Z</time>
      </trkpt>
      <trkpt lat="42.86692" lon="2.18586">
        <ele>294.79998779297</ele>
        <time>2024-10-24T14:33:57.000Z</time>
      </trkpt>
      <trkpt lat="42.86711" lon="2.18593">
        <ele>294.20001220703</ele>
        <time>2024-10-24T14:34:00.000Z</time>
      </trkpt>
      <trkpt lat="42.86756" lon="2.18616">
        <ele>293.79998779297</ele>
        <time>2024-10-24T14:34:08.000Z</time>
      </trkpt>
      <trkpt lat="42.868" lon="2.18646">
        <ele>295.20001220703</ele>
        <time>2024-10-24T14:34:16.000Z</time>
      </trkpt>
      <trkpt lat="42.86806" lon="2.1865">
        <ele>295.39999389648</ele>
        <time>2024-10-24T14:34:17.000Z</time>
      </trkpt>
      <trkpt lat="42.86824" lon="2.18662">
        <ele>295.60000610352</ele>
        <time>2024-10-24T14:34:20.000Z</time>
      </trkpt>
      <trkpt lat="42.86853" lon="2.18688">
        <ele>293.39999389648</ele>
        <time>2024-10-24T14:34:25.000Z</time>
      </trkpt>
      <trkpt lat="42.86858" lon="2.18694">
        <ele>293.20001220703</ele>
        <time>2024-10-24T14:34:26.000Z</time>
      </trkpt>
      <trkpt lat="42.86868" lon="2.18707">
        <ele>293</ele>
        <time>2024-10-24T14:34:28.000Z</time>
      </trkpt>
      <trkpt lat="42.86874" lon="2.18713">
        <ele>292.79998779297</ele>
        <time>2024-10-24T14:34:29.000Z</time>
      </trkpt>
      <trkpt lat="42.8688" lon="2.18717">
        <ele>293</ele>
        <time>2024-10-24T14:34:30.000Z</time>
      </trkpt>
      <trkpt lat="42.86893" lon="2.1872">
        <ele>293</ele>
        <time>2024-10-24T14:34:32.000Z</time>
      </trkpt>
      <trkpt lat="42.86906" lon="2.18716">
        <ele>292.79998779297</ele>
        <time>2024-10-24T14:34:34.000Z</time>
      </trkpt>
      <trkpt lat="42.86912" lon="2.18713">
        <ele>293</ele>
        <time>2024-10-24T14:34:35.000Z</time>
      </trkpt>
      <trkpt lat="42.86925" lon="2.18704">
        <ele>293.79998779297</ele>
        <time>2024-10-24T14:34:37.000Z</time>
      </trkpt>
      <trkpt lat="42.86943" lon="2.18695">
        <ele>295.60000610352</ele>
        <time>2024-10-24T14:34:40.000Z</time>
      </trkpt>
      <trkpt lat="42.86971" lon="2.18671">
        <ele>295.39999389648</ele>
        <time>2024-10-24T14:34:45.000Z</time>
      </trkpt>
      <trkpt lat="42.86981" lon="2.18659">
        <ele>294.20001220703</ele>
        <time>2024-10-24T14:34:47.000Z</time>
      </trkpt>
      <trkpt lat="42.86995" lon="2.18639">
        <ele>292.79998779297</ele>
        <time>2024-10-24T14:34:50.000Z</time>
      </trkpt>
      <trkpt lat="42.87003" lon="2.18625">
        <ele>291.79998779297</ele>
        <time>2024-10-24T14:34:52.000Z</time>
      </trkpt>
      <trkpt lat="42.87015" lon="2.18599">
        <ele>289.79998779297</ele>
        <time>2024-10-24T14:34:56.000Z</time>
      </trkpt>
      <trkpt lat="42.87018" lon="2.18594">
        <ele>289.39999389648</ele>
        <time>2024-10-24T14:34:57.000Z</time>
      </trkpt>
      <trkpt lat="42.87021" lon="2.18589">
        <ele>289.20001220703</ele>
        <time>2024-10-24T14:34:58.000Z</time>
      </trkpt>
      <trkpt lat="42.8703" lon="2.18585">
        <ele>288.60000610352</ele>
        <time>2024-10-24T14:35:00.000Z</time>
      </trkpt>
      <trkpt lat="42.87039" lon="2.18583">
        <ele>288.39999389648</ele>
        <time>2024-10-24T14:35:02.000Z</time>
      </trkpt>
      <trkpt lat="42.87047" lon="2.18585">
        <ele>289</ele>
        <time>2024-10-24T14:35:04.000Z</time>
      </trkpt>
      <trkpt lat="42.87051" lon="2.18586">
        <ele>289.39999389648</ele>
        <time>2024-10-24T14:35:05.000Z</time>
      </trkpt>
      <trkpt lat="42.87072" lon="2.18598">
        <ele>291</ele>
        <time>2024-10-24T14:35:10.000Z</time>
      </trkpt>
      <trkpt lat="42.87096" lon="2.18597">
        <ele>291.60000610352</ele>
        <time>2024-10-24T14:35:14.000Z</time>
      </trkpt>
      <trkpt lat="42.87141" lon="2.1859">
        <ele>289.20001220703</ele>
        <time>2024-10-24T14:35:20.000Z</time>
      </trkpt>
      <trkpt lat="42.87179" lon="2.1858">
        <ele>289.20001220703</ele>
        <time>2024-10-24T14:35:25.000Z</time>
      </trkpt>
      <trkpt lat="42.87186" lon="2.1858">
        <ele>289.60000610352</ele>
        <time>2024-10-24T14:35:26.000Z</time>
      </trkpt>
      <trkpt lat="42.872" lon="2.1858">
        <ele>290</ele>
        <time>2024-10-24T14:35:28.000Z</time>
      </trkpt>
      <trkpt lat="42.8722" lon="2.18578">
        <ele>289.60000610352</ele>
        <time>2024-10-24T14:35:31.000Z</time>
      </trkpt>
      <trkpt lat="42.87261" lon="2.18569">
        <ele>287.79998779297</ele>
        <time>2024-10-24T14:35:38.000Z</time>
      </trkpt>
      <trkpt lat="42.87271" lon="2.18561">
        <ele>287.60000610352</ele>
        <time>2024-10-24T14:35:40.000Z</time>
      </trkpt>
      <trkpt lat="42.87276" lon="2.18554">
        <ele>287.60000610352</ele>
        <time>2024-10-24T14:35:41.000Z</time>
      </trkpt>
      <trkpt lat="42.87278" lon="2.18547">
        <ele>287.60000610352</ele>
        <time>2024-10-24T14:35:42.000Z</time>
      </trkpt>
      <trkpt lat="42.87278" lon="2.18538">
        <ele>287.60000610352</ele>
        <time>2024-10-24T14:35:43.000Z</time>
      </trkpt>
      <trkpt lat="42.87278" lon="2.1853">
        <ele>287.60000610352</ele>
        <time>2024-10-24T14:35:44.000Z</time>
      </trkpt>
      <trkpt lat="42.87276" lon="2.18504">
        <ele>287</ele>
        <time>2024-10-24T14:35:47.000Z</time>
      </trkpt>
      <trkpt lat="42.87277" lon="2.18496">
        <ele>286.79998779297</ele>
        <time>2024-10-24T14:35:48.000Z</time>
      </trkpt>
      <trkpt lat="42.87279" lon="2.18489">
        <ele>286.60000610352</ele>
        <time>2024-10-24T14:35:49.000Z</time>
      </trkpt>
      <trkpt lat="42.87287" lon="2.1848">
        <ele>287</ele>
        <time>2024-10-24T14:35:51.000Z</time>
      </trkpt>
      <trkpt lat="42.8731" lon="2.1846">
        <ele>288.60000610352</ele>
        <time>2024-10-24T14:35:56.000Z</time>
      </trkpt>
      <trkpt lat="42.87319" lon="2.18452">
        <ele>289.20001220703</ele>
        <time>2024-10-24T14:35:58.000Z</time>
      </trkpt>
      <trkpt lat="42.87324" lon="2.18448">
        <ele>289.20001220703</ele>
        <time>2024-10-24T14:35:59.000Z</time>
      </trkpt>
      <trkpt lat="42.87339" lon="2.18437">
        <ele>289.79998779297</ele>
        <time>2024-10-24T14:36:02.000Z</time>
      </trkpt>
      <trkpt lat="42.87343" lon="2.18432">
        <ele>289.79998779297</ele>
        <time>2024-10-24T14:36:03.000Z</time>
      </trkpt>
      <trkpt lat="42.87352" lon="2.18422">
        <ele>289.39999389648</ele>
        <time>2024-10-24T14:36:05.000Z</time>
      </trkpt>
      <trkpt lat="42.8737" lon="2.18405">
        <ele>289</ele>
        <time>2024-10-24T14:36:09.000Z</time>
      </trkpt>
      <trkpt lat="42.87373" lon="2.18393">
        <ele>289</ele>
        <time>2024-10-24T14:36:11.000Z</time>
      </trkpt>
      <trkpt lat="42.87372" lon="2.18386">
        <ele>289</ele>
        <time>2024-10-24T14:36:12.000Z</time>
      </trkpt>
      <trkpt lat="42.87364" lon="2.18342">
        <ele>288.79998779297</ele>
        <time>2024-10-24T14:36:18.000Z</time>
      </trkpt>
      <trkpt lat="42.87357" lon="2.18321">
        <ele>288.79998779297</ele>
        <time>2024-10-24T14:36:21.000Z</time>
      </trkpt>
      <trkpt lat="42.87354" lon="2.18307">
        <ele>289.60000610352</ele>
        <time>2024-10-24T14:36:23.000Z</time>
      </trkpt>
      <trkpt lat="42.87353" lon="2.18301">
        <ele>289.60000610352</ele>
        <time>2024-10-24T14:36:24.000Z</time>
      </trkpt>
      <trkpt lat="42.87354" lon="2.18286">
        <ele>290</ele>
        <time>2024-10-24T14:36:27.000Z</time>
      </trkpt>
      <trkpt lat="42.87357" lon="2.18284">
        <ele>290</ele>
        <time>2024-10-24T14:36:29.000Z</time>
      </trkpt>
      <trkpt lat="42.87358" lon="2.18283">
        <ele>290</ele>
        <time>2024-10-24T14:36:30.000Z</time>
      </trkpt>
      <trkpt lat="42.8736" lon="2.18281">
        <ele>290.20001220703</ele>
        <time>2024-10-24T14:36:33.000Z</time>
      </trkpt>
      <trkpt lat="42.87374" lon="2.18269">
        <ele>291</ele>
        <time>2024-10-24T14:36:52.000Z</time>
      </trkpt>
      <trkpt lat="42.87362" lon="2.18264">
        <ele>291.20001220703</ele>
        <time>2024-10-24T14:36:57.000Z</time>
      </trkpt>
      <trkpt lat="42.87347" lon="2.18265">
        <ele>291.20001220703</ele>
        <time>2024-10-24T14:37:01.000Z</time>
      </trkpt>
      <trkpt lat="42.87325" lon="2.18267">
        <ele>291.20001220703</ele>
        <time>2024-10-24T14:37:06.000Z</time>
      </trkpt>
      <trkpt lat="42.87321" lon="2.18268">
        <ele>291</ele>
        <time>2024-10-24T14:37:07.000Z</time>
      </trkpt>
      <trkpt lat="42.87302" lon="2.18272">
        <ele>291.20001220703</ele>
        <time>2024-10-24T14:37:11.000Z</time>
      </trkpt>
      <trkpt lat="42.87287" lon="2.18276">
        <ele>291.39999389648</ele>
        <time>2024-10-24T14:37:14.000Z</time>
      </trkpt>
      <trkpt lat="42.87276" lon="2.18278">
        <ele>290.39999389648</ele>
        <time>2024-10-24T14:37:16.000Z</time>
      </trkpt>
      <trkpt lat="42.87259" lon="2.18282">
        <ele>289.60000610352</ele>
        <time>2024-10-24T14:37:19.000Z</time>
      </trkpt>
      <trkpt lat="42.87248" lon="2.18284">
        <ele>289.39999389648</ele>
        <time>2024-10-24T14:37:21.000Z</time>
      </trkpt>
      <trkpt lat="42.87218" lon="2.18289">
        <ele>289.60000610352</ele>
        <time>2024-10-24T14:37:26.000Z</time>
      </trkpt>
      <trkpt lat="42.87195" lon="2.18293">
        <ele>290.39999389648</ele>
        <time>2024-10-24T14:37:30.000Z</time>
      </trkpt>
      <trkpt lat="42.87184" lon="2.18296">
        <ele>290.79998779297</ele>
        <time>2024-10-24T14:37:32.000Z</time>
      </trkpt>
      <trkpt lat="42.87151" lon="2.18303">
        <ele>291</ele>
        <time>2024-10-24T14:37:38.000Z</time>
      </trkpt>
      <trkpt lat="42.87111" lon="2.1831">
        <ele>290</ele>
        <time>2024-10-24T14:37:45.000Z</time>
      </trkpt>
      <trkpt lat="42.87079" lon="2.18316">
        <ele>290</ele>
        <time>2024-10-24T14:37:51.000Z</time>
      </trkpt>
      <trkpt lat="42.8705" lon="2.18321">
        <ele>289.79998779297</ele>
        <time>2024-10-24T14:37:57.000Z</time>
      </trkpt>
      <trkpt lat="42.87045" lon="2.18321">
        <ele>289.79998779297</ele>
        <time>2024-10-24T14:37:58.000Z</time>
      </trkpt>
      <trkpt lat="42.87034" lon="2.18322">
        <ele>289.79998779297</ele>
        <time>2024-10-24T14:38:01.000Z</time>
      </trkpt>
      <trkpt lat="42.87024" lon="2.18331">
        <ele>289.20001220703</ele>
        <time>2024-10-24T14:38:06.000Z</time>
      </trkpt>
      <trkpt lat="42.87008" lon="2.18334">
        <ele>289</ele>
        <time>2024-10-24T14:38:11.000Z</time>
      </trkpt>
      <trkpt lat="42.87005" lon="2.18336">
        <ele>289</ele>
        <time>2024-10-24T14:38:12.000Z</time>
      </trkpt>
      <trkpt lat="42.87003" lon="2.18345">
        <ele>289</ele>
        <time>2024-10-24T14:38:14.000Z</time>
      </trkpt>
      <trkpt lat="42.87006" lon="2.18364">
        <ele>288.79998779297</ele>
        <time>2024-10-24T14:38:17.000Z</time>
      </trkpt>
      <trkpt lat="42.87008" lon="2.18371">
        <ele>288.39999389648</ele>
        <time>2024-10-24T14:38:18.000Z</time>
      </trkpt>
      <trkpt lat="42.87016" lon="2.18402">
        <ele>288</ele>
        <time>2024-10-24T14:38:23.000Z</time>
      </trkpt>
      <trkpt lat="42.87014" lon="2.1841">
        <ele>288</ele>
        <time>2024-10-24T14:38:26.000Z</time>
      </trkpt>
      <trkpt lat="42.87014" lon="2.18412">
        <ele>288</ele>
        <time>2024-10-24T14:38:27.000Z</time>
      </trkpt>
      <trkpt lat="42.87015" lon="2.18412">
        <ele>288</ele>
        <time>2024-10-24T14:38:28.000Z</time>
      </trkpt>
    </trkseg>
  </trk>
</gpx>